[[{"header":{"parameterUnit":"m.s-1","parameterCategory":1,"la1":31.0,"la2":29.5877,"lo1":-88.7671,"lo2":-86.6584,"dx":0.0162,"dy":0.0185,"nx":115,"ny":88,"refTime":"2023-01-13T06:00:00:Z","depth":0,"parameterNumber":2,"parameterNumberName":"U-component_of_WINDS"},"data":[0.0,0.0,0.0,0.0,0.0,0.0,0.0,0.0,0.0,0.0,0.0,0.0,0.0,0.0,0.0,0.0,0.0,0.0,0.0,0.0,0.0,0.0,0.0,0.0,0.0,0.0,0.0,0.0,0.0,0.0,0.0,0.0,0.0,0.0,0.0,0.0,0.0,0.0,0.0,0.0,0.0,0.0,0.0,0.0,0.0,0.0,0.0,0.0,0.0,0.0,0.0,0.0,0.0,0.0,0.0,0.0,0.0,0.0,0.0,0.0,0.0,0.0,0.0,0.0,0.0,0.0,0.0,0.0,0.0,0.0,0.0,0.0,0.0,0.0,0.0,0.0,0.0,0.0,0.0,0.0,0.0,0.0,0.0,0.0,0.0,0.0,0.0,0.0,0.0,0.0,0.0,0.0,0.0,0.0,0.0,0.0,0.0,0.0,0.0,0.0,0.0,0.0,0.0,0.0,0.0,0.0,0.0,0.0,0.0,0.0,0.0,0.0,0.0,0.0,0.0,0.0,0.0,0.0,0.0,0.0,0.0,0.0,0.0,0.0,0.0,0.0,0.0,0.0,0.0,0.0,0.0,0.0,0.0,0.0,0.0,0.0,0.0,0.0,0.0,0.0,0.0,0.0,0.0,0.0,0.0,0.0,0.0,0.0,0.0,0.0,0.0,0.0,0.0,0.0,0.0,0.0,0.0,0.0,0.0,0.0,0.0,0.0,0.0,0.0,0.0,0.0,0.0,0.0,0.0,0.0,0.0,0.0,0.0,0.0,0.0,0.0,0.0,0.0,0.0,0.0,0.0,0.0,0.0,0.0,0.0,0.0,0.0,0.0,0.0,0.0,0.0,0.0,0.0,0.0,0.0,0.0,0.0,0.0,0.0,0.0,0.0,0.0,0.0,0.0,0.0,0.0,0.0,0.0,0.0,0.0,0.0,0.0,0.0,0.0,0.0,0.0,0.0,0.0,0.0,0.0,0.0,0.0,0.0,0.0,0.0,0.0,0.0,0.0,0.0,0.0,0.0,0.0,0.0,0.0,0.0,0.0,0.0,0.0,0.0,0.0,0.0,0.0,0.0,0.0,0.0,0.0,0.0,0.0,0.0,0.0,0.0,0.0,0.0,0.0,0.0,0.0,0.0,0.0,0.0,0.0,0.0,0.0,0.0,0.0,0.0,0.0,0.0,0.0,0.0,0.0,0.0,0.0,0.0,0.0,0.0,0.0,0.0,0.0,0.0,0.0,0.0,0.0,0.0,0.0,0.0,0.0,0.0,0.0,0.0,0.0,0.0,0.0,0.0,0.0,0.0,0.0,0.0,0.0,0.0,0.0,0.0,0.0,0.0,0.0,0.0,0.0,0.0,0.0,0.0,0.0,0.0,0.0,0.0,0.0,0.0,0.0,0.0,0.0,0.0,0.0,0.0,0.0,0.0,0.0,0.0,0.0,0.0,0.0,0.0,0.0,0.0,0.0,0.0,0.0,0.0,0.0,0.0,0.0,0.0,0.0,0.0,0.0,0.0,0.0,0.0,0.0,0.0,0.0,0.0,0.0,0.0,0.0,0.0,0.0,0.0,0.0,0.0,0.0,0.0,0.0,0.0,0.0,0.0,0.0,0.0,0.0,0.0,0.0,0.0,0.0,0.0,0.0,0.0,0.0,0.0,0.0,0.0,0.0,0.0,0.0,0.0,0.0,0.0,0.0,0.0,0.0,0.0,0.0,0.0,0.0,0.0,0.0,0.0,0.0,0.0,0.0,0.0,0.0,0.0,0.0,0.0,0.0,0.0,0.0,0.0,0.0,0.0,0.0,0.0,0.0,0.0,0.0,0.0,0.0,0.0,0.0,0.0,0.0,0.0,0.0,0.0,0.0,0.0,0.0,0.0,0.0,0.0,0.0,0.0,0.0,0.0,0.0,0.0,0.0,0.0,0.0,0.0,0.0,0.0,0.0,0.0,0.0,0.0,0.0,0.0,0.0,0.0,0.0,0.0,0.0,0.0,0.0,0.0,0.0,0.0,0.0,0.0,0.0,0.0,0.0,0.0,0.0,0.0,0.0,0.0,0.0,0.0,0.0,0.0,0.0,0.0,0.0,0.0,0.0,0.0,0.0,0.0,0.0,0.0,0.0,0.0,0.0,0.0,0.0,0.0,0.0,0.0,0.0,0.0,0.0,0.0,0.0,0.0,0.0,0.0,0.0,0.0,0.0,0.0,0.0,0.0,0.0,0.0,0.0,0.0,0.0,0.0,0.0,0.0,0.0,0.0,0.0,0.0,0.0,0.0,0.0,0.0,0.0,0.0,0.0,0.0,0.0,0.0,0.0,0.0,0.0,0.0,0.0,0.0,0.0,0.0,0.0,0.0,0.0,0.0,0.0,0.0,0.0,0.0,0.0,0.0,0.0,0.0,0.0,0.0,0.0,0.0,0.0,0.0,0.0,0.0,0.0,0.0,0.0,0.0,0.0,0.0,0.0,0.0,0.0,0.0,0.0,0.0,0.0,0.0,0.0,0.0,0.0,0.0,0.0,0.0,0.0,0.0,0.0,0.0,0.0,0.0,0.0,0.0,0.0,0.0,0.0,0.0,0.0,0.0,0.0,0.0,0.0,0.0,0.0,0.0,0.0,0.0,0.0,0.0,0.0,0.0,0.0,0.0,0.0,0.0,0.0,0.0,0.0,0.0,0.0,0.0,0.0,0.0,0.0,0.0,0.0,0.0,0.0,0.0,0.0,0.0,0.0,0.0,0.0,0.0,0.0,0.0,0.0,0.0,0.0,0.0,0.0,0.0,0.0,0.0,0.0,0.0,0.0,0.0,0.0,0.0,0.0,0.0,0.0,0.0,0.0,0.0,0.0,0.0,0.0,0.0,0.0,0.0,0.0,0.0,0.0,0.0,0.0,0.0,0.0,0.0,0.0,0.0,0.0,0.0,0.0,0.0,0.0,0.0,0.0,0.0,0.0,0.0,0.0,0.0,0.0,0.0,0.0,0.0,0.0,0.0,0.0,0.0,0.0,0.0,0.0,0.0,0.0,0.0,0.0,0.0,0.0,0.0,0.0,0.0,0.0,0.0,0.0,0.0,0.0,0.0,0.0,0.0,0.0,0.0,0.0,0.0,0.0,0.0,0.0,0.0,0.0,0.0,0.0,0.0,0.0,0.0,0.0,0.0,0.0,0.0,0.0,0.0,0.0,0.0,0.0,0.0,0.0,0.0,0.0,0.0,0.0,0.0,0.0,0.0,0.0,0.0,0.0,0.0,0.0,0.0,0.0,0.0,0.0,0.0,0.0,0.0,0.0,0.0,0.0,0.0,0.0,0.0,0.0,0.0,0.0,0.0,0.0,0.0,0.0,0.0,0.0,0.0,0.0,0.0,0.0,0.0,0.0,0.0,0.0,0.0,0.0,0.0,0.0,0.0,0.0,0.0,0.0,0.0,0.0,0.0,0.0,0.0,0.0,0.0,0.0,0.0,0.0,0.0,0.0,0.0,0.0,0.0,0.0,0.0,0.0,0.0,0.0,0.0,0.0,0.0,0.0,0.0,0.0,0.0,0.0,0.0,0.0,0.0,0.0,0.0,0.0,0.0,0.0,0.0,0.0,0.0,0.0,0.0,0.0,0.0,0.0,0.0,0.0,0.0,0.0,0.0,0.0,0.0,0.0,0.0,0.0,0.0,0.0,0.0,0.0,0.0,0.0,0.0,0.0,0.0,0.0,0.0,0.0,0.0,0.0,0.0,0.0,0.0,0.0,0.0,0.0,0.0,0.0,0.0,0.0,0.0,0.0,0.0,0.0,0.0,0.0,0.0,0.0,0.0,0.0,0.0,0.0,0.0,0.0,0.0,0.0,0.0,0.0,0.0,0.0,0.0,0.0,0.0,0.0,0.0,0.0,0.0,0.0,0.0,0.0,0.0,0.0,0.0,0.0,0.0,0.0,0.0,0.0,0.0,0.0,0.0,0.0,0.0,0.0,0.0,0.0,0.0,0.0,0.0,0.0,0.0,0.0,0.0,0.0,0.0,0.0,0.0,0.0,0.0,0.0,0.0,0.0,0.0,0.0,0.0,0.0,0.0,0.0,0.0,0.0,0.0,0.0,0.0,0.0,0.0,0.0,0.0,0.0,0.0,0.0,0.0,0.0,0.0,0.0,0.0,0.0,0.0,0.0,0.0,0.0,0.0,0.0,0.0,0.0,0.0,0.0,0.0,0.0,0.0,0.0,0.0,0.0,0.0,0.0,0.0,0.0,0.0,0.0,0.0,0.0,0.0,0.0,0.0,0.0,-2.47,0.0,0.0,0.0,0.0,0.0,0.0,0.0,0.0,0.0,0.0,0.0,0.0,0.0,0.0,0.0,0.0,0.0,0.0,0.0,0.0,0.0,0.0,0.0,0.0,0.0,0.0,0.0,0.0,0.0,0.0,0.0,0.0,0.0,0.0,0.0,0.0,0.0,0.0,0.0,0.0,0.0,0.0,0.0,0.0,0.0,0.0,0.0,0.0,0.0,0.0,0.0,0.0,0.0,0.0,0.0,0.0,0.0,0.0,0.0,0.0,0.0,0.0,0.0,0.0,0.0,0.0,0.0,0.0,0.0,0.0,0.0,0.0,0.0,0.0,0.0,0.0,0.0,0.0,0.0,0.0,0.0,0.0,0.0,0.0,0.0,0.0,0.0,0.0,0.0,0.0,0.0,0.0,0.0,0.0,0.0,0.0,0.0,0.0,0.0,0.0,0.0,0.0,0.0,0.0,0.0,0.0,0.0,0.0,0.0,0.0,-2.47,-2.47,-2.47,-2.47,-2.47,0.0,0.0,0.0,0.0,0.0,0.0,0.0,0.0,0.0,0.0,0.0,0.0,0.0,0.0,0.0,0.0,0.0,0.0,0.0,0.0,0.0,0.0,0.0,0.0,0.0,0.0,0.0,0.0,0.0,0.0,0.0,0.0,0.0,0.0,0.0,0.0,0.0,0.0,0.0,0.0,0.0,0.0,0.0,0.0,0.0,0.0,0.0,0.0,0.0,0.0,0.0,0.0,0.0,0.0,0.0,0.0,0.0,0.0,0.0,0.0,0.0,0.0,0.0,0.0,0.0,0.0,0.0,0.0,0.0,0.0,0.0,0.0,0.0,0.0,0.0,0.0,0.0,0.0,0.0,0.0,0.0,0.0,0.0,0.0,0.0,0.0,0.0,0.0,0.0,0.0,0.0,0.0,0.0,0.0,0.0,0.0,0.0,0.0,0.0,0.0,0.0,0.0,0.0,0.0,0.0,0.0,0.0,0.0,0.0,0.0,0.0,0.0,-2.47,-2.47,-2.47,0.0,0.0,0.0,0.0,0.0,0.0,0.0,0.0,0.0,0.0,0.0,0.0,0.0,0.0,0.0,0.0,0.0,0.0,0.0,0.0,0.0,0.0,0.0,0.0,0.0,0.0,0.0,0.0,0.0,0.0,0.0,0.0,0.0,0.0,0.0,0.0,0.0,0.0,0.0,0.0,0.0,0.0,0.0,0.0,0.0,0.0,0.0,0.0,0.0,0.0,0.0,0.0,0.0,0.0,0.0,0.0,0.0,0.0,0.0,0.0,0.0,0.0,0.0,0.0,0.0,0.0,0.0,0.0,0.0,0.0,0.0,0.0,0.0,0.0,0.0,0.0,0.0,0.0,0.0,0.0,0.0,0.0,0.0,0.0,0.0,0.0,0.0,0.0,0.0,0.0,0.0,0.0,0.0,0.0,0.0,0.0,0.0,0.0,0.0,0.0,0.0,0.0,0.0,0.0,0.0,0.0,0.0,0.0,0.0,0.0,-2.47,-2.47,-2.47,0.0,-2.47,0.0,0.0,0.0,0.0,0.0,0.0,0.0,0.0,0.0,0.0,0.0,0.0,0.0,0.0,0.0,0.0,0.0,0.0,0.0,0.0,0.0,0.0,0.0,0.0,0.0,0.0,0.0,0.0,0.0,0.0,0.0,0.0,0.0,0.0,0.0,0.0,0.0,0.0,0.0,0.0,0.0,0.0,0.0,0.0,0.0,0.0,0.0,0.0,0.0,0.0,0.0,0.0,0.0,0.0,0.0,0.0,0.0,0.0,0.0,0.0,0.0,0.0,0.0,0.0,0.0,0.0,0.0,0.0,0.0,0.0,0.0,0.0,0.0,0.0,0.0,0.0,0.0,0.0,0.0,0.0,0.0,0.0,0.0,0.0,0.0,0.0,0.0,0.0,0.0,0.0,0.0,0.0,0.0,0.0,0.0,0.0,0.0,0.0,0.0,0.0,0.0,0.0,0.0,0.0,0.0,0.0,0.0,0.0,0.0,0.0,-2.47,-2.47,-2.47,-2.47,0.0,0.0,0.0,0.0,0.0,0.0,0.0,0.0,0.0,0.0,0.0,0.0,0.0,0.0,0.0,0.0,0.0,0.0,0.0,0.0,0.0,0.0,0.0,0.0,0.0,0.0,0.0,0.0,0.0,0.0,0.0,0.0,0.0,0.0,0.0,0.0,0.0,0.0,0.0,0.0,0.0,0.0,0.0,0.0,0.0,0.0,0.0,0.0,0.0,0.0,0.0,0.0,0.0,0.0,0.0,0.0,0.0,0.0,0.0,0.0,0.0,0.0,0.0,0.0,0.0,0.0,0.0,0.0,0.0,0.0,0.0,0.0,0.0,0.0,0.0,0.0,0.0,0.0,0.0,0.0,0.0,0.0,0.0,0.0,0.0,0.0,0.0,0.0,0.0,0.0,0.0,0.0,0.0,0.0,0.0,0.0,0.0,0.0,0.0,0.0,0.0,0.0,0.0,0.0,0.0,0.0,0.0,0.0,0.0,0.0,-2.47,-2.47,-2.47,-2.47,-2.47,-2.47,0.0,0.0,0.0,0.0,0.0,0.0,0.0,0.0,0.0,0.0,0.0,0.0,0.0,0.0,0.0,0.0,0.0,0.0,0.0,0.0,0.0,0.0,0.0,0.0,0.0,0.0,0.0,0.0,0.0,0.0,0.0,0.0,0.0,0.0,0.0,0.0,0.0,0.0,0.0,0.0,0.0,0.0,0.0,0.0,0.0,0.0,0.0,0.0,0.0,0.0,0.0,0.0,0.0,0.0,0.0,0.0,0.0,0.0,0.0,0.0,0.0,0.0,0.0,0.0,0.0,0.0,0.0,0.0,0.0,0.0,0.0,0.0,0.0,0.0,0.0,0.0,0.0,0.0,0.0,0.0,0.0,0.0,0.0,0.0,0.0,0.0,0.0,0.0,0.0,0.0,0.0,0.0,0.0,0.0,0.0,0.0,0.0,0.0,0.0,0.0,0.0,0.0,0.0,0.0,0.0,0.0,0.0,0.0,0.0,-2.47,-2.47,-2.47,-2.47,-2.47,0.0,0.0,0.0,0.0,0.0,0.0,0.0,0.0,0.0,0.0,0.0,0.0,0.0,0.0,0.0,0.0,0.0,0.0,0.0,0.0,0.0,0.0,0.0,0.0,0.0,0.0,0.0,0.0,0.0,0.0,0.0,0.0,0.0,0.0,0.0,0.0,0.0,0.0,0.0,0.0,0.0,0.0,0.0,0.0,0.0,0.0,0.0,0.0,0.0,0.0,0.0,0.0,0.0,0.0,0.0,0.0,0.0,0.0,0.0,0.0,0.0,0.0,0.0,0.0,0.0,0.0,0.0,0.0,0.0,0.0,0.0,0.0,0.0,0.0,0.0,0.0,0.0,0.0,0.0,0.0,0.0,0.0,0.0,0.0,0.0,0.0,0.0,0.0,0.0,0.0,0.0,0.0,0.0,0.0,0.0,0.0,0.0,0.0,0.0,0.0,0.0,0.0,0.0,0.0,0.0,0.0,0.0,0.0,0.0,-2.4706,-2.5161,-2.5406,-2.5406,-2.5431,-2.5223,0.0,0.0,0.0,0.0,0.0,0.0,0.0,0.0,0.0,0.0,0.0,0.0,0.0,0.0,0.0,0.0,0.0,0.0,0.0,0.0,0.0,0.0,0.0,0.0,0.0,0.0,0.0,0.0,0.0,0.0,0.0,0.0,0.0,0.0,0.0,0.0,0.0,0.0,0.0,0.0,0.0,0.0,0.0,0.0,0.0,0.0,0.0,0.0,0.0,0.0,0.0,0.0,0.0,0.0,0.0,0.0,0.0,0.0,0.0,0.0,0.0,0.0,0.0,0.0,0.0,0.0,0.0,0.0,0.0,0.0,0.0,0.0,0.0,0.0,0.0,0.0,0.0,0.0,0.0,0.0,0.0,0.0,0.0,0.0,0.0,0.0,0.0,0.0,0.0,0.0,0.0,0.0,0.0,0.0,0.0,0.0,0.0,0.0,0.0,0.0,0.0,0.0,0.0,0.0,0.0,0.0,0.0,0.0,0.0,-2.5444,0.0,-2.6186,-2.6178,-2.625,-2.5893,0.0,0.0,0.0,0.0,0.0,0.0,0.0,0.0,0.0,0.0,0.0,0.0,0.0,0.0,0.0,0.0,0.0,0.0,0.0,0.0,0.0,0.0,0.0,0.0,0.0,0.0,0.0,0.0,0.0,0.0,0.0,0.0,0.0,0.0,0.0,0.0,0.0,0.0,0.0,0.0,0.0,0.0,0.0,0.0,0.0,0.0,0.0,0.0,0.0,0.0,0.0,0.0,0.0,0.0,0.0,0.0,0.0,0.0,0.0,0.0,0.0,0.0,0.0,0.0,0.0,0.0,0.0,0.0,0.0,0.0,0.0,0.0,0.0,0.0,0.0,0.0,0.0,0.0,0.0,0.0,0.0,0.0,0.0,0.0,0.0,0.0,0.0,0.0,0.0,0.0,0.0,0.0,0.0,0.0,0.0,0.0,0.0,0.0,0.0,0.0,0.0,0.0,0.0,0.0,0.0,0.0,0.0,0.0,-2.6371,-2.6999,-2.7102,-2.7158,-2.7065,-2.7102,-2.6718,0.0,0.0,0.0,0.0,0.0,0.0,0.0,0.0,0.0,0.0,0.0,0.0,0.0,0.0,0.0,0.0,0.0,0.0,0.0,0.0,0.0,0.0,0.0,0.0,0.0,0.0,0.0,0.0,0.0,0.0,0.0,0.0,0.0,0.0,0.0,0.0,0.0,0.0,0.0,0.0,0.0,0.0,0.0,0.0,0.0,0.0,0.0,0.0,0.0,0.0,0.0,0.0,0.0,0.0,0.0,0.0,0.0,0.0,0.0,0.0,0.0,0.0,0.0,0.0,0.0,0.0,0.0,0.0,0.0,0.0,0.0,0.0,0.0,0.0,0.0,0.0,0.0,0.0,0.0,0.0,0.0,0.0,0.0,0.0,0.0,0.0,0.0,0.0,0.0,0.0,0.0,0.0,0.0,0.0,0.0,0.0,0.0,0.0,0.0,0.0,0.0,0.0,0.0,0.0,0.0,0.0,0.0,0.0,0.0,-2.9423,-2.9905,-3.0169,-3.0169,-2.9689,-2.8822,0.0,0.0,0.0,0.0,0.0,0.0,0.0,0.0,0.0,0.0,0.0,0.0,0.0,0.0,0.0,0.0,0.0,0.0,0.0,0.0,0.0,0.0,0.0,0.0,0.0,0.0,0.0,0.0,0.0,0.0,0.0,0.0,0.0,0.0,0.0,0.0,0.0,0.0,0.0,0.0,0.0,0.0,0.0,0.0,0.0,0.0,0.0,0.0,0.0,0.0,0.0,0.0,0.0,0.0,0.0,0.0,0.0,0.0,0.0,0.0,0.0,0.0,0.0,0.0,0.0,0.0,0.0,0.0,0.0,0.0,0.0,0.0,0.0,0.0,0.0,0.0,0.0,0.0,0.0,0.0,0.0,0.0,0.0,0.0,0.0,0.0,0.0,0.0,0.0,0.0,0.0,0.0,0.0,0.0,0.0,0.0,0.0,0.0,0.0,0.0,0.0,0.0,0.0,0.0,0.0,0.0,0.0,0.0,0.0,-3.4005,-3.3622,-3.3388,-3.3388,-3.2662,-3.1422,-2.9613,0.0,0.0,0.0,0.0,0.0,0.0,0.0,0.0,0.0,0.0,0.0,0.0,0.0,0.0,0.0,0.0,0.0,0.0,0.0,0.0,0.0,0.0,0.0,0.0,0.0,0.0,0.0,0.0,0.0,0.0,0.0,0.0,0.0,0.0,0.0,0.0,0.0,0.0,0.0,0.0,0.0,0.0,0.0,0.0,0.0,0.0,0.0,0.0,0.0,0.0,0.0,0.0,0.0,0.0,0.0,0.0,0.0,0.0,0.0,0.0,0.0,0.0,0.0,0.0,0.0,0.0,0.0,0.0,0.0,0.0,0.0,0.0,0.0,0.0,0.0,0.0,0.0,0.0,0.0,0.0,0.0,0.0,0.0,0.0,0.0,0.0,0.0,0.0,0.0,0.0,0.0,0.0,0.0,0.0,0.0,0.0,0.0,0.0,0.0,0.0,0.0,0.0,0.0,0.0,0.0,0.0,0.0,0.0,-4.011,-3.8037,-3.6864,-3.6643,-3.595,-3.4463,0.0,0.0,0.0,0.0,0.0,0.0,0.0,0.0,0.0,0.0,0.0,0.0,0.0,0.0,0.0,0.0,0.0,0.0,0.0,0.0,0.0,0.0,0.0,0.0,0.0,0.0,0.0,0.0,0.0,0.0,0.0,0.0,0.0,0.0,0.0,0.0,0.0,0.0,0.0,0.0,0.0,0.0,0.0,0.0,0.0,0.0,0.0,0.0,0.0,0.0,0.0,0.0,0.0,0.0,0.0,0.0,0.0,0.0,0.0,0.0,0.0,0.0,0.0,0.0,0.0,0.0,0.0,0.0,0.0,0.0,0.0,0.0,0.0,0.0,0.0,0.0,0.0,0.0,0.0,0.0,0.0,0.0,0.0,0.0,0.0,0.0,0.0,0.0,0.0,0.0,0.0,0.0,0.0,0.0,0.0,0.0,0.0,0.0,0.0,0.0,0.0,0.0,0.0,0.0,0.0,0.0,0.0,0.0,0.0,-4.2348,-4.3025,-4.2233,-3.9968,-3.9148,-3.7386,0.0,0.0,0.0,0.0,0.0,0.0,0.0,0.0,0.0,0.0,0.0,0.0,0.0,0.0,0.0,0.0,0.0,0.0,0.0,0.0,0.0,0.0,0.0,0.0,0.0,0.0,0.0,0.0,0.0,0.0,0.0,0.0,0.0,0.0,0.0,0.0,0.0,0.0,0.0,0.0,0.0,0.0,0.0,0.0,0.0,0.0,0.0,0.0,0.0,0.0,0.0,0.0,0.0,0.0,0.0,0.0,0.0,0.0,0.0,0.0,0.0,0.0,0.0,0.0,0.0,0.0,0.0,0.0,0.0,0.0,0.0,0.0,0.0,0.0,0.0,0.0,0.0,0.0,0.0,0.0,0.0,0.0,0.0,0.0,0.0,0.0,0.0,0.0,0.0,0.0,0.0,0.0,0.0,0.0,0.0,0.0,0.0,0.0,0.0,0.0,0.0,0.0,0.0,0.0,0.0,0.0,0.0,0.0,-4.2413,-4.5296,-4.6593,-4.621,-4.4143,-4.2396,-4.0025,0.0,0.0,0.0,0.0,0.0,0.0,0.0,0.0,0.0,0.0,0.0,0.0,0.0,0.0,0.0,0.0,0.0,0.0,0.0,0.0,0.0,0.0,0.0,0.0,0.0,0.0,0.0,0.0,0.0,0.0,0.0,0.0,0.0,0.0,0.0,0.0,0.0,0.0,0.0,0.0,0.0,0.0,0.0,0.0,0.0,0.0,0.0,0.0,0.0,0.0,0.0,0.0,0.0,0.0,0.0,0.0,0.0,0.0,0.0,0.0,0.0,0.0,0.0,0.0,0.0,0.0,0.0,0.0,0.0,0.0,0.0,0.0,0.0,0.0,0.0,0.0,0.0,0.0,0.0,0.0,0.0,0.0,0.0,0.0,0.0,0.0,0.0,0.0,0.0,0.0,0.0,0.0,0.0,0.0,0.0,0.0,0.0,0.0,0.0,0.0,0.0,0.0,0.0,0.0,0.0,0.0,0.0,0.0,-4.4418,-4.8111,-4.8903,-4.9013,-4.8404,-4.5572,-4.2463,0.0,0.0,0.0,0.0,0.0,0.0,0.0,0.0,0.0,0.0,0.0,0.0,0.0,0.0,0.0,0.0,0.0,0.0,0.0,0.0,0.0,0.0,0.0,0.0,0.0,0.0,0.0,0.0,0.0,0.0,0.0,0.0,0.0,0.0,0.0,0.0,0.0,0.0,0.0,0.0,0.0,0.0,0.0,0.0,0.0,0.0,0.0,0.0,0.0,0.0,0.0,0.0,0.0,0.0,0.0,0.0,0.0,0.0,0.0,0.0,0.0,0.0,0.0,0.0,0.0,0.0,0.0,0.0,0.0,0.0,0.0,0.0,0.0,0.0,0.0,0.0,0.0,0.0,0.0,0.0,0.0,0.0,0.0,0.0,0.0,0.0,0.0,0.0,0.0,0.0,0.0,0.0,0.0,0.0,0.0,0.0,0.0,0.0,0.0,0.0,0.0,0.0,0.0,0.0,0.0,0.0,0.0,0.0,-4.6047,-4.8012,-4.931,-4.9965,-4.9925,-4.8148,-4.5168,0.0,0.0,0.0,0.0,0.0,0.0,0.0,0.0,0.0,0.0,0.0,0.0,0.0,0.0,0.0,0.0,0.0,0.0,0.0,0.0,0.0,0.0,0.0,0.0,0.0,0.0,0.0,0.0,0.0,0.0,0.0,0.0,0.0,0.0,0.0,0.0,0.0,0.0,0.0,0.0,0.0,0.0,0.0,0.0,0.0,0.0,0.0,0.0,-3.2602,0.0,0.0,0.0,0.0,0.0,0.0,0.0,0.0,0.0,0.0,0.0,0.0,0.0,0.0,0.0,0.0,0.0,0.0,0.0,0.0,0.0,0.0,0.0,0.0,0.0,0.0,0.0,0.0,0.0,0.0,0.0,0.0,0.0,0.0,0.0,0.0,0.0,0.0,0.0,0.0,0.0,0.0,0.0,0.0,0.0,0.0,0.0,0.0,0.0,0.0,0.0,0.0,0.0,0.0,0.0,0.0,0.0,0.0,0.0,-4.8058,-5.0195,-5.1326,-5.1762,-5.1508,-5.0404,-4.7641,0.0,0.0,0.0,0.0,0.0,0.0,0.0,0.0,0.0,0.0,0.0,0.0,0.0,0.0,0.0,0.0,0.0,0.0,0.0,0.0,0.0,0.0,0.0,0.0,0.0,0.0,0.0,0.0,0.0,0.0,0.0,0.0,0.0,0.0,0.0,0.0,0.0,0.0,0.0,0.0,0.0,0.0,0.0,0.0,0.0,0.0,0.0,0.0,0.0,0.0,0.0,0.0,0.0,0.0,0.0,0.0,0.0,0.0,0.0,0.0,0.0,0.0,0.0,0.0,0.0,0.0,0.0,0.0,0.0,0.0,0.0,0.0,0.0,0.0,0.0,0.0,0.0,0.0,0.0,0.0,0.0,0.0,0.0,0.0,0.0,0.0,0.0,0.0,0.0,0.0,0.0,0.0,0.0,0.0,0.0,0.0,0.0,0.0,0.0,0.0,0.0,0.0,0.0,0.0,0.0,0.0,0.0,-4.7113,-5.0065,-5.2718,-5.359,-5.37,-5.3046,-5.2222,-4.9834,-4.5599,0.0,0.0,0.0,0.0,0.0,0.0,0.0,0.0,0.0,0.0,0.0,0.0,0.0,0.0,0.0,0.0,0.0,0.0,0.0,0.0,0.0,0.0,0.0,0.0,0.0,0.0,0.0,0.0,0.0,0.0,0.0,0.0,0.0,0.0,0.0,0.0,0.0,0.0,-3.06,-3.4445,0.0,0.0,0.0,0.0,0.0,0.0,0.0,0.0,-4.0852,0.0,0.0,0.0,0.0,0.0,0.0,0.0,0.0,0.0,0.0,0.0,0.0,0.0,0.0,0.0,0.0,0.0,0.0,0.0,0.0,0.0,0.0,0.0,0.0,0.0,0.0,0.0,0.0,0.0,0.0,0.0,0.0,0.0,0.0,0.0,0.0,0.0,0.0,0.0,0.0,0.0,0.0,0.0,0.0,0.0,0.0,0.0,0.0,0.0,0.0,0.0,0.0,0.0,0.0,0.0,0.0,-4.4694,-4.9021,-5.1788,-5.2959,-5.425,-5.4652,-5.3997,-5.3215,-5.1275,-4.8052,0.0,0.0,0.0,0.0,0.0,0.0,0.0,0.0,0.0,0.0,0.0,0.0,0.0,0.0,0.0,0.0,0.0,0.0,0.0,0.0,0.0,0.0,0.0,0.0,0.0,0.0,0.0,0.0,0.0,0.0,0.0,0.0,0.0,0.0,0.0,0.0,0.0,0.0,0.0,-3.7728,-3.9451,0.0,0.0,0.0,0.0,0.0,0.0,0.0,0.0,-4.2764,0.0,0.0,0.0,0.0,0.0,0.0,0.0,0.0,0.0,0.0,0.0,0.0,0.0,0.0,0.0,0.0,0.0,0.0,0.0,0.0,0.0,0.0,0.0,0.0,0.0,0.0,0.0,0.0,0.0,0.0,0.0,0.0,0.0,0.0,0.0,0.0,0.0,0.0,0.0,0.0,0.0,0.0,0.0,0.0,0.0,0.0,0.0,0.0,0.0,0.0,0.0,0.0,0.0,0.0,0.0,-4.6816,-5.0602,-5.3301,-5.481,-5.5546,-5.5766,-5.5409,-5.4327,-5.2332,0.0,0.0,0.0,0.0,0.0,0.0,0.0,0.0,0.0,0.0,0.0,0.0,0.0,0.0,0.0,0.0,0.0,0.0,0.0,0.0,0.0,0.0,0.0,0.0,0.0,0.0,0.0,0.0,0.0,0.0,0.0,0.0,0.0,0.0,0.0,0.0,0.0,0.0,0.0,0.0,-4.0272,-4.2304,-4.2723,0.0,0.0,0.0,0.0,0.0,0.0,-4.7264,-4.6385,0.0,0.0,0.0,0.0,0.0,0.0,0.0,0.0,0.0,0.0,0.0,0.0,0.0,0.0,0.0,0.0,0.0,0.0,0.0,0.0,0.0,0.0,0.0,0.0,0.0,0.0,0.0,0.0,0.0,0.0,0.0,0.0,0.0,0.0,0.0,0.0,0.0,0.0,0.0,0.0,0.0,0.0,0.0,0.0,0.0,0.0,0.0,0.0,0.0,0.0,0.0,0.0,0.0,0.0,0.0,-4.903,-5.2279,-5.4906,-5.6772,-5.7028,-5.7065,-5.6845,-5.542,-5.3187,0.0,0.0,0.0,0.0,0.0,0.0,0.0,0.0,0.0,0.0,0.0,0.0,0.0,0.0,0.0,0.0,0.0,0.0,0.0,0.0,0.0,0.0,0.0,0.0,0.0,0.0,0.0,0.0,0.0,0.0,0.0,0.0,0.0,0.0,0.0,0.0,0.0,0.0,0.0,0.0,0.0,-4.5076,-4.5965,-4.7646,0.0,0.0,0.0,0.0,-5.1085,-5.0932,0.0,0.0,0.0,0.0,0.0,0.0,0.0,0.0,0.0,0.0,0.0,0.0,0.0,0.0,0.0,0.0,0.0,0.0,0.0,0.0,0.0,0.0,0.0,0.0,0.0,0.0,0.0,0.0,0.0,0.0,0.0,0.0,0.0,0.0,0.0,0.0,0.0,0.0,0.0,0.0,0.0,0.0,0.0,0.0,0.0,0.0,0.0,0.0,0.0,0.0,0.0,0.0,0.0,0.0,0.0,0.0,-5.0709,-5.4448,-5.6859,-5.779,-5.8524,-5.8561,-5.7827,-5.6434,-5.3859,0.0,0.0,0.0,0.0,0.0,0.0,0.0,0.0,0.0,0.0,0.0,0.0,0.0,0.0,0.0,0.0,0.0,0.0,0.0,0.0,0.0,0.0,0.0,0.0,0.0,0.0,0.0,0.0,0.0,0.0,0.0,0.0,0.0,0.0,0.0,0.0,0.0,0.0,0.0,0.0,0.0,-4.7685,-4.8575,-5.0715,-5.2231,0.0,0.0,-5.3645,-5.3645,-5.2996,0.0,0.0,0.0,0.0,0.0,0.0,0.0,0.0,0.0,0.0,0.0,0.0,0.0,0.0,0.0,0.0,0.0,0.0,0.0,0.0,0.0,0.0,0.0,0.0,0.0,0.0,0.0,0.0,0.0,0.0,0.0,0.0,0.0,0.0,0.0,0.0,0.0,0.0,0.0,0.0,0.0,0.0,0.0,0.0,0.0,0.0,0.0,0.0,0.0,0.0,0.0,0.0,0.0,0.0,0.0,-4.7253,-5.1632,-5.5073,-5.7409,-5.8657,-5.9465,-5.9501,-5.8694,-5.7737,-5.5401,0.0,0.0,0.0,0.0,0.0,0.0,0.0,0.0,0.0,0.0,0.0,0.0,0.0,0.0,0.0,0.0,0.0,0.0,0.0,0.0,0.0,0.0,0.0,0.0,0.0,0.0,0.0,0.0,0.0,0.0,0.0,0.0,0.0,0.0,0.0,0.0,0.0,0.0,0.0,0.0,0.0,0.0,-5.1544,-5.3683,0.0,0.0,0.0,-5.6931,-5.6931,0.0,0.0,0.0,0.0,0.0,0.0,0.0,0.0,0.0,0.0,0.0,0.0,0.0,0.0,0.0,0.0,0.0,0.0,0.0,0.0,0.0,0.0,0.0,0.0,0.0,0.0,0.0,0.0,0.0,0.0,0.0,0.0,0.0,0.0,0.0,0.0,0.0,0.0,0.0,0.0,0.0,0.0,0.0,0.0,0.0,0.0,0.0,0.0,0.0,0.0,0.0,0.0,0.0,0.0,0.0,0.0,0.0,-5.3034,-5.5956,-5.818,-5.9758,-6.0382,-6.0419,-5.9832,-5.8813,0.0,0.0,0.0,0.0,0.0,0.0,0.0,0.0,0.0,0.0,0.0,0.0,0.0,0.0,0.0,0.0,0.0,0.0,0.0,0.0,0.0,0.0,0.0,0.0,0.0,0.0,0.0,-2.9987,0.0,0.0,0.0,0.0,0.0,0.0,0.0,0.0,0.0,0.0,0.0,0.0,0.0,0.0,-5.0512,-5.4486,-5.6473,-5.7848,0.0,0.0,-5.9911,-5.9491,-5.7886,-5.5938,0.0,0.0,0.0,0.0,0.0,0.0,0.0,0.0,0.0,0.0,0.0,0.0,0.0,0.0,0.0,0.0,0.0,0.0,0.0,0.0,0.0,0.0,0.0,0.0,0.0,0.0,0.0,0.0,0.0,0.0,0.0,0.0,0.0,0.0,0.0,0.0,0.0,0.0,0.0,0.0,0.0,0.0,0.0,0.0,0.0,0.0,0.0,0.0,0.0,0.0,0.0,0.0,0.0,0.0,0.0,-5.5528,-5.7867,-5.9795,-6.1374,-6.1484,-6.1484,-6.1374,-5.9403,-5.7159,0.0,0.0,0.0,0.0,0.0,0.0,0.0,0.0,0.0,0.0,0.0,0.0,0.0,0.0,0.0,0.0,0.0,0.0,0.0,0.0,0.0,0.0,0.0,0.0,0.0,0.0,0.0,0.0,0.0,0.0,0.0,0.0,0.0,0.0,0.0,0.0,0.0,0.0,0.0,0.0,0.0,-5.3722,-5.716,-5.9071,-6.0446,0.0,0.0,-6.2128,-6.0561,-6.0193,-5.8956,-5.5747,0.0,0.0,0.0,0.0,0.0,0.0,0.0,0.0,0.0,0.0,0.0,0.0,0.0,0.0,0.0,0.0,0.0,0.0,0.0,0.0,0.0,0.0,0.0,0.0,0.0,0.0,0.0,0.0,0.0,0.0,0.0,0.0,0.0,0.0,0.0,0.0,0.0,0.0,0.0,0.0,0.0,0.0,0.0,0.0,0.0,0.0,0.0,0.0,0.0,0.0,0.0,0.0,0.0,-5.1139,-5.5824,-5.8051,-6.0212,-6.2218,-6.2328,-6.2365,-6.2365,-6.1101,-5.9161,0.0,0.0,0.0,0.0,0.0,0.0,0.0,0.0,0.0,0.0,0.0,0.0,0.0,0.0,0.0,0.0,0.0,0.0,0.0,0.0,0.0,0.0,0.0,0.0,0.0,0.0,0.0,0.0,-4.0005,-4.1266,-4.1036,0.0,0.0,0.0,0.0,0.0,0.0,0.0,0.0,0.0,0.0,-5.5732,-5.9102,-6.0979,0.0,0.0,-6.3537,-6.3523,-6.2868,-6.1402,-5.9759,-5.7963,-5.5174,0.0,0.0,0.0,0.0,0.0,0.0,0.0,0.0,0.0,0.0,0.0,0.0,0.0,0.0,0.0,0.0,0.0,0.0,0.0,0.0,0.0,0.0,0.0,0.0,0.0,0.0,0.0,0.0,0.0,0.0,0.0,0.0,0.0,0.0,0.0,0.0,0.0,0.0,0.0,0.0,0.0,0.0,0.0,0.0,0.0,0.0,0.0,0.0,0.0,0.0,0.0,0.0,-5.249,-5.6968,-5.9154,-6.1202,-6.3172,-6.3429,-6.3576,-6.3514,-6.2671,-6.1047,0.0,0.0,0.0,0.0,0.0,0.0,0.0,0.0,0.0,0.0,0.0,0.0,0.0,0.0,0.0,0.0,0.0,0.0,0.0,0.0,0.0,0.0,0.0,0.0,0.0,0.0,0.0,0.0,-4.2832,-4.3367,-4.203,0.0,0.0,0.0,0.0,0.0,0.0,0.0,0.0,0.0,0.0,-5.7951,-6.1249,-6.2745,-6.3792,-6.458,-6.468,-6.4575,-6.4288,-6.272,-6.1242,-6.0067,0.0,0.0,0.0,0.0,0.0,0.0,0.0,0.0,0.0,0.0,0.0,0.0,0.0,0.0,0.0,0.0,0.0,0.0,0.0,0.0,0.0,0.0,0.0,0.0,0.0,0.0,0.0,0.0,0.0,0.0,-3.5957,0.0,0.0,0.0,0.0,0.0,0.0,0.0,0.0,0.0,0.0,0.0,0.0,0.0,0.0,0.0,0.0,0.0,0.0,0.0,0.0,0.0,0.0,0.0,-5.9442,-6.1568,-6.3135,-6.409,-6.4824,-6.5228,-6.5191,-6.375,-6.2621,-6.1865,0.0,0.0,0.0,0.0,0.0,0.0,0.0,0.0,0.0,0.0,0.0,0.0,0.0,0.0,0.0,0.0,0.0,0.0,0.0,0.0,0.0,0.0,0.0,0.0,0.0,0.0,-4.5927,-4.6375,-4.543,0.0,0.0,0.0,0.0,0.0,0.0,0.0,0.0,0.0,0.0,-5.8718,-6.0482,-6.3781,-6.4342,-6.4649,-6.5441,-6.5556,-6.5259,-6.4461,-6.4287,-6.374,0.0,0.0,0.0,0.0,0.0,0.0,0.0,0.0,0.0,0.0,0.0,0.0,0.0,0.0,0.0,0.0,0.0,0.0,0.0,0.0,0.0,0.0,0.0,0.0,0.0,0.0,0.0,-4.1773,-4.1822,0.0,0.0,0.0,0.0,0.0,0.0,0.0,0.0,0.0,0.0,0.0,-5.1211,-5.0949,0.0,0.0,0.0,0.0,0.0,0.0,0.0,0.0,0.0,0.0,0.0,0.0,-5.6367,-6.0254,-6.1973,-6.3759,-6.5595,-6.5448,-6.5558,-6.6072,-6.507,-6.3726,-6.2026,0.0,0.0,0.0,0.0,0.0,0.0,0.0,0.0,0.0,0.0,0.0,0.0,0.0,0.0,0.0,0.0,0.0,0.0,0.0,0.0,0.0,0.0,0.0,0.0,0.0,-4.5736,0.0,0.0,0.0,0.0,0.0,0.0,0.0,0.0,0.0,0.0,0.0,-5.5159,-5.8522,-6.0697,-6.2605,-6.4296,-6.5026,-6.5474,0.0,0.0,0.0,0.0,0.0,0.0,0.0,0.0,0.0,0.0,0.0,0.0,0.0,0.0,-5.2269,-4.9667,-4.9667,-5.0138,-5.0445,0.0,0.0,0.0,0.0,0.0,0.0,0.0,0.0,0.0,0.0,0.0,0.0,0.0,0.0,0.0,0.0,-4.5892,0.0,0.0,0.0,0.0,0.0,0.0,0.0,0.0,-5.374,-5.4724,-5.5524,-5.4984,-5.4724,0.0,-5.4167,-5.2307,0.0,0.0,0.0,0.0,0.0,0.0,0.0,0.0,-5.8134,-6.1476,-6.3235,-6.4861,-6.6402,-6.6256,-6.6366,-6.688,-6.6198,-6.483,-6.2804,-6.0374,-5.7749,0.0,0.0,0.0,0.0,0.0,0.0,0.0,0.0,0.0,0.0,0.0,0.0,0.0,0.0,0.0,0.0,0.0,0.0,0.0,0.0,0.0,0.0,0.0,-4.9366,0.0,0.0,0.0,0.0,0.0,0.0,0.0,0.0,0.0,-5.2636,-5.517,-5.802,-6.0849,-6.2949,-6.4512,-6.5359,0.0,0.0,0.0,0.0,0.0,0.0,0.0,-6.5983,-6.6469,-6.5408,-6.4244,-6.3438,-6.1902,-6.0826,-6.0826,0.0,0.0,-5.5247,-5.4902,-5.5335,-5.5642,-5.5708,-5.5673,-5.5638,-5.5603,-5.5873,0.0,0.0,0.0,0.0,0.0,0.0,0.0,0.0,-5.0894,-5.1265,0.0,-5.0602,0.0,0.0,0.0,0.0,0.0,-5.3256,0.0,0.0,-5.7016,-5.7685,-5.8445,-5.8445,-5.8423,-5.846,-5.8445,-5.8371,-5.8098,-5.4055,0.0,0.0,0.0,0.0,0.0,0.0,-6.0776,-6.3088,-6.5353,-6.6549,-6.6696,-6.7393,-6.776,-6.7787,-6.7085,-6.5985,-6.4401,-6.296,-6.1145,-5.8768,-5.5769,0.0,0.0,0.0,0.0,0.0,0.0,0.0,0.0,0.0,0.0,0.0,0.0,0.0,0.0,0.0,0.0,0.0,0.0,0.0,0.0,-5.2766,0.0,0.0,0.0,0.0,0.0,0.0,0.0,0.0,0.0,0.0,-5.7059,-5.8558,-6.0798,-6.4192,0.0,0.0,0.0,0.0,-6.8398,-6.8346,-6.8385,-6.841,-6.8317,-6.8396,-6.8448,-6.8433,0.0,0.0,-6.6244,-6.6051,-6.5936,-6.5974,-6.582,-6.4654,-6.0453,-5.9708,-5.9935,-6.0704,-6.0772,-6.0813,-6.0839,-6.0635,-6.0661,-5.7602,0.0,0.0,0.0,0.0,-5.4464,-5.4859,-5.4996,-5.577,-5.6166,-5.6177,-5.5422,0.0,0.0,0.0,0.0,0.0,0.0,-5.8502,-5.9531,-6.0868,-6.156,-6.1781,-6.1781,-6.1781,-6.1781,-6.1781,-6.1781,-6.1768,-6.0492,-5.8968,-5.7302,0.0,0.0,0.0,0.0,-6.3186,-6.5455,-6.6749,-6.7907,-6.9045,-6.9302,-6.9412,-6.9412,-6.8108,-6.7242,-6.6843,-6.4881,-6.2993,-6.1256,-5.8859,0.0,0.0,0.0,0.0,0.0,0.0,0.0,0.0,0.0,0.0,0.0,0.0,0.0,0.0,0.0,0.0,0.0,0.0,0.0,-5.5415,-5.6473,-5.6499,0.0,0.0,0.0,0.0,0.0,0.0,0.0,0.0,0.0,-6.218,-6.2796,-6.3923,0.0,0.0,-6.7782,-6.8013,-6.8244,-6.8398,-6.8398,0.0,0.0,0.0,-6.9808,-7.0385,-7.0948,-7.0885,-7.0629,-7.0437,-6.9436,-6.8629,-6.859,-6.809,-6.7231,-6.6141,-6.4846,-6.4205,-6.4397,-6.4423,-6.4398,-6.436,-6.4334,-6.4448,-6.234,-6.0089,-5.8914,-5.8253,-5.807,-5.8841,-5.9231,-5.9338,-5.9816,-6.0047,-6.0056,-5.9624,-5.9448,-5.9479,-5.9131,0.0,0.0,0.0,-6.1708,-6.2214,-6.3763,-6.4512,-6.4512,-6.4843,-6.4991,-6.4991,-6.4979,-6.4979,-6.4991,-6.5285,-6.4696,-6.3223,0.0,0.0,-6.3333,-6.407,-6.5455,-6.7426,-6.8292,-6.9119,-7.0073,-7.011,-7.011,-7.0073,-6.9155,-6.8549,-6.8272,-6.6673,-6.5091,-6.3622,-6.1759,-5.9106,0.0,0.0,0.0,0.0,0.0,0.0,0.0,0.0,0.0,0.0,0.0,-4.1991,0.0,0.0,0.0,0.0,-5.4293,-5.6728,-5.9268,-5.9511,0.0,0.0,0.0,0.0,0.0,0.0,0.0,-5.9276,-6.2105,-6.4667,-6.6397,-6.7205,-6.7744,-6.809,-6.8859,-6.9513,-6.986,0.0,-7.0437,-7.0437,-7.086,-7.1206,-7.1206,-7.1629,-7.2129,-7.2629,-7.2706,-7.2706,-7.2668,-7.186,-7.1245,-7.1129,-7.0783,-7.0437,-7.0423,-6.959,-6.8552,-6.7628,-6.7667,-6.7846,-6.7806,-6.7845,-6.7985,-6.5485,-6.5375,-6.3906,-6.2768,-6.1961,-6.2695,-6.2964,-6.3025,-6.3,-6.3,-6.3025,-6.3125,-6.3174,-6.3199,-6.337,0.0,-6.3492,-6.4242,-6.4597,-6.4609,-6.6088,-6.6806,-6.6806,-6.7504,-6.7871,-6.7871,-6.7898,-6.7871,-6.7934,-6.8605,-6.9009,-6.8898,-6.5469,-6.4439,-6.5738,-6.6486,-6.761,-6.9082,-6.9889,-7.0367,-7.0477,-7.0403,-7.0367,-7.0403,-7.0257,-6.9853,-6.9119,-6.8409,-6.7325,-6.5854,-6.4348,-6.2242,-5.9393,0.0,0.0,0.0,0.0,0.0,0.0,0.0,0.0,0.0,0.0,0.0,0.0,0.0,0.0,0.0,-6.0137,0.0,-6.2205,-6.2207,0.0,0.0,0.0,-5.9817,-5.9894,-6.075,-6.1888,-6.3425,0.0,0.0,-6.9706,0.0,-7.186,-7.0398,-7.0744,-7.1398,-7.2206,-7.2976,-7.3591,-7.3423,-7.3707,-7.3783,-7.3822,-7.3937,-7.4091,-7.413,-7.386,-7.3899,-7.386,-7.3591,-7.3615,-7.3476,-7.3553,-7.3385,-7.3462,-7.3231,-7.2899,-7.0667,-7.0667,-7.1052,-7.0975,-7.0975,-7.0948,-6.7136,-6.7136,-6.7357,-6.6292,-6.4457,-6.464,-6.4714,-6.4714,-6.4688,-6.4714,-6.4714,-6.4739,-6.4816,-6.4929,-6.5503,-6.5786,-6.5937,-6.7206,-6.7787,-6.7824,-6.8788,-6.9229,-6.9229,-6.9449,-6.9522,-6.9522,-6.9522,-6.9522,-6.9522,-6.9706,-6.9816,-6.9743,-6.8916,-6.8649,-6.899,-6.9173,-6.9734,-7.0734,-7.1541,-7.2532,-7.3707,-7.3156,-7.2826,-7.2826,-7.1651,-7.0954,-7.0734,-6.962,-6.8498,-6.7516,-6.5663,-6.3758,-6.1915,-5.8915,0.0,0.0,0.0,0.0,0.0,0.0,0.0,0.0,0.0,-5.0325,-5.3692,0.0,-5.7927,0.0,-6.2579,-6.4331,-6.5638,-6.5229,0.0,0.0,-6.4821,-6.4321,-6.436,-6.568,-6.6718,-6.7102,-6.9423,-7.1129,-7.1552,-7.3053,-7.4207,-7.4437,-7.3553,-7.2976,-7.3206,-7.3899,-7.4437,-7.4553,-7.5553,-7.6399,-7.6361,-7.6899,-7.7207,-7.7284,-7.6784,-7.6399,-7.6399,-7.5245,-7.4437,-7.4399,-7.3899,-7.3553,-7.3591,-7.3976,-7.4514,-7.4399,-7.3668,-7.2899,-7.2899,-7.2899,-7.2885,-6.8752,-6.8788,-6.9265,-6.8678,-6.743,-6.743,-6.743,-6.743,-6.743,-6.743,-6.743,-6.743,-6.7484,-6.7573,-6.7934,-6.8145,-6.8272,-6.9036,-6.9449,-6.9486,-7.0257,-7.0844,-7.1174,-7.1541,-7.1872,-7.2239,-7.2239,-7.2239,-7.2239,-7.2239,-7.2239,-7.2239,-7.2239,-7.2239,-7.2202,-7.1541,-7.1578,-7.2349,-7.3156,-7.4001,-7.4845,-7.4478,-7.4074,-7.367,-7.2826,-7.2018,-7.1293,-7.0303,-6.9395,-6.8624,-6.6913,-6.5463,-6.4379,-6.1821,-5.9268,0.0,0.0,0.0,0.0,0.0,0.0,0.0,0.0,0.0,0.0,0.0,-6.1953,-6.4512,-6.5626,-6.6715,-6.7983,-6.7755,-6.7858,-6.8706,-6.8398,-6.8129,-6.8129,-6.9283,-7.0244,-7.0615,-7.2552,-7.4014,-7.4437,-7.5592,-7.6553,-7.7053,-7.6322,-7.5707,-7.5745,-7.613,-7.6399,-7.6438,-7.7207,-7.7823,-7.7823,-7.8207,-7.8492,-7.8438,-7.813,-7.7823,-7.7823,-7.7053,-7.6399,-7.6361,-7.6015,-7.5745,-7.5745,-7.6053,-7.6592,-7.6823,-7.6361,-7.5784,-7.5745,-7.5745,-7.5707,-7.0146,-7.0257,-7.0257,-7.0293,-7.0403,-7.0403,-7.0293,-7.011,-7.011,-7.011,-7.011,-7.011,-7.011,-7.011,-7.0183,-7.033,-7.0403,-7.0513,-7.0624,-7.077,-7.1431,-7.2129,-7.2826,-7.3523,-7.4221,-7.4918,-7.4888,-7.4888,-7.4888,-7.5028,-7.5065,-7.5065,-7.5175,-7.5182,-7.5175,-7.3927,-7.356,-7.4147,-7.4845,-7.5322,-7.5542,-7.5322,-7.4882,-7.4184,-7.3964,-7.3156,-7.1717,-7.1039,-7.0354,-6.9673,-6.8247,-6.7253,-6.6739,-6.4687,-6.2918,0.0,-5.9526,0.0,0.0,0.0,0.0,0.0,0.0,0.0,0.0,-6.3077,-6.606,-6.8457,-6.8781,-6.9217,-6.9956,-7.0127,-7.0514,-7.1283,-7.1398,-7.1398,-7.1591,-7.2322,-7.3129,-7.3899,-7.5361,-7.663,-7.7246,-7.8246,-7.8823,-7.8861,-7.9092,-7.9131,-7.9131,-7.8938,-7.8746,-7.8838,-7.9015,-7.94,-7.9208,-7.9092,-7.9054,-7.8938,-7.8746,-7.8669,-7.8669,-7.8515,-7.84,-7.84,-7.8284,-7.8323,-7.8492,-7.84,-7.8477,-7.8554,-7.8515,-7.8438,-7.8284,-7.8169,-7.8492,-7.0477,-7.1101,-7.1073,-7.1468,-7.2055,-7.2055,-7.1321,-7.011,-7.011,-7.011,-7.011,-7.011,-7.011,-7.0146,-7.077,-7.1431,-7.2092,-7.2716,-7.3377,-7.4001,-7.4147,-7.4301,-7.4478,-7.4625,-7.4771,-7.4918,-7.4888,-7.4888,-7.4888,-7.5579,-7.5873,-7.5909,-7.6533,-7.6833,-7.687,0.0,0.0,0.0,-7.676,-7.7524,-7.8772,-7.7524,-7.676,-7.6607,-7.5359,0.0,-7.3439,-7.2871,-7.2246,-7.155,-7.0251,0.0,0.0,0.0,0.0,0.0,0.0,0.0,0.0,0.0,0.0,0.0,-6.4178,-6.4475,-6.3614,-6.6638,-6.9179,-7.0308,-7.1052,-7.186,-7.264,-7.2769,-7.3129,-7.386,-7.3976,-7.4245,-7.4938,-7.5784,-7.6438,-7.6553,-7.7438,-7.8092,-7.8415,-7.9631,-8.0592,-8.0669,-8.1785,-8.2554,-8.2516,-8.1362,-8.0631,-8.0669,-8.1554,-8.2247,-8.167,-8.1516,-8.1208,-8.0746,-7.9977,-7.9631,-7.9592,-7.9054,-7.8607,-7.8631,-7.8492,-7.8592,-7.8607,-7.8492,-7.89,-7.9438,-7.9592,-7.9361,-7.8631,-7.853,-7.8492,-7.2092,0.0,-7.2936,-7.334,0.0,-7.367,-7.323,-7.2422,-7.1615,-7.1505,-7.1908,-7.2312,-7.2496,-7.2496,-7.2899,-7.3303,-7.3707,-7.4111,-7.4515,-7.4918,-7.4888,-7.5102,-7.5506,-7.5506,-7.5726,-7.613,-7.6533,-7.6754,-7.6754,-7.7524,-7.7928,-7.7928,-7.8332,-7.8552,-7.8552,-7.905,-7.905,-7.8552,-7.8552,-7.8956,-7.9727,-7.8956,-7.8179,-7.7469,0.0,0.0,0.0,0.0,0.0,0.0,0.0,0.0,0.0,0.0,0.0,-6.807,-6.7427,-6.693,-6.6674,-6.7118,-6.7393,-6.7482,-6.8661,-6.8896,-6.7634,-6.9651,-7.1283,-7.2129,-7.2937,-7.3783,-7.4668,-7.5091,-7.5707,-7.6438,-7.6592,-7.6784,-7.7169,-7.7592,-7.8246,-7.9054,-7.9515,-8.0054,-8.09,-8.1708,-8.2285,-8.2362,-8.3016,-8.3632,-8.3516,-8.2901,-8.2324,-8.2324,-8.2939,-8.3439,-8.3054,-8.2939,-8.2824,-8.2362,-8.1977,-8.1708,-8.167,-8.1323,-8.1031,-8.1031,-8.1016,-8.1016,-8.1031,-8.1016,-8.117,-8.1554,-8.167,-8.1554,-8.1016,-8.0362,-7.9785,-7.3891,-7.3964,-7.4625,-7.4888,-7.4888,-7.4888,-7.4888,-7.4845,0.0,0.0,0.0,-7.4625,-7.4888,-7.4888,-7.4888,-7.4992,-7.5102,-7.5132,-7.5242,-7.5352,-7.5382,-7.5779,-7.6404,-7.6551,-7.6955,-7.7623,-7.8498,-7.8903,-7.8939,-7.9711,-8.0079,-8.0115,-8.0226,-8.0373,-8.0551,-8.0787,-8.0861,-8.0703,-8.0299,-8.0152,-8.0299,-8.0189,-7.9516,-7.8313,-7.8129,-7.7371,-7.5948,-7.5521,-7.4863,-7.3999,-7.3613,-7.316,-7.2492,-7.1941,-7.1653,-7.1768,-7.1149,-7.0861,-7.1006,-7.1037,-7.116,-7.139,-7.227,-7.2352,-7.1324,-7.2241,-7.3168,-7.3899,-7.4822,-7.5668,-7.6361,-7.7053,-7.7823,-7.8631,-7.8861,-7.8977,-7.9169,-7.9323,-8.0054,-8.1246,-8.1516,-8.2016,-8.3247,-8.3632,-8.3824,-8.3862,-8.4016,-8.4016,-8.4016,-8.3901,-8.3824,-8.4016,-8.4209,-8.4093,-8.3862,-8.3824,-8.3785,-8.3516,-8.3478,-8.3593,-8.3593,-8.3593,-8.3593,-8.3285,-8.3555,-8.3439,-8.3516,-8.3324,-8.3593,-8.3593,-8.3593,-8.3593,-8.3478,-8.2516,-8.1554,-7.4735,-7.4735,-7.4882,-7.4888,-7.4888,-7.4888,-7.4888,-7.4882,-7.4661,-7.4661,-7.4735,-7.4882,-7.4888,-7.4888,-7.4888,-7.5285,-7.5909,-7.6096,-7.656,0.0,-7.7304,-7.7467,-7.7614,-7.8278,-7.8648,-7.8832,-7.9644,-8.005,-8.0161,-8.0862,-8.1268,-8.1342,-8.1969,-8.2633,-8.3335,-8.4031,-8.4363,-8.4331,-8.2301,-8.16,-8.2264,-8.16,-8.1188,-8.0929,-8.0265,-7.9268,-7.7961,-7.794,-7.7398,-7.6241,-7.6197,-7.5999,-7.5473,-7.474,-7.4142,-7.3702,-7.3025,-7.2668,-7.2783,-7.2808,-7.3193,-7.3998,-7.4918,-7.474,-7.3183,-7.4509,-7.5515,-7.5707,-7.7015,-7.8015,-7.8169,-7.8338,-7.8784,-7.9592,-8.0285,-8.0977,-8.1593,-8.2285,-8.2785,-8.3131,-8.3247,-8.3247,-8.3708,-8.4324,-8.4709,-8.4824,-8.5209,-8.5709,-8.5632,-8.5132,-8.5055,-8.5555,-8.5747,-8.5478,-8.4901,-8.4709,-8.4478,-8.3708,-8.3708,-8.3785,-8.3785,-8.3785,-8.3785,-8.3632,-8.3785,-8.3708,-8.3708,-8.3593,-8.3747,-8.3785,-8.3785,-8.3747,-8.3785,-8.3439,-8.3247,-7.5542,-7.5616,-7.6019,-7.6173,-7.6173,-7.6203,-7.627,-7.636,-7.636,-7.6043,-7.5616,-7.6019,-7.6233,-7.636,-7.636,-7.6604,-7.7024,-7.7083,-7.7622,-7.836,-7.8419,-7.8707,-7.915,-7.9519,-7.9704,-7.9741,-8.0584,-8.0953,-8.1034,-8.2179,-8.2807,-8.2843,-8.3619,-8.4205,-8.4737,-8.5107,-8.5286,-8.5343,-8.412,-8.3434,-8.3361,-8.2991,-8.2456,-8.1748,-8.1341,-8.0782,-7.9938,-8.008,-7.9528,-7.8124,-7.8307,-7.7949,-7.6931,-7.6614,-7.6389,-7.6231,-7.5918,-7.5829,-7.5977,-7.6018,-7.6271,-7.6701,-7.7115,-7.7038,-7.6201,-7.6885,-7.7361,-7.74,-7.8477,-7.94,-7.9862,-8.0285,-8.09,-8.1747,-8.2247,-8.2593,-8.2939,-8.3324,-8.3747,-8.4209,-8.4286,-8.4478,-8.4901,-8.5286,-8.5555,-8.5632,-8.6247,-8.694,-8.7401,-8.7171,-8.6709,-8.6247,-8.6094,-8.5978,-8.5632,-8.5555,-8.5363,-8.4978,-8.4939,-8.4939,-8.4939,-8.4978,-8.4939,-8.4939,-8.4978,-8.4939,-8.4939,-8.4978,-8.4939,-8.4939,-8.4939,-8.4939,-8.4939,-8.4939,-8.4632,-7.6387,-7.646,-7.7017,-7.7341,-7.7372,-7.7372,-7.7573,-7.7901,-7.7901,-7.762,-7.7132,-7.7322,-7.7524,-7.765,-7.7828,-7.7961,-7.8116,-7.8293,-7.8766,-7.9283,-7.935,-7.9749,-8.0378,-8.0563,-8.0674,-8.0785,-8.1488,-8.1968,-8.2264,-8.3448,-8.4114,-8.4373,-8.5113,-8.5546,-8.5708,-8.5893,-8.6066,-8.6122,-8.5905,-8.5297,-8.4336,-8.433,-8.3854,-8.2912,-8.2636,-8.2323,-8.1853,-8.1855,-8.1332,-8.0071,-8.028,-7.9912,-7.8823,-7.8523,-7.8464,-7.8591,-7.8335,-7.8223,-7.8407,-7.8485,-7.8592,-7.8784,-7.8977,-7.9169,-7.9323,-7.9569,-7.9477,-7.9246,-8.0092,-8.0977,-8.1593,-8.217,-8.2862,-8.3516,-8.3785,-8.3862,-8.3901,-8.4055,-8.4401,-8.5055,-8.517,-8.5478,-8.617,-8.6401,-8.6478,-8.6786,-8.7286,-8.7979,-8.8556,-8.8671,-8.8055,-8.7209,-8.6671,-8.6786,-8.6671,-8.6709,-8.6709,-8.6671,-8.6671,-8.6671,-8.6671,-8.6671,-8.6671,-8.6709,-8.6709,-8.6709,-8.6709,-8.6709,-8.6594,-8.6401,-8.6286,-8.6286,-8.5978,-8.5978,-8.5709,-7.7163,-7.72,-7.7273,-7.7402,-7.7627,-7.7627,-7.8122,-7.8825,-7.8862,-7.9268,-7.9637,-7.8389,-7.7828,-7.7865,-7.8566,-7.8892,-7.8995,-7.9816,-8.0274,-8.0348,-8.0493,-8.0588,-8.0819,-8.1479,-8.1851,-8.1962,-8.2638,-8.3381,-8.4012,-8.4309,-8.4747,-8.5453,-8.627,-8.6648,-8.6753,-8.7421,-8.7824,-8.7861,-8.783,-8.705,-8.5564,-8.5604,-8.5656,-8.5536,-8.4936,-8.4348,-8.3757,-8.3162,-8.2621,-8.2104,-8.2168,-8.2306,-8.2263,-8.106,-8.035,-8.049,-7.921,-7.8423,-7.8538,-7.8477,-7.8977,-7.9631,-8.0439,-8.117,-8.1823,-8.2631,-8.2439,-8.1516,-8.2285,-8.3054,-8.3362,-8.3439,-8.3555,-8.3824,-8.4362,-8.4786,-8.4863,-8.544,-8.5901,-8.5978,-8.6017,-8.6324,-8.7094,-8.7286,-8.7594,-8.8248,-8.844,-8.8671,-8.8902,-8.894,-8.894,-8.8556,-8.844,-8.8402,-8.8325,-8.844,-8.8209,-8.8286,-8.8402,-8.8248,-8.8171,-8.8209,-8.8402,-8.794,-8.8248,-8.8171,-8.8248,-8.8402,-8.8055,-8.7401,-8.7171,-8.7017,-8.6363,-8.6094,-8.5901,-7.731,-7.7347,-7.7855,-7.8425,-7.8983,-7.9148,-7.9446,-7.989,-7.989,-8.0133,-8.0444,-7.9813,-7.9459,-7.9409,-7.9742,-7.9948,-8.0036,-8.0427,-8.0902,-8.1347,-8.1442,-8.1694,-8.2177,-8.2511,-8.292,-8.3403,-8.3737,-8.4295,-8.5075,-8.5595,-8.6226,-8.7007,-8.7415,-8.7564,-8.7601,-8.7935,-8.8084,-8.8084,-8.8084,-8.775,-8.7149,-8.678,-8.6415,-8.6047,-8.591,-8.5794,-8.5557,-8.5122,-8.4557,-8.393,-8.3697,-8.3426,-8.3161,-8.249,-8.2253,-8.2335,-8.1843,-8.1484,-8.1516,-8.1516,-8.167,-8.2054,-8.2362,-8.2747,-8.3054,-8.3862,-8.4055,-8.3555,-8.3516,-8.3785,-8.4286,-8.4362,-8.4555,-8.5016,-8.5401,-8.5593,-8.5632,-8.5901,-8.6247,-8.6748,-8.6863,-8.7209,-8.794,-8.8171,-8.8517,-8.921,-8.9402,-8.9556,-9.0017,-9.0171,-9.0171,-9.0171,-9.0171,-8.971,-8.9017,-8.8671,-8.8709,-8.8709,-8.8671,-8.8671,-8.8748,-8.8671,-8.8671,-8.8709,-8.8786,-8.8786,-8.8594,-8.8671,-8.8517,-8.8094,-8.7594,-8.7132,-8.6286,-8.6094,-8.6094,-7.7818,-7.8075,-7.8725,-7.94,-8.0069,-8.0258,-8.0585,-8.0888,-8.0918,-8.1087,-8.136,-8.136,-8.1339,-8.1214,-8.1029,-8.0976,-8.1063,-8.1285,-8.1694,-8.2288,-8.2326,-8.2623,-8.318,-8.344,-8.3812,-8.4332,-8.4629,-8.5179,-8.599,-8.6808,-8.7545,-8.8134,-8.8208,-8.8171,-8.8208,-8.8239,-8.8208,-8.8177,-8.8177,-8.8146,-8.8066,-8.7734,-8.722,-8.6806,-8.6854,-8.7012,-8.7158,-8.6728,-8.629,-8.5861,-8.5296,-8.4806,-8.4324,-8.3916,-8.364,-8.3533,-8.3561,-8.3593,-8.3593,-8.3593,-8.3593,-8.3593,-8.3785,-8.3939,-8.4093,-8.4747,-8.5209,-8.517,-8.467,-8.4632,-8.5093,-8.5247,-8.5517,-8.6017,-8.6094,-8.617,-8.6401,-8.6478,-8.6824,-8.7594,-8.7748,-8.8055,-8.8825,-8.9248,-8.9671,-9.0133,-9.0287,-9.0441,-9.1018,-9.1133,-9.1133,-9.121,-9.1171,-9.071,-8.9633,-8.9517,-8.9402,-8.9402,-8.9517,-8.9517,-8.9402,-8.9402,-8.9402,-8.9863,-8.9479,-8.944,-8.971,-8.9556,-8.9171,-8.8863,-8.8209,-8.7363,-8.6709,-8.6363,-8.6132,-7.8993,-7.9648,-7.9878,-8.0069,-8.0221,-8.0474,-8.1103,-8.1917,-8.1954,-8.2363,-8.292,-8.2994,-8.3032,-8.292,-8.2185,-8.1917,-8.2028,-8.266,-8.2957,-8.3069,-8.3069,-8.3143,-8.3217,-8.396,-8.4369,-8.4666,-8.5291,-8.6057,-8.7064,-8.7809,-8.8316,-8.8473,-8.8473,-8.8503,-8.8473,-8.8436,-8.8414,-8.8293,-8.8293,-8.8293,-8.8323,-8.8369,-8.8383,-8.8263,-8.8063,-8.8037,-8.8218,-8.7753,-8.7535,-8.7839,-8.712,-8.6776,-8.6826,-8.5518,-8.4455,-8.3846,-8.3708,-8.367,-8.3708,-8.3747,-8.3747,-8.3747,-8.4439,-8.4863,-8.4901,-8.5593,-8.6055,-8.6055,-8.6017,-8.6055,-8.6132,-8.6132,-8.6094,-8.617,-8.6209,-8.6594,-8.7248,-8.7363,-8.7748,-8.844,-8.8709,-8.9056,-8.9787,-9.0594,-9.0825,-9.1018,-9.1095,-9.1133,-9.1133,-9.121,-9.121,-9.121,-9.121,-9.1133,-9.1056,-9.071,-9.0787,-9.0748,-9.0556,-9.0864,-9.1056,-9.1095,-9.1018,-9.0941,-9.0748,-9.0748,-9.0979,-9.0864,-9.0402,-8.9748,-8.8594,-8.7748,-8.744,-8.6632,-8.6363,-7.99,-8.0725,-8.088,-8.1323,-8.1918,-8.2141,-8.2445,-8.2734,-8.2771,-8.292,-8.3143,-8.318,-8.318,-8.318,-8.2883,-8.2771,-8.2771,-8.3069,-8.318,-8.318,-8.318,-8.3477,-8.3997,-8.4257,-8.5,-8.5922,-8.6385,-8.7026,-8.7921,-8.8294,-8.8436,-8.8466,-8.8533,-8.8533,-8.8533,-8.8533,-8.8466,-8.8444,-8.8406,-8.8444,-8.8473,-8.8592,-8.8716,-8.8708,-8.8829,-8.8971,-8.915,-8.8696,-8.8597,-8.8815,-8.8193,-8.7924,-8.7976,-8.7564,-8.6868,-8.6132,-8.6017,-8.5786,-8.5324,-8.5209,-8.5209,-8.5209,-8.5478,-8.5709,-8.5824,-8.6401,-8.694,-8.6978,-8.7478,-8.7748,-8.7632,-8.7286,-8.694,-8.6978,-8.744,-8.7825,-8.8132,-8.8248,-8.8556,-8.9325,-8.9902,-9.0441,-9.0594,-9.1018,-9.121,-9.121,-9.121,-9.121,-9.121,-9.121,-9.121,-9.121,-9.121,-9.121,-9.121,-9.1171,-9.1171,-9.1171,-9.1133,-9.1095,-9.1171,-9.1227,-9.1112,-9.1091,-9.1189,-9.1206,-9.1168,-9.1129,-9.086,-9.0189,-8.9034,-8.8589,-8.8325,-8.755,-8.7127,-8.1024,-8.1592,-8.1846,-8.2295,-8.2897,-8.3121,-8.318,-8.318,-8.318,-8.318,-8.318,-8.318,-8.318,-8.318,-8.318,-8.318,-8.318,-8.318,-8.318,-8.3217,-8.3477,-8.3849,-8.4406,-8.4926,-8.5706,-8.674,-8.7301,-8.7891,-8.8517,-8.865,-8.8708,-8.8728,-8.8757,-8.8785,-8.8785,-8.8728,-8.8699,-8.8642,-8.8583,-8.8592,-8.8621,-8.8745,-8.886,-8.8973,-8.9238,-8.9464,-8.9642,-8.945,-8.9561,-8.9682,-8.9152,-8.8709,-8.8605,-8.8675,-8.844,-8.7902,-8.7825,-8.7594,-8.7055,-8.694,-8.694,-8.694,-8.694,-8.694,-8.6978,-8.7478,-8.7748,-8.794,-8.8286,-8.8671,-8.8632,-8.8363,-8.8094,-8.794,-8.8363,-8.8825,-8.9056,-8.9094,-8.9479,-9.0171,-9.0748,-9.1133,-9.121,-9.1171,-9.121,-9.121,-9.1227,-9.1245,-9.1206,-9.1241,-9.1258,-9.1258,-9.1275,-9.1275,-9.1275,-9.1292,-9.1224,-9.1206,-9.1189,-9.1189,-9.1206,-9.1206,-9.1224,-9.1241,-9.1258,-9.1258,-9.1258,-9.1258,-9.095,-9.0432,-8.9927,-8.9459,-8.9019,-8.8463,-8.8078,-8.237,-8.2397,-8.2745,-8.283,-8.2964,-8.3121,-8.318,-8.318,-8.318,-8.318,-8.318,-8.318,-8.318,-8.318,-8.318,-8.318,-8.318,-8.318,-8.3254,-8.3366,-8.3997,-8.4406,-8.4703,-8.5929,-8.6666,-8.7031,-8.7853,-8.8466,-8.8794,-8.8908,-8.9047,-8.9173,-8.9291,-8.928,-8.9333,-8.92,-8.9092,-8.8992,-8.8879,-8.8832,-8.8803,-8.886,-8.8964,-8.9184,-8.9333,-8.9541,-8.979,-8.9991,-9.0291,-9.0646,-9.0072,-8.936,-8.8983,-8.894,-8.8786,-8.8748,-8.8709,-8.8671,-8.8594,-8.8479,-8.8402,-8.8402,-8.8556,-8.8402,-8.8363,-8.8594,-8.8709,-8.8709,-8.8825,-8.8863,-8.9017,-8.944,-8.9517,-8.8863,-8.8902,-8.9286,-8.9748,-8.9902,-9.021,-9.0902,-9.121,-9.1171,-9.1171,-9.1189,-9.1206,-9.1224,-9.1258,-9.1308,-9.1308,-9.1319,-9.1368,-9.1384,-9.1352,-9.1374,-9.1368,-9.1384,-9.1325,-9.1241,-9.1224,-9.1224,-9.1292,-9.1308,-9.1325,-9.1303,-9.1358,-9.1319,-9.1319,-9.1319,-9.1336,-9.095,-9.0596,-9.0272,-8.9948,-8.9523,-8.9077,-8.2471,-8.2633,-8.2813,-8.2994,-8.3121,-8.318,-8.318,-8.318,-8.318,-8.318,-8.318,-8.318,-8.318,-8.318,-8.318,-8.318,-8.318,-8.3217,-8.3477,-8.3997,-8.4295,-8.5,-8.5966,-8.6561,-8.7204,-8.7936,-8.8383,-8.8794,-8.9047,-8.9129,-8.9211,-8.9345,-8.9359,-8.9386,-8.9412,-8.9333,-8.9318,-8.9291,-8.9238,-8.9211,-8.9211,-8.9211,-8.9265,-8.9371,-8.9541,-8.9741,-8.9949,-9.0113,-9.0427,-9.0858,-9.0647,-9.0473,-9.0406,-9.0441,-9.0133,-8.9594,-8.9517,-8.9248,-8.8786,-8.8709,-8.8748,-8.8709,-8.8709,-8.8671,-8.8748,-8.9248,-8.9517,-8.9594,-9.0056,-9.0441,-9.0479,-9.0633,-9.0402,-8.9633,-9.0056,-9.0402,-9.0633,-9.0748,-9.0902,-9.1133,-9.1262,-9.1258,-9.1275,-9.1308,-9.1341,-9.1341,-9.1336,-9.139,-9.1368,-9.1422,-9.14,-9.14,-9.14,-9.1415,-9.1431,-9.1446,-9.1438,-9.1358,-9.1341,-9.1325,-9.1374,-9.1406,-9.1384,-9.14,-9.1415,-9.1415,-9.1415,-9.1415,-9.1431,-9.1415,-9.1091,-9.0975,-9.0937,-9.0566,-9.0018,-8.2597,-8.2788,-8.2934,-8.3091,-8.318,-8.318,-8.318,-8.318,-8.318,-8.318,-8.318,-8.318,-8.318,-8.318,-8.318,-8.318,-8.3217,-8.3477,-8.4072,-8.474,-8.4852,-8.5595,-8.6747,-8.7217,-8.7704,-8.8391,-8.8716,-8.8936,-8.9173,-8.9265,-8.9333,-8.9515,-8.9591,-8.9642,-8.9667,-8.9642,-8.9591,-8.9578,-8.9501,-8.9438,-8.9423,-8.9386,-8.9412,-8.9541,-8.9692,-8.9887,-9.0137,-9.0273,-9.0474,-9.0819,-9.0973,-9.1084,-9.1192,-9.1133,-9.0941,-9.0556,-9.0364,-9.0171,-8.9671,-8.971,-8.9633,-8.9633,-8.9594,-8.9633,-8.971,-9.0171,-9.0364,-9.0479,-9.0825,-9.121,-9.1171,-9.1171,-9.0941,-9.0479,-9.0825,-9.1171,-9.121,-9.121,-9.1189,-9.1262,-9.1275,-9.1308,-9.1358,-9.139,-9.14,-9.14,-9.1431,-9.1485,-9.1485,-9.1516,-9.1516,-9.1531,-9.1546,-9.1561,-9.1546,-9.1531,-9.1531,-9.1462,-9.1415,-9.1454,-9.147,-9.1485,-9.15,-9.1546,-9.1561,-9.1576,-9.1561,-9.1561,-9.1561,-9.1531,-9.1516,-9.143,-9.1291,-9.1175,-9.0803,-8.2788,-8.2934,-8.3121,-8.318,-8.318,-8.318,-8.318,-8.318,-8.318,-8.318,-8.318,-8.318,-8.318,-8.3217,-8.3329,-8.3366,-8.344,-8.4146,-8.4889,-8.5483,-8.5706,-8.6152,-8.7037,-8.7785,-8.8272,-8.8495,-8.8708,-8.8964,-8.9238,-8.9307,-8.9553,-8.9766,-8.9887,-9.0067,-9.009,-9.0029,-8.9911,-8.9814,-8.9692,-8.9629,-8.9489,-8.9464,-8.9604,-8.979,-8.9863,-9.0029,-9.0301,-9.0496,-9.0641,-9.0915,-9.1064,-9.1192,-9.121,-9.121,-9.1171,-9.1095,-9.1171,-9.1095,-9.1133,-9.0902,-9.0941,-9.0941,-9.0902,-9.1171,-9.0979,-9.0941,-9.1018,-9.1056,-9.1133,-9.121,-9.121,-9.121,-9.1171,-9.1171,-9.1171,-9.121,-9.121,-9.1227,-9.1224,-9.1292,-9.1325,-9.1358,-9.14,-9.1454,-9.1431,-9.1446,-9.1531,-9.1561,-9.1615,-9.1605,-9.1687,-9.1687,-9.1634,-9.162,-9.1605,-9.1605,-9.1605,-9.1591,-9.1561,-9.1546,-9.1585,-9.16,-9.1615,-9.162,-9.1649,-9.1649,-9.1663,-9.1673,-9.1673,-9.1659,-9.1673,-9.1702,-9.1624,-9.1441,-9.1388,-8.2874,-8.2897,-8.3121,-8.318,-8.318,-8.318,-8.318,-8.318,-8.318,-8.318,-8.318,-8.318,-8.3217,-8.3254,-8.3812,-8.4072,-8.4257,-8.4926,-8.5706,-8.6375,-8.6486,-8.6969,-8.7663,-8.8174,-8.8436,-8.8562,-8.8794,-8.9102,-8.9345,-8.9359,-8.9604,-8.9911,-8.9982,-9.0052,-9.0182,-9.0144,-9.0159,-9.0113,-9.009,-9.0043,-8.9958,-8.9996,-9.0043,-9.009,-9.0205,-9.0301,-9.0496,-9.0741,-9.0877,-9.0972,-9.11,-9.121,-9.121,-9.121,-9.121,-9.121,-9.121,-9.121,-9.121,-9.121,-9.121,-9.121,-9.121,-9.121,-9.121,-9.121,-9.121,-9.121,-9.121,-9.121,-9.121,-9.121,-9.121,-9.121,-9.1227,-9.1245,-9.1241,-9.1275,-9.1308,-9.139,-9.1454,-9.1485,-9.1531,-9.1561,-9.1605,-9.1605,-9.162,-9.1634,-9.1673,-9.1687,-9.1716,-9.1716,-9.1702,-9.1702,-9.1702,-9.1702,-9.1702,-9.1702,-9.1687,-9.1673,-9.1673,-9.1673,-9.1687,-9.1702,-9.1702,-9.1702,-9.1702,-9.1702,-9.1716,-9.1716,-9.1716,-9.1716,-9.1716,-9.1624,-9.1585,-8.2964,-8.3024,-8.3151,-8.318,-8.318,-8.318,-8.318,-8.318,-8.318,-8.318,-8.318,-8.318,-8.3366,-8.3737,-8.4183,-8.4592,-8.4963,-8.5743,-8.6338,-8.6747,-8.7155,-8.7601,-8.8035,-8.8323,-8.8473,-8.8533,-8.8794,-8.9075,-8.9307,-8.9386,-8.9642,-8.9982,-9.009,-9.0182,-9.0362,-9.0362,-9.0378,-9.0295,-9.0295,-9.0273,-9.0205,-9.0205,-9.0273,-9.0301,-9.041,-9.0517,-9.0721,-9.0896,-9.1028,-9.1046,-9.1118,-9.121,-9.121,-9.121,-9.121,-9.121,-9.121,-9.121,-9.121,-9.121,-9.121,-9.121,-9.121,-9.121,-9.121,-9.121,-9.121,-9.121,-9.121,-9.121,-9.121,-9.1245,-9.1262,-9.1241,-9.1258,-9.1292,-9.1308,-9.1341,-9.1406,-9.147,-9.1531,-9.1615,-9.1644,-9.1649,-9.1702,-9.1716,-9.1702,-9.1702,-9.1702,-9.1716,-9.1716,-9.1716,-9.1716,-9.1716,-9.1716,-9.1716,-9.1716,-9.1716,-9.1716,-9.1716,-9.1716,-9.1716,-9.1716,-9.1716,-9.1716,-9.1716,-9.1716,-9.1716,-9.1716,-9.1716,-9.1716,-9.1716,-9.1716,-9.1716,-9.1716,-8.3024,-8.318,-8.318,-8.318,-8.318,-8.318,-8.318,-8.318,-8.318,-8.3254,-8.3366,-8.3329,-8.3849,-8.4518,-8.4815,-8.5075,-8.5781,-8.6561,-8.6858,-8.723,-8.7638,-8.8121,-8.8338,-8.8307,-8.8384,-8.857,-8.8754,-8.9207,-8.9593,-8.9699,-8.9982,-9.0514,-9.0616,-9.066,-9.1021,-9.0971,-9.0835,-9.0923,-9.0977,-9.0819,-9.0622,-9.0584,-9.0596,-9.0496,-9.06,-9.0721,-9.0896,-9.0989,-9.1046,-9.1046,-9.1157,-9.1192,-9.121,-9.121,-9.121,-9.121,-9.121,-9.121,-9.121,-9.121,-9.121,-9.121,-9.121,-9.121,-9.121,-9.121,-9.121,-9.121,-9.121,-9.1206,-9.1262,-9.1275,-9.1308,-9.1325,-9.139,-9.1368,-9.1336,-9.1406,-9.1485,-9.16,-9.1615,-9.1644,-9.1687,-9.1716,-9.1716,-9.1716,-9.1716,-9.1716,-9.1716,-9.1716,-9.1716,-9.1716,-9.1716,-9.1716,-9.1716,-9.1716,-9.1716,-9.1716,-9.1716,-9.1716,-9.1716,-9.1716,-9.1716,-9.1716,-9.1716,-9.1716,-9.1716,-9.1716,-9.1716,-9.1716,-9.1716,-9.1716,-9.1716,-9.1716,-9.1716,-8.3151,-8.318,-8.318,-8.318,-8.318,-8.318,-8.318,-8.318,-8.3217,-8.3589,-8.3997,-8.4109,-8.4592,-8.5372,-8.5892,-8.6412,-8.6635,-8.7378,-8.7824,-8.7824,-8.7973,-8.8493,-8.8815,-8.8679,-8.8458,-8.8757,-8.939,-8.9911,-9.0303,-9.0906,-9.1468,-9.1735,-9.1824,-9.2215,-9.2274,-9.2308,-9.252,-9.2499,-9.246,-9.2019,-9.156,-9.151,-9.1306,-9.0852,-9.08,-9.0896,-9.0971,-9.11,-9.1136,-9.1175,-9.1192,-9.121,-9.121,-9.121,-9.121,-9.121,-9.121,-9.121,-9.121,-9.121,-9.121,-9.121,-9.121,-9.121,-9.121,-9.121,-9.121,-9.1189,-9.1224,-9.1292,-9.1358,-9.1352,-9.1406,-9.1422,-9.1485,-9.1531,-9.1516,-9.1516,-9.16,-9.1659,-9.1687,-9.1702,-9.1716,-9.1716,-9.1716,-9.1716,-9.1716,-9.1716,-9.1716,-9.1716,-9.1716,-9.1716,-9.1716,-9.1716,-9.1716,-9.1754,-9.187,-9.1948,-9.1986,-9.218,-9.218,-9.2064,-9.2218,-9.2025,-9.1716,-9.1754,-9.1909,-9.1716,-9.1716,-9.1716,-9.1716,-9.1716,-9.1716,-9.1716,-9.1716,-8.318,-8.318,-8.318,-8.318,-8.318,-8.318,-8.318,-8.3292,-8.3626,-8.3997,-8.4406,-8.474,-8.5409,-8.6152,-8.6598,-8.6969,-8.7564,-8.827,-8.8641,-8.8784,-8.9107,-8.9622,-8.9876,-8.9777,-8.9631,-8.9758,-9.0251,-9.0737,-9.1141,-9.1596,-9.1933,-9.2304,-9.2527,-9.2603,-9.2878,-9.3006,-9.2973,-9.3017,-9.3115,-9.2847,-9.2487,-9.2533,-9.2255,-9.1529,-9.124,-9.1082,-9.11,-9.1175,-9.1192,-9.121,-9.121,-9.121,-9.121,-9.121,-9.121,-9.121,-9.121,-9.121,-9.121,-9.121,-9.121,-9.121,-9.121,-9.1189,-9.1224,-9.1241,-9.1258,-9.1292,-9.1341,-9.139,-9.14,-9.1485,-9.1485,-9.1516,-9.1561,-9.1644,-9.1659,-9.1659,-9.1673,-9.1702,-9.1702,-9.1716,-9.1716,-9.1716,-9.1716,-9.1716,-9.1716,-9.1716,-9.1716,-9.1716,-9.1716,-9.1716,-9.1716,-9.1716,-9.1716,-9.1832,-9.2025,-9.2257,-9.2528,-9.2876,-9.3147,-9.2992,-9.2876,-9.2567,-9.2257,-9.2141,-9.2218,-9.1986,-9.1832,-9.1754,-9.1754,-9.1716,-9.1754,-9.187,-9.1832,-8.318,-8.318,-8.318,-8.318,-8.318,-8.318,-8.3292,-8.3514,-8.4072,-8.4555,-8.4852,-8.5521,-8.6226,-8.6895,-8.7007,-8.7527,-8.8307,-8.905,-8.9496,-8.9665,-9.0205,-9.0677,-9.0926,-9.108,-9.1276,-9.1425,-9.1403,-9.16,-9.1837,-9.2172,-9.27,-9.2708,-9.2871,-9.3269,-9.3282,-9.3297,-9.3533,-9.3699,-9.3721,-9.3513,-9.3366,-9.3395,-9.312,-9.2257,-9.1792,-9.1346,-9.1231,-9.1192,-9.121,-9.121,-9.121,-9.121,-9.121,-9.121,-9.121,-9.121,-9.121,-9.121,-9.121,-9.1227,-9.1189,-9.1189,-9.1206,-9.1241,-9.1308,-9.1325,-9.1358,-9.1406,-9.1438,-9.147,-9.1431,-9.1531,-9.1615,-9.1629,-9.1634,-9.1702,-9.1716,-9.1716,-9.1716,-9.1716,-9.1716,-9.1716,-9.1716,-9.1716,-9.1716,-9.1716,-9.1716,-9.1754,-9.1754,-9.1754,-9.1754,-9.1948,-9.1986,-9.2528,-9.2644,-9.2644,-9.276,-9.2876,-9.3186,-9.3495,-9.3921,-9.3688,-9.3456,-9.3186,-9.2953,-9.2876,-9.2837,-9.2837,-9.2567,-9.2102,-9.2218,-9.2644,-9.2489,-9.2141,-9.2102,-8.318,-8.318,-8.318,-8.318,-8.318,-8.318,-8.3589,-8.4146,-8.4399,-8.5186,-8.6301,-8.6561,-8.7112,-8.7744,-8.7861,-8.8344,-8.9187,-8.9968,-9.0409,-9.054,-9.0932,-9.133,-9.1932,-9.2196,-9.2616,-9.3012,-9.278,-9.2463,-9.2824,-9.3473,-9.3704,-9.4038,-9.4288,-9.4475,-9.4486,-9.4711,-9.4638,-9.4678,-9.4738,-9.4555,-9.4321,-9.4185,-9.385,-9.2772,-9.2364,-9.1902,-9.1364,-9.121,-9.121,-9.121,-9.121,-9.121,-9.121,-9.121,-9.121,-9.121,-9.121,-9.1189,-9.1227,-9.1241,-9.1275,-9.1292,-9.1341,-9.1336,-9.1368,-9.1384,-9.14,-9.1415,-9.1516,-9.1561,-9.1634,-9.1673,-9.1687,-9.1702,-9.1702,-9.1716,-9.1716,-9.1716,-9.1716,-9.1716,-9.1716,-9.1716,-9.1716,-9.1716,-9.1716,-9.1716,-9.1716,-9.187,-9.1986,-9.1948,-9.1909,-9.2141,-9.2373,-9.3108,-9.3766,-9.3766,-9.3804,-9.3843,-9.4037,-9.4114,-9.4346,-9.4191,-9.3998,-9.4153,-9.3959,-9.3766,-9.3727,-9.3688,-9.3534,-9.3224,-9.3456,-9.3688,-9.3379,-9.307,-9.3031,-8.318,-8.318,-8.318,-8.318,-8.3254,-8.3626,-8.4057,-8.4599,-8.541,-8.6259,-8.6989,-8.7511,-8.8144,-8.8808,-8.8994,-8.9441,-9.0193,-9.1013,-9.1411,-9.1547,-9.2051,-9.251,-9.3065,-9.3251,-9.3622,-9.3897,-9.3671,-9.3454,-9.3606,-9.414,-9.4486,-9.453,-9.4767,-9.4921,-9.4996,-9.4994,-9.5191,-9.5348,-9.5379,-9.5273,-9.4987,-9.4878,-9.4235,-9.3848,-9.2941,-9.2287,-9.1941,-9.1364,-9.121,-9.121,-9.121,-9.121,-9.121,-9.1245,-9.1224,-9.1227,-9.1206,-9.1241,-9.1258,-9.1325,-9.1336,-9.1374,-9.1384,-9.1454,-9.1485,-9.15,-9.1516,-9.1561,-9.1576,-9.1673,-9.1702,-9.1716,-9.1716,-9.1716,-9.1716,-9.1716,-9.1716,-9.1716,-9.1754,-9.1754,-9.1793,-9.1754,-9.1716,-9.1716,-9.1716,-9.1716,-9.1754,-9.1986,-9.2296,-9.2373,-9.2412,-9.2953,-9.334,-9.3766,-9.4423,-9.4578,-9.4733,-9.4849,-9.4926,-9.5004,-9.5197,-9.5236,-9.5429,-9.5623,-9.5313,-9.4655,-9.4539,-9.4462,-9.4385,-9.4269,-9.423,-9.4191,-9.4153,-9.4075,-9.4037,-8.3268,-8.3268,-8.3268,-8.3342,-8.3632,-8.4227,-8.477,-8.5371,-8.6527,-8.7257,-8.7644,-8.8383,-8.9101,-8.9728,-9.0176,-9.0662,-9.1297,-9.2051,-9.2448,-9.2652,-9.3192,-9.3755,-9.3998,-9.4208,-9.4311,-9.4411,-9.4465,-9.4448,-9.4291,-9.4476,-9.4594,-9.4648,-9.4715,-9.4844,-9.4946,-9.4946,-9.5119,-9.5263,-9.5333,-9.5463,-9.5473,-9.5243,-9.4926,-9.4962,-9.3672,-9.2941,-9.2364,-9.1902,-9.1441,-9.1287,-9.121,-9.121,-9.1206,-9.1258,-9.1275,-9.1241,-9.1292,-9.1325,-9.1358,-9.1406,-9.1454,-9.147,-9.1446,-9.1531,-9.1561,-9.1629,-9.1644,-9.1702,-9.1716,-9.1702,-9.1716,-9.1716,-9.1716,-9.1716,-9.1716,-9.1716,-9.1716,-9.1754,-9.1909,-9.1909,-9.1909,-9.1909,-9.187,-9.1793,-9.1793,-9.2257,-9.2296,-9.2721,-9.2992,-9.3186,-9.3379,-9.4037,-9.4462,-9.4617,-9.4965,-9.5197,-9.5429,-9.5739,-9.5777,-9.5855,-9.6203,-9.6512,-9.659,-9.6396,-9.5971,-9.539,-9.5313,-9.5313,-9.5352,-9.5236,-9.4888,-9.4849,-9.5197,-9.5158,-9.5042,-8.3546,-8.3546,-8.3583,-8.3994,-8.4628,-8.4852,-8.5674,-8.6897,-8.7233,-8.7682,-8.8479,-8.9272,-8.9788,-9.0266,-9.1432,-9.1925,-9.2299,-9.2884,-9.341,-9.3589,-9.3798,-9.4085,-9.4349,-9.4448,-9.461,-9.4741,-9.487,-9.4689,-9.4583,-9.4648,-9.4648,-9.4663,-9.4767,-9.4819,-9.4895,-9.4921,-9.4971,-9.5167,-9.5215,-9.5448,-9.5738,-9.5747,-9.5444,-9.5117,-9.4634,-9.398,-9.2941,-9.2479,-9.2095,-9.1364,-9.1248,-9.1245,-9.1275,-9.1292,-9.1358,-9.1352,-9.1384,-9.1422,-9.14,-9.15,-9.1585,-9.16,-9.1629,-9.1687,-9.1687,-9.1687,-9.1687,-9.1702,-9.1716,-9.1716,-9.1716,-9.1716,-9.1716,-9.1793,-9.1909,-9.1909,-9.1909,-9.2412,-9.2489,-9.2644,-9.2799,-9.2373,-9.2141,-9.1986,-9.1948,-9.2451,-9.2953,-9.3379,-9.3843,-9.4114,-9.4423,-9.5081,-9.539,-9.5506,-9.5584,-9.5816,-9.5971,-9.6396,-9.6474,-9.6512,-9.6667,-9.6822,-9.6822,-9.659,-9.6203,-9.6125,-9.6125,-9.6203,-9.6358,-9.6203,-9.5855,-9.6087,-9.6512,-9.6319,-9.5893,-8.4615,-8.4349,-8.4349,-8.4797,-8.5582,-8.6067,-8.6685,-8.7556,-8.8503,-8.9189,-8.9724,-9.0597,-9.1255,-9.1827,-9.2955,-9.3405,-9.3518,-9.3819,-9.4027,-9.417,-9.4255,-9.4421,-9.461,-9.4767,-9.4895,-9.5021,-9.5143,-9.5167,-9.4996,-9.4921,-9.4921,-9.4921,-9.4971,-9.5045,-9.4996,-9.5021,-9.5143,-9.5301,-9.5417,-9.5582,-9.5818,-9.5882,-9.5847,-9.5692,-9.5249,-9.4595,-9.398,-9.3364,-9.2787,-9.2112,-9.1976,-9.172,-9.1479,-9.139,-9.147,-9.15,-9.1546,-9.1546,-9.1531,-9.1629,-9.1644,-9.1659,-9.1687,-9.1702,-9.1716,-9.1716,-9.1716,-9.1716,-9.1716,-9.1716,-9.1754,-9.1716,-9.2025,-9.2218,-9.2412,-9.2721,-9.2837,-9.3108,-9.3418,-9.3572,-9.3688,-9.3379,-9.3186,-9.3263,-9.3263,-9.3379,-9.3804,-9.4153,-9.481,-9.5468,-9.5777,-9.6125,-9.628,-9.6319,-9.6396,-9.6512,-9.6396,-9.6628,-9.6628,-9.6706,-9.6744,-9.6822,-9.6822,-9.6822,-9.659,-9.6628,-9.6822,-9.6744,-9.6628,-9.6706,-9.6783,-9.6822,-9.6822,-9.6744,-9.6358,-8.5976,-8.5794,-8.5525,-8.5882,-8.6668,-8.7267,-8.7876,-8.8551,-8.9714,-9.0501,-9.1052,-9.1865,-9.2776,-9.3531,-9.4136,-9.4373,-9.4438,-9.4513,-9.454,-9.4557,-9.4636,-9.4767,-9.4921,-9.5045,-9.5191,-9.5324,-9.5471,-9.5516,-9.5493,-9.5425,-9.5356,-9.5239,-9.5215,-9.5191,-9.5191,-9.5167,-9.5215,-9.5394,-9.5554,-9.5751,-9.588,-9.5941,-9.6098,-9.6001,-9.5711,-9.5211,-9.496,-9.4441,-9.3633,-9.3033,-9.2875,-9.2674,-9.2332,-9.2411,-9.245,-9.248,-9.2562,-9.2524,-9.2277,-9.2098,-9.1779,-9.1716,-9.1716,-9.1716,-9.1716,-9.1716,-9.1716,-9.1716,-9.2064,-9.2064,-9.2064,-9.2218,-9.276,-9.3108,-9.3302,-9.3727,-9.4037,-9.4037,-9.4191,-9.4462,-9.4617,-9.481,-9.4694,-9.481,-9.4772,-9.4539,-9.4694,-9.4965,-9.5584,-9.6358,-9.6474,-9.659,-9.6628,-9.6628,-9.6706,-9.6822,-9.6822,-9.6822,-9.6822,-9.6822,-9.6822,-9.6822,-9.6822,-9.6822,-9.6822,-9.6822,-9.6822,-9.6822,-9.6822,-9.6822,-9.6822,-9.6822,-9.6822,-9.6822,-9.6744,-8.7644,-8.8277,-8.7286,-8.7372,-8.8089,-8.8089,-8.9069,-9.0238,-9.0604,-9.1314,-9.2201,-9.2948,-9.3858,-9.4464,-9.4679,-9.4767,-9.4793,-9.4767,-9.4819,-9.4895,-9.4971,-9.507,-9.5215,-9.5379,-9.5516,-9.5582,-9.5713,-9.5818,-9.5859,-9.5818,-9.5648,-9.5425,-9.5448,-9.5333,-9.5286,-9.5333,-9.5356,-9.5509,-9.5664,-9.5814,-9.5959,-9.6039,-9.6136,-9.6251,-9.6172,-9.5865,-9.5095,-9.4941,-9.4554,-9.3855,-9.383,-9.3704,-9.3469,-9.3493,-9.3538,-9.3543,-9.3597,-9.3597,-9.3442,-9.2668,-9.1909,-9.1754,-9.187,-9.2064,-9.218,-9.187,-9.1754,-9.2025,-9.2605,-9.2876,-9.3108,-9.3495,-9.3688,-9.4037,-9.4191,-9.4423,-9.4655,-9.4617,-9.4849,-9.5274,-9.5506,-9.5661,-9.5777,-9.5816,-9.57,-9.5468,-9.5429,-9.5661,-9.6048,-9.6667,-9.6706,-9.6744,-9.6744,-9.6783,-9.6783,-9.6822,-9.6822,-9.6822,-9.6822,-9.6822,-9.6822,-9.6822,-9.6822,-9.6822,-9.6822,-9.6822,-9.6822,-9.6822,-9.6822,-9.6822,-9.6822,-9.6822,-9.6822,-9.6822,-9.6822,-8.8509,-8.8889,-8.9479,-8.9525,-8.9225,-8.9755,-9.0323,-9.1105,-9.2128,-9.3138,-9.3984,-9.4413,-9.4752,-9.5043,-9.507,-9.5094,-9.5143,-9.507,-9.5094,-9.5167,-9.5301,-9.5417,-9.5554,-9.5626,-9.5776,-9.5818,-9.5941,-9.6039,-9.6039,-9.6078,-9.6039,-9.5898,-9.5734,-9.5713,-9.5648,-9.5566,-9.5648,-9.5691,-9.5835,-9.5938,-9.6019,-9.6078,-9.6155,-9.6269,-9.6288,-9.6172,-9.5865,-9.5826,-9.5342,-9.4891,-9.475,-9.4596,-9.4343,-9.4311,-9.4317,-9.4346,-9.4385,-9.4385,-9.4307,-9.3611,-9.3263,-9.3224,-9.3263,-9.3147,-9.307,-9.3186,-9.3224,-9.3418,-9.3495,-9.3727,-9.3804,-9.4037,-9.4269,-9.4772,-9.5081,-9.5274,-9.5352,-9.539,-9.5506,-9.5932,-9.6203,-9.6396,-9.6551,-9.6667,-9.6512,-9.6358,-9.6358,-9.6358,-9.6628,-9.6822,-9.6822,-9.6822,-9.6822,-9.6822,-9.6822,-9.6822,-9.6822,-9.6822,-9.6822,-9.6822,-9.6822,-9.6822,-9.6822,-9.6822,-9.6822,-9.6822,-9.6822,-9.6822,-9.6822,-9.6822,-9.6822,-9.6822,-9.6822,-9.6822,-9.6822,-8.974,-9.0084,-9.1228,-9.1202,-9.0466,-9.1201,-9.1733,-9.2174,-9.3283,-9.4454,-9.5318,-9.5402,-9.5471,-9.5493,-9.5471,-9.5471,-9.5516,-9.5471,-9.5425,-9.5493,-9.5582,-9.5708,-9.5772,-9.5839,-9.5941,-9.5981,-9.6098,-9.6136,-9.6175,-9.6251,-9.6213,-9.6117,-9.6078,-9.6019,-9.588,-9.592,-9.592,-9.5862,-9.5941,-9.6019,-9.6098,-9.6136,-9.6174,-9.6288,-9.6288,-9.6288,-9.6229,-9.6171,-9.605,-9.5752,-9.5566,-9.5416,-9.5146,-9.4936,-9.4965,-9.4965,-9.4965,-9.4965,-9.4888,-9.4385,-9.423,-9.3998,-9.4037,-9.4075,-9.423,-9.423,-9.3959,-9.4075,-9.4307,-9.4578,-9.4617,-9.4965,-9.5313,-9.5855,-9.5893,-9.6048,-9.6241,-9.6319,-9.6435,-9.6628,-9.6744,-9.6744,-9.6744,-9.6822,-9.6744,-9.6628,-9.659,-9.659,-9.6667,-9.6822,-9.6822,-9.6822,-9.6822,-9.6822,-9.6822,-9.6822,-9.6822,-9.6822,-9.6822,-9.6822,-9.6822,-9.6822,-9.6822,-9.6822,-9.6822,-9.6822,-9.6822,-9.6822,-9.6822,-9.6822,-9.6822,-9.6822,-9.6822,-9.6822,-9.6822,-9.1298,-9.2104,-9.2199,-9.1956,-9.1697,-9.2337,-9.3098,-9.3678,-9.4098,-9.4752,-9.5615,-9.5759,-9.5839,-9.5859,-9.5797,-9.5797,-9.5839,-9.5839,-9.578,-9.578,-9.5839,-9.588,-9.592,-9.6039,-9.6098,-9.6117,-9.6174,-9.6251,-9.6308,-9.6269,-9.6269,-9.6269,-9.6232,-9.6136,-9.5941,-9.592,-9.592,-9.592,-9.602,-9.6098,-9.6136,-9.6193,-9.6269,-9.6288,-9.6288,-9.6288,-9.6288,-9.6322,-9.6257,-9.6266,-9.6326,-9.6329,-9.6328,-9.6343,-9.6396,-9.6435,-9.6512,-9.6551,-9.6551,-9.512,-9.4617,-9.4617,-9.481,-9.4694,-9.4423,-9.4346,-9.4539,-9.4888,-9.512,-9.5429,-9.5739,-9.6087,-9.6396,-9.6512,-9.6512,-9.6551,-9.6744,-9.6822,-9.6822,-9.6822,-9.6822,-9.6783,-9.6783,-9.6822,-9.6822,-9.6783,-9.6783,-9.6822,-9.6822,-9.6822,-9.6822,-9.6822,-9.6822,-9.6822,-9.6822,-9.6822,-9.6822,-9.6822,-9.6822,-9.6822,-9.6822,-9.6822,-9.6822,-9.6822,-9.6822,-9.6822,-9.6822,-9.6822,-9.6822,-9.6822,-9.6822,-9.6822,-9.6822,-9.6822,-9.6822,-9.1912,-9.2296,-9.3369,-9.3749,-9.3663,-9.391,-9.4216,-9.4543,-9.5045,-9.5508,-9.5762,-9.59,-9.5961,-9.5981,-9.5961,-9.5961,-9.6039,-9.592,-9.5862,-9.592,-9.5981,-9.6039,-9.6078,-9.6136,-9.6232,-9.6251,-9.6269,-9.6288,-9.6288,-9.6288,-9.6288,-9.6288,-9.6288,-9.6251,-9.6213,-9.6194,-9.6155,-9.6155,-9.6232,-9.6232,-9.6232,-9.6269,-9.6288,-9.6288,-9.6288,-9.6288,-9.6288,-9.634,-9.6446,-9.6492,-9.6629,-9.6746,-9.6807,-9.6822,-9.6822,-9.6822,-9.6822,-9.6822,-9.6783,-9.6125,-9.5971,-9.5855,-9.5777,-9.5739,-9.5893,-9.5932,-9.5932,-9.5855,-9.6009,-9.6241,-9.6474,-9.6551,-9.6706,-9.6706,-9.6706,-9.6744,-9.6822,-9.6822,-9.6822,-9.6822,-9.6822,-9.6822,-9.6822,-9.6822,-9.6822,-9.6822,-9.6822,-9.6822,-9.6822,-9.6822,-9.6822,-9.6822,-9.6822,-9.6822,-9.6822,-9.6822,-9.6822,-9.6822,-9.6822,-9.6822,-9.6822,-9.6822,-9.6822,-9.6822,-9.6822,-9.6822,-9.6822,-9.6822,-9.6822,-9.6822,-9.6822,-9.6822,-9.6822,-9.6822,-9.6822,-9.291,-9.3294,-9.4331,-9.5022,-9.5233,-9.5173,-9.5115,-9.527,-9.573,-9.5981,-9.6058,-9.6058,-9.6078,-9.6117,-9.6098,-9.6078,-9.6136,-9.6098,-9.602,-9.6058,-9.6117,-9.6136,-9.6213,-9.6251,-9.6269,-9.6288,-9.6288,-9.6288,-9.6288,-9.6288,-9.6288,-9.6288,-9.6288,-9.6269,-9.6269,-9.6269,-9.6269,-9.6269,-9.6269,-9.6269,-9.6269,-9.6288,-9.6288,-9.6288,-9.6288,-9.6288,-9.6325,-9.6358,-9.6425,-9.6509,-9.6645,-9.6761,-9.6807,-9.6822,-9.6822,-9.6822,-9.6822,-9.6822,-9.6783,-9.6744,-9.6551,-9.6628,-9.6822,-9.6822,-9.6822,-9.6628,-9.6628,-9.6667,-9.6822,-9.6783,-9.6783,-9.6822,-9.6822,-9.6822,-9.6822,-9.6822,-9.6822,-9.6822,-9.6822,-9.6822,-9.6822,-9.6822,-9.6822,-9.6822,-9.6822,-9.6822,-9.6822,-9.6822,-9.6822,-9.6822,-9.6822,-9.6822,-9.6822,-9.6822,-9.6822,-9.6822,-9.6822,-9.6822,-9.6822,-9.6822,-9.6822,-9.6822,-9.6822,-9.6822,-9.6822,-9.6822,-9.6822,-9.6822,-9.6822,-9.6822,-9.6822,-9.6822,-9.6822,-9.6822,-9.6822,-9.421,-9.496,-9.5037,-9.5557,-9.6135,-9.5943,-9.5942,-9.6059,-9.6098,-9.6194,-9.6269,-9.6251,-9.6251,-9.6269,-9.6269,-9.6269,-9.6269,-9.6251,-9.6251,-9.6251,-9.6251,-9.6269,-9.6269,-9.6269,-9.6288,-9.6288,-9.6288,-9.6288,-9.6288,-9.6288,-9.6288,-9.6288,-9.6288,-9.6288,-9.6288,-9.6288,-9.6288,-9.6288,-9.6288,-9.6288,-9.6288,-9.6288,-9.6288,-9.6288,-9.6288,-9.6306,-9.6361,-9.6411,-9.6497,-9.6597,-9.6692,-9.6753,-9.6822,-9.6822,-9.6822,-9.6822,-9.6822,-9.6822,-9.6822,-9.6822,-9.6822,-9.6822,-9.6822,-9.6822,-9.6822,-9.6822,-9.6822,-9.6822,-9.6822,-9.6822,-9.6822,-9.6822,-9.6822,-9.6822,-9.6822,-9.6822,-9.6822,-9.6822,-9.6822,-9.6822,-9.6822,-9.6822,-9.6822,-9.6822,-9.6976,-9.6822,-9.6822,-9.6822,-9.6822,-9.6822,-9.6822,-9.6822,-9.6822,-9.6822,-9.6822,-9.6822,-9.6822,-9.6822,-9.6822,-9.6822,-9.6822,-9.6822,-9.6822,-9.6822,-9.6822,-9.6822,-9.6822,-9.6822,-9.6822,-9.6822,-9.6822,-9.6822,-9.6822,-9.6822,-9.6822,-9.4749,-9.5057,-9.5672,-9.6057,-9.6269,-9.6232,-9.6213,-9.6251,-9.6251,-9.6269,-9.6288,-9.6288,-9.6288,-9.6288,-9.6288,-9.6288,-9.6288,-9.6288,-9.6288,-9.6288,-9.6288,-9.6288,-9.6326,-9.6365,-9.6326,-9.6365,-9.6365,-9.6403,-9.6326,-9.6326,-9.6288,-9.6288,-9.6288,-9.6288,-9.6288,-9.6288,-9.6365,-9.6326,-9.6365,-9.6288,-9.6288,-9.6288,-9.6288,-9.6288,-9.6288,-9.6306,-9.6358,-9.6463,-9.6548,-9.6645,-9.6723,-9.6822,-9.6822,-9.6822,-9.6822,-9.6822,-9.6822,-9.6822,-9.6822,-9.6822,-9.6822,-9.6822,-9.6822,-9.6822,-9.6822,-9.6822,-9.6822,-9.6822,-9.6822,-9.6822,-9.6822,-9.6822,-9.6822,-9.6822,-9.6822,-9.6822,-9.6822,-9.6822,-9.6822,-9.6822,-9.6822,-9.7054,-9.7015,-9.7131,-9.7247,-9.6976,-9.686,-9.6938,-9.686,-9.686,-9.6822,-9.6822,-9.6822,-9.6822,-9.6822,-9.6822,-9.6822,-9.6822,-9.6822,-9.6822,-9.6822,-9.6822,-9.6822,-9.6822,-9.6822,-9.6822,-9.6822,-9.6822,-9.6822,-9.6822,-9.6822,-9.6822,-9.6822,-9.6822,-9.6822,-9.5518,-9.5595,-9.6057,-9.6288,-9.6288,-9.6288,-9.6288,-9.6288,-9.6288,-9.6288,-9.6288,-9.6288,-9.6288,-9.6288,-9.6288,-9.6288,-9.6288,-9.6288,-9.6288,-9.6288,-9.6365,-9.6557,-9.6634,-9.6826,-9.7096,-9.7057,-9.6942,-9.6865,-9.6711,-9.6403,-9.6288,-9.6288,-9.6288,-9.6326,-9.6403,-9.6634,-9.6826,-9.6711,-9.6557,-9.6365,-9.6365,-9.6365,-9.6288,-9.6365,-9.6365,-9.642,-9.6471,-9.6557,-9.6619,-9.6699,-9.6777,-9.6822,-9.6822,-9.6822,-9.6822,-9.6822,-9.6822,-9.6822,-9.6822,-9.6822,-9.6822,-9.6822,-9.6822,-9.6822,-9.6822,-9.6822,-9.6822,-9.6822,-9.6822,-9.6822,-9.6822,-9.6822,-9.6822,-9.6822,-9.6822,-9.6822,-9.6822,-9.6822,-9.6822,-9.686,-9.7015,-9.7286,-9.7441,-9.7595,-9.7827,-9.8021,-9.7982,-9.7827,-9.7441,-9.7015,-9.6899,-9.6822,-9.6822,-9.6822,-9.6822,-9.6822,-9.6822,-9.6822,-9.6822,-9.6822,-9.6822,-9.6822,-9.6822,-9.6822,-9.6822,-9.6822,-9.6822,-9.6822,-9.6822,-9.6822,-9.6822,-9.6822,-9.6822,-9.6822,-9.6822,-9.6288,-9.6249,-9.6288,-9.6288,-9.6288,-9.6288,-9.6288,-9.6288,-9.6288,-9.6288,-9.6288,-9.6288,-9.6288,-9.6288,-9.6288,-9.6403,-9.6519,-9.6596,-9.6788,-9.6519,-9.6865,-9.7134,-9.748,-9.7634,-9.7865,-9.8173,-9.8134,-9.7634,-9.7403,-9.7211,-9.6903,-9.648,-9.6673,-9.6826,-9.7019,-9.7365,-9.7596,-9.7557,-9.7211,-9.6903,-9.6788,-9.6634,-9.6519,-9.6634,-9.6691,-9.6689,-9.6758,-9.6729,-9.6735,-9.6831,-9.6893,-9.7015,-9.6822,-9.6822,-9.6822,-9.6822,-9.6822,-9.6822,-9.6822,-9.6822,-9.6822,-9.6822,-9.6822,-9.6822,-9.6822,-9.6822,-9.6822,-9.6822,-9.6822,-9.6822,-9.6822,-9.6822,-9.6822,-9.6822,-9.6822,-9.6822,-9.6822,-9.6976,-9.7247,-9.7402,-9.7827,-9.806,-9.8214,-9.8369,-9.8485,-9.8949,-9.8988,-9.8678,-9.833,-9.7634,-9.7209,-9.7015,-9.6822,-9.6822,-9.6822,-9.6822,-9.6822,-9.6822,-9.6822,-9.6822,-9.6822,-9.6822,-9.6822,-9.6822,-9.6822,-9.6822,-9.6822,-9.6822,-9.6822,-9.6822,-9.6822,-9.6822,-9.6822,-9.6822,-9.6822,-9.6288,-9.6288,-9.6288,-9.6288,-9.6288,-9.6288,-9.6288,-9.6288,-9.6288,-9.6326,-9.6288,-9.6326,-9.6326,-9.6403,-9.648,-9.6711,-9.7134,-9.725,-9.7634,-9.7865,-9.798,-9.8019,-9.8442,-9.8519,-9.8711,-9.8634,-9.8557,-9.8481,-9.825,-9.8134,-9.8134,-9.8134,-9.8019,-9.7904,-9.7942,-9.8365,-9.8481,-9.8481,-9.8404,-9.8173,-9.8211,-9.8211,-9.8211,-9.8134,-9.8115,-9.8073,-9.8181,-9.8327,-9.8096,-9.7937,-9.7812,-9.7441,-9.686,-9.6822,-9.6822,-9.6822,-9.6822,-9.6822,-9.6822,-9.6822,-9.6822,-9.6822,-9.6822,-9.6822,-9.6822,-9.6822,-9.6822,-9.6822,-9.6822,-9.6822,-9.6822,-9.6822,-9.6822,-9.6822,-9.6822,-9.6822,-9.6822,-9.7247,-9.7673,-9.8137,-9.8601,-9.8872,-9.9027,-9.9181,-9.9259,-9.9297,-9.9259,-9.9143,-9.9181,-9.8717,-9.7943,-9.7595,-9.6976,-9.686,-9.6899,-9.6822,-9.6822,-9.6822,-9.6822,-9.6822,-9.6822,-9.6822,-9.6822,-9.6822,-9.6822,-9.6822,-9.6822,-9.6822,-9.6822,-9.6822,-9.6822,-9.6822,-9.6822,-9.6822,-9.6822,-9.6288,-9.6288,-9.6288,-9.6288,-9.6288,-9.6288,-9.648,-9.6788,-9.6826,-9.7057,-9.7288,-9.7019,-9.6826,-9.698,-9.7211,-9.7519,-9.8019,-9.8057,-9.825,-9.8634,-9.8981,-9.9019,-9.9173,-9.9404,-9.975,-9.975,-9.9404,-9.925,-9.8981,-9.875,-9.8711,-9.8865,-9.8865,-9.8865,-9.8904,-9.9096,-9.9365,-9.9365,-9.9635,-9.9788,-9.9673,-9.9327,-9.8865,-9.8788,-9.8865,-9.8939,-9.9008,-9.9094,-9.8946,-9.871,-9.8625,-9.8176,-9.7673,-9.7479,-9.7209,-9.6938,-9.6822,-9.6822,-9.686,-9.6899,-9.6938,-9.6938,-9.686,-9.6899,-9.6822,-9.6822,-9.6822,-9.6822,-9.6822,-9.6822,-9.6822,-9.6822,-9.6822,-9.6822,-9.6899,-9.6938,-9.7247,-9.7711,-9.8214,-9.8756,-9.9259,-9.98,-10.0071,-10.0535,-10.0613,-10.069,-10.0496,-10.0071,-9.9994,-9.9878,-9.9065,-9.8369,-9.7905,-9.7479,-9.7518,-9.7209,-9.6822,-9.6822,-9.7015,-9.6899,-9.6938,-9.686,-9.6822,-9.7015,-9.7015,-9.6822,-9.6822,-9.7054,-9.686,-9.6822,-9.6822,-9.6822,-9.686,-9.7015,-9.7015,-9.6288,-9.6288,-9.6442,-9.648,-9.648,-9.6596,-9.7057,-9.7596,-9.7673,-9.8057,-9.8557,-9.8096,-9.7827,-9.798,-9.8404,-9.8711,-9.8942,-9.8942,-9.9019,-9.9288,-9.9327,-9.975,-10.0096,-10.0289,-10.0558,-10.0673,-10.0442,-9.9904,-9.9442,-9.9442,-9.9442,-9.9173,-9.9135,-9.9135,-9.9365,-9.975,-10.025,-10.0366,-10.0635,-10.1058,-10.0635,-9.9981,-9.9519,-9.9211,-9.9115,-9.9228,-9.9355,-9.9442,-9.9525,-9.9297,-9.9243,-9.8794,-9.8485,-9.8214,-9.7905,-9.7634,-9.7518,-9.7479,-9.7363,-9.7479,-9.7363,-9.7247,-9.7092,-9.7131,-9.7131,-9.717,-9.717,-9.7131,-9.7131,-9.686,-9.686,-9.686,-9.686,-9.6899,-9.7015,-9.7209,-9.7711,-9.8292,-9.8911,-9.9491,-10.0032,-10.0651,-10.1038,-10.1502,-10.1696,-10.185,-10.1734,-10.1348,-10.0999,-10.0806,-10.0342,-9.9723,-9.922,-9.8833,-9.8369,-9.7943,-9.7479,-9.7634,-9.7827,-9.7402,-9.7209,-9.7595,-9.7673,-9.7441,-9.7402,-9.7479,-9.7479,-9.7673,-9.7402,-9.7209,-9.7518,-9.775,-9.7711,-9.775,-9.7479,-9.6288,-9.6365,-9.698,-9.7288,-9.7365,-9.798,-9.8442,-9.8519,-9.8557,-9.8673,-9.8981,-9.9442,-9.9288,-9.8557,-9.8673,-9.9096,-9.9827,-9.9827,-10.0366,-10.0789,-10.0481,-10.075,-10.0943,-10.0827,-10.1096,-10.1135,-10.1058,-10.0943,-10.0366,-10.0519,-10.075,-10.0635,-10.0712,-10.0712,-10.075,-10.1019,-10.0981,-10.1058,-10.1058,-10.1289,-10.1289,-10.0904,-10.0943,-10.0827,-10.0827,-10.0904,-10.1035,-10.1087,-10.0749,-10.0292,-9.9754,-9.9437,-9.9181,-9.9065,-9.8833,-9.8562,-9.8446,-9.8485,-9.8408,-9.8408,-9.8369,-9.8446,-9.8446,-9.8485,-9.8524,-9.8562,-9.8485,-9.8292,-9.806,-9.7209,-9.7015,-9.6976,-9.6976,-9.717,-9.7325,-9.7789,-9.8253,-9.9181,-10.0071,-10.0496,-10.0961,-10.1309,-10.1541,-10.1812,-10.1812,-10.1889,-10.1889,-10.158,-10.1541,-10.1541,-10.1464,-10.0961,-10.038,-9.9839,-9.922,-9.8949,-9.8601,-9.8717,-9.8678,-9.833,-9.833,-9.8794,-9.8794,-9.833,-9.8485,-9.8717,-9.864,-9.8292,-9.8485,-9.8485,-9.8756,-9.8911,-9.8756,-9.8524,-9.8292]},{"header":{"parameterUnit":"m.s-1","parameterCategory":1,"la1":31.0,"la2":29.5877,"lo1":-88.7671,"lo2":-86.6584,"dx":0.0162,"dy":0.0185,"nx":115,"ny":88,"refTime":"2023-01-13T06:00:00:Z","depth":0,"parameterNumber":3,"parameterNumberName":"V-component_of_WINDS"},"data":[0.0,0.0,0.0,0.0,0.0,0.0,0.0,0.0,0.0,0.0,0.0,0.0,0.0,0.0,0.0,0.0,0.0,0.0,0.0,0.0,0.0,0.0,0.0,0.0,0.0,0.0,0.0,0.0,0.0,0.0,0.0,0.0,0.0,0.0,0.0,0.0,0.0,0.0,0.0,0.0,0.0,0.0,0.0,0.0,0.0,0.0,0.0,0.0,0.0,0.0,0.0,0.0,0.0,0.0,0.0,0.0,0.0,0.0,0.0,0.0,0.0,0.0,0.0,0.0,0.0,0.0,0.0,0.0,0.0,0.0,0.0,0.0,0.0,0.0,0.0,0.0,0.0,0.0,0.0,0.0,0.0,0.0,0.0,0.0,0.0,0.0,0.0,0.0,0.0,0.0,0.0,0.0,0.0,0.0,0.0,0.0,0.0,0.0,0.0,0.0,0.0,0.0,0.0,0.0,0.0,0.0,0.0,0.0,0.0,0.0,0.0,0.0,0.0,0.0,0.0,0.0,0.0,0.0,0.0,0.0,0.0,0.0,0.0,0.0,0.0,0.0,0.0,0.0,0.0,0.0,0.0,0.0,0.0,0.0,0.0,0.0,0.0,0.0,0.0,0.0,0.0,0.0,0.0,0.0,0.0,0.0,0.0,0.0,0.0,0.0,0.0,0.0,0.0,0.0,0.0,0.0,0.0,0.0,0.0,0.0,0.0,0.0,0.0,0.0,0.0,0.0,0.0,0.0,0.0,0.0,0.0,0.0,0.0,0.0,0.0,0.0,0.0,0.0,0.0,0.0,0.0,0.0,0.0,0.0,0.0,0.0,0.0,0.0,0.0,0.0,0.0,0.0,0.0,0.0,0.0,0.0,0.0,0.0,0.0,0.0,0.0,0.0,0.0,0.0,0.0,0.0,0.0,0.0,0.0,0.0,0.0,0.0,0.0,0.0,0.0,0.0,0.0,0.0,0.0,0.0,0.0,0.0,0.0,0.0,0.0,0.0,0.0,0.0,0.0,0.0,0.0,0.0,0.0,0.0,0.0,0.0,0.0,0.0,0.0,0.0,0.0,0.0,0.0,0.0,0.0,0.0,0.0,0.0,0.0,0.0,0.0,0.0,0.0,0.0,0.0,0.0,0.0,0.0,0.0,0.0,0.0,0.0,0.0,0.0,0.0,0.0,0.0,0.0,0.0,0.0,0.0,0.0,0.0,0.0,0.0,0.0,0.0,0.0,0.0,0.0,0.0,0.0,0.0,0.0,0.0,0.0,0.0,0.0,0.0,0.0,0.0,0.0,0.0,0.0,0.0,0.0,0.0,0.0,0.0,0.0,0.0,0.0,0.0,0.0,0.0,0.0,0.0,0.0,0.0,0.0,0.0,0.0,0.0,0.0,0.0,0.0,0.0,0.0,0.0,0.0,0.0,0.0,0.0,0.0,0.0,0.0,0.0,0.0,0.0,0.0,0.0,0.0,0.0,0.0,0.0,0.0,0.0,0.0,0.0,0.0,0.0,0.0,0.0,0.0,0.0,0.0,0.0,0.0,0.0,0.0,0.0,0.0,0.0,0.0,0.0,0.0,0.0,0.0,0.0,0.0,0.0,0.0,0.0,0.0,0.0,0.0,0.0,0.0,0.0,0.0,0.0,0.0,0.0,0.0,0.0,0.0,0.0,0.0,0.0,0.0,0.0,0.0,0.0,0.0,0.0,0.0,0.0,0.0,0.0,0.0,0.0,0.0,0.0,0.0,0.0,0.0,0.0,0.0,0.0,0.0,0.0,0.0,0.0,0.0,0.0,0.0,0.0,0.0,0.0,0.0,0.0,0.0,0.0,0.0,0.0,0.0,0.0,0.0,0.0,0.0,0.0,0.0,0.0,0.0,0.0,0.0,0.0,0.0,0.0,0.0,0.0,0.0,0.0,0.0,0.0,0.0,0.0,0.0,0.0,0.0,0.0,0.0,0.0,0.0,0.0,0.0,0.0,0.0,0.0,0.0,0.0,0.0,0.0,0.0,0.0,0.0,0.0,0.0,0.0,0.0,0.0,0.0,0.0,0.0,0.0,0.0,0.0,0.0,0.0,0.0,0.0,0.0,0.0,0.0,0.0,0.0,0.0,0.0,0.0,0.0,0.0,0.0,0.0,0.0,0.0,0.0,0.0,0.0,0.0,0.0,0.0,0.0,0.0,0.0,0.0,0.0,0.0,0.0,0.0,0.0,0.0,0.0,0.0,0.0,0.0,0.0,0.0,0.0,0.0,0.0,0.0,0.0,0.0,0.0,0.0,0.0,0.0,0.0,0.0,0.0,0.0,0.0,0.0,0.0,0.0,0.0,0.0,0.0,0.0,0.0,0.0,0.0,0.0,0.0,0.0,0.0,0.0,0.0,0.0,0.0,0.0,0.0,0.0,0.0,0.0,0.0,0.0,0.0,0.0,0.0,0.0,0.0,0.0,0.0,0.0,0.0,0.0,0.0,0.0,0.0,0.0,0.0,0.0,0.0,0.0,0.0,0.0,0.0,0.0,0.0,0.0,0.0,0.0,0.0,0.0,0.0,0.0,0.0,0.0,0.0,0.0,0.0,0.0,0.0,0.0,0.0,0.0,0.0,0.0,0.0,0.0,0.0,0.0,0.0,0.0,0.0,0.0,0.0,0.0,0.0,0.0,0.0,0.0,0.0,0.0,0.0,0.0,0.0,0.0,0.0,0.0,0.0,0.0,0.0,0.0,0.0,0.0,0.0,0.0,0.0,0.0,0.0,0.0,0.0,0.0,0.0,0.0,0.0,0.0,0.0,0.0,0.0,0.0,0.0,0.0,0.0,0.0,0.0,0.0,0.0,0.0,0.0,0.0,0.0,0.0,0.0,0.0,0.0,0.0,0.0,0.0,0.0,0.0,0.0,0.0,0.0,0.0,0.0,0.0,0.0,0.0,0.0,0.0,0.0,0.0,0.0,0.0,0.0,0.0,0.0,0.0,0.0,0.0,0.0,0.0,0.0,0.0,0.0,0.0,0.0,0.0,0.0,0.0,0.0,0.0,0.0,0.0,0.0,0.0,0.0,0.0,0.0,0.0,0.0,0.0,0.0,0.0,0.0,0.0,0.0,0.0,0.0,0.0,0.0,0.0,0.0,0.0,0.0,0.0,0.0,0.0,0.0,0.0,0.0,0.0,0.0,0.0,0.0,0.0,0.0,0.0,0.0,0.0,0.0,0.0,0.0,0.0,0.0,0.0,0.0,0.0,0.0,0.0,0.0,0.0,0.0,0.0,0.0,0.0,0.0,0.0,0.0,0.0,0.0,0.0,0.0,0.0,0.0,0.0,0.0,0.0,0.0,0.0,0.0,0.0,0.0,0.0,0.0,0.0,0.0,0.0,0.0,0.0,0.0,0.0,0.0,0.0,0.0,0.0,0.0,0.0,0.0,0.0,0.0,0.0,0.0,0.0,0.0,0.0,0.0,0.0,0.0,0.0,0.0,0.0,0.0,0.0,0.0,0.0,0.0,0.0,0.0,0.0,0.0,0.0,0.0,0.0,0.0,0.0,0.0,0.0,0.0,0.0,0.0,0.0,0.0,0.0,0.0,0.0,0.0,0.0,0.0,0.0,0.0,0.0,0.0,0.0,0.0,0.0,0.0,0.0,0.0,0.0,0.0,0.0,0.0,0.0,0.0,0.0,0.0,0.0,0.0,0.0,0.0,0.0,0.0,0.0,0.0,0.0,0.0,0.0,0.0,0.0,0.0,0.0,0.0,0.0,0.0,0.0,0.0,0.0,0.0,0.0,0.0,0.0,0.0,0.0,0.0,0.0,0.0,0.0,0.0,0.0,0.0,0.0,0.0,0.0,0.0,0.0,0.0,0.0,0.0,0.0,0.0,0.0,0.0,0.0,0.0,0.0,0.0,0.0,0.0,0.0,0.0,0.0,0.0,0.0,0.0,0.0,0.0,0.0,0.0,0.0,0.0,0.0,0.0,0.0,0.0,0.0,0.0,0.0,0.0,0.0,0.0,0.0,0.0,0.0,0.0,0.0,0.0,0.0,0.0,0.0,0.0,0.0,0.0,0.0,0.0,0.0,0.0,0.0,0.0,0.0,0.0,0.0,0.0,0.0,0.0,0.0,0.0,0.0,0.0,0.0,0.0,0.0,0.0,0.0,0.0,0.0,0.0,0.0,0.0,0.0,0.0,0.0,0.0,0.0,0.0,0.0,0.0,0.0,0.0,0.0,0.0,0.0,0.0,0.0,0.0,0.0,0.0,0.0,0.0,0.0,0.0,0.0,0.0,0.7112,0.0,0.0,0.0,0.0,0.0,0.0,0.0,0.0,0.0,0.0,0.0,0.0,0.0,0.0,0.0,0.0,0.0,0.0,0.0,0.0,0.0,0.0,0.0,0.0,0.0,0.0,0.0,0.0,0.0,0.0,0.0,0.0,0.0,0.0,0.0,0.0,0.0,0.0,0.0,0.0,0.0,0.0,0.0,0.0,0.0,0.0,0.0,0.0,0.0,0.0,0.0,0.0,0.0,0.0,0.0,0.0,0.0,0.0,0.0,0.0,0.0,0.0,0.0,0.0,0.0,0.0,0.0,0.0,0.0,0.0,0.0,0.0,0.0,0.0,0.0,0.0,0.0,0.0,0.0,0.0,0.0,0.0,0.0,0.0,0.0,0.0,0.0,0.0,0.0,0.0,0.0,0.0,0.0,0.0,0.0,0.0,0.0,0.0,0.0,0.0,0.0,0.0,0.0,0.0,0.0,0.0,0.0,0.0,0.0,0.0,0.7112,0.7112,0.7112,0.7112,0.7112,0.0,0.0,0.0,0.0,0.0,0.0,0.0,0.0,0.0,0.0,0.0,0.0,0.0,0.0,0.0,0.0,0.0,0.0,0.0,0.0,0.0,0.0,0.0,0.0,0.0,0.0,0.0,0.0,0.0,0.0,0.0,0.0,0.0,0.0,0.0,0.0,0.0,0.0,0.0,0.0,0.0,0.0,0.0,0.0,0.0,0.0,0.0,0.0,0.0,0.0,0.0,0.0,0.0,0.0,0.0,0.0,0.0,0.0,0.0,0.0,0.0,0.0,0.0,0.0,0.0,0.0,0.0,0.0,0.0,0.0,0.0,0.0,0.0,0.0,0.0,0.0,0.0,0.0,0.0,0.0,0.0,0.0,0.0,0.0,0.0,0.0,0.0,0.0,0.0,0.0,0.0,0.0,0.0,0.0,0.0,0.0,0.0,0.0,0.0,0.0,0.0,0.0,0.0,0.0,0.0,0.0,0.0,0.0,0.0,0.0,0.0,0.0,0.7112,0.7112,0.7112,0.0,0.0,0.0,0.0,0.0,0.0,0.0,0.0,0.0,0.0,0.0,0.0,0.0,0.0,0.0,0.0,0.0,0.0,0.0,0.0,0.0,0.0,0.0,0.0,0.0,0.0,0.0,0.0,0.0,0.0,0.0,0.0,0.0,0.0,0.0,0.0,0.0,0.0,0.0,0.0,0.0,0.0,0.0,0.0,0.0,0.0,0.0,0.0,0.0,0.0,0.0,0.0,0.0,0.0,0.0,0.0,0.0,0.0,0.0,0.0,0.0,0.0,0.0,0.0,0.0,0.0,0.0,0.0,0.0,0.0,0.0,0.0,0.0,0.0,0.0,0.0,0.0,0.0,0.0,0.0,0.0,0.0,0.0,0.0,0.0,0.0,0.0,0.0,0.0,0.0,0.0,0.0,0.0,0.0,0.0,0.0,0.0,0.0,0.0,0.0,0.0,0.0,0.0,0.0,0.0,0.0,0.0,0.0,0.0,0.0,0.7112,0.7112,0.7112,0.0,0.7112,0.0,0.0,0.0,0.0,0.0,0.0,0.0,0.0,0.0,0.0,0.0,0.0,0.0,0.0,0.0,0.0,0.0,0.0,0.0,0.0,0.0,0.0,0.0,0.0,0.0,0.0,0.0,0.0,0.0,0.0,0.0,0.0,0.0,0.0,0.0,0.0,0.0,0.0,0.0,0.0,0.0,0.0,0.0,0.0,0.0,0.0,0.0,0.0,0.0,0.0,0.0,0.0,0.0,0.0,0.0,0.0,0.0,0.0,0.0,0.0,0.0,0.0,0.0,0.0,0.0,0.0,0.0,0.0,0.0,0.0,0.0,0.0,0.0,0.0,0.0,0.0,0.0,0.0,0.0,0.0,0.0,0.0,0.0,0.0,0.0,0.0,0.0,0.0,0.0,0.0,0.0,0.0,0.0,0.0,0.0,0.0,0.0,0.0,0.0,0.0,0.0,0.0,0.0,0.0,0.0,0.0,0.0,0.0,0.0,0.0,0.7112,0.7112,0.7112,0.7112,0.0,0.0,0.0,0.0,0.0,0.0,0.0,0.0,0.0,0.0,0.0,0.0,0.0,0.0,0.0,0.0,0.0,0.0,0.0,0.0,0.0,0.0,0.0,0.0,0.0,0.0,0.0,0.0,0.0,0.0,0.0,0.0,0.0,0.0,0.0,0.0,0.0,0.0,0.0,0.0,0.0,0.0,0.0,0.0,0.0,0.0,0.0,0.0,0.0,0.0,0.0,0.0,0.0,0.0,0.0,0.0,0.0,0.0,0.0,0.0,0.0,0.0,0.0,0.0,0.0,0.0,0.0,0.0,0.0,0.0,0.0,0.0,0.0,0.0,0.0,0.0,0.0,0.0,0.0,0.0,0.0,0.0,0.0,0.0,0.0,0.0,0.0,0.0,0.0,0.0,0.0,0.0,0.0,0.0,0.0,0.0,0.0,0.0,0.0,0.0,0.0,0.0,0.0,0.0,0.0,0.0,0.0,0.0,0.0,0.0,0.7112,0.7112,0.7112,0.7112,0.7112,0.7112,0.0,0.0,0.0,0.0,0.0,0.0,0.0,0.0,0.0,0.0,0.0,0.0,0.0,0.0,0.0,0.0,0.0,0.0,0.0,0.0,0.0,0.0,0.0,0.0,0.0,0.0,0.0,0.0,0.0,0.0,0.0,0.0,0.0,0.0,0.0,0.0,0.0,0.0,0.0,0.0,0.0,0.0,0.0,0.0,0.0,0.0,0.0,0.0,0.0,0.0,0.0,0.0,0.0,0.0,0.0,0.0,0.0,0.0,0.0,0.0,0.0,0.0,0.0,0.0,0.0,0.0,0.0,0.0,0.0,0.0,0.0,0.0,0.0,0.0,0.0,0.0,0.0,0.0,0.0,0.0,0.0,0.0,0.0,0.0,0.0,0.0,0.0,0.0,0.0,0.0,0.0,0.0,0.0,0.0,0.0,0.0,0.0,0.0,0.0,0.0,0.0,0.0,0.0,0.0,0.0,0.0,0.0,0.0,0.0,0.7112,0.7112,0.7112,0.7112,0.7112,0.0,0.0,0.0,0.0,0.0,0.0,0.0,0.0,0.0,0.0,0.0,0.0,0.0,0.0,0.0,0.0,0.0,0.0,0.0,0.0,0.0,0.0,0.0,0.0,0.0,0.0,0.0,0.0,0.0,0.0,0.0,0.0,0.0,0.0,0.0,0.0,0.0,0.0,0.0,0.0,0.0,0.0,0.0,0.0,0.0,0.0,0.0,0.0,0.0,0.0,0.0,0.0,0.0,0.0,0.0,0.0,0.0,0.0,0.0,0.0,0.0,0.0,0.0,0.0,0.0,0.0,0.0,0.0,0.0,0.0,0.0,0.0,0.0,0.0,0.0,0.0,0.0,0.0,0.0,0.0,0.0,0.0,0.0,0.0,0.0,0.0,0.0,0.0,0.0,0.0,0.0,0.0,0.0,0.0,0.0,0.0,0.0,0.0,0.0,0.0,0.0,0.0,0.0,0.0,0.0,0.0,0.0,0.0,0.0,0.723,0.7483,0.7616,0.7616,0.7533,0.7411,0.0,0.0,0.0,0.0,0.0,0.0,0.0,0.0,0.0,0.0,0.0,0.0,0.0,0.0,0.0,0.0,0.0,0.0,0.0,0.0,0.0,0.0,0.0,0.0,0.0,0.0,0.0,0.0,0.0,0.0,0.0,0.0,0.0,0.0,0.0,0.0,0.0,0.0,0.0,0.0,0.0,0.0,0.0,0.0,0.0,0.0,0.0,0.0,0.0,0.0,0.0,0.0,0.0,0.0,0.0,0.0,0.0,0.0,0.0,0.0,0.0,0.0,0.0,0.0,0.0,0.0,0.0,0.0,0.0,0.0,0.0,0.0,0.0,0.0,0.0,0.0,0.0,0.0,0.0,0.0,0.0,0.0,0.0,0.0,0.0,0.0,0.0,0.0,0.0,0.0,0.0,0.0,0.0,0.0,0.0,0.0,0.0,0.0,0.0,0.0,0.0,0.0,0.0,0.0,0.0,0.0,0.0,0.0,0.0,0.7627,0.0,0.8006,0.8035,0.7932,0.7762,0.0,0.0,0.0,0.0,0.0,0.0,0.0,0.0,0.0,0.0,0.0,0.0,0.0,0.0,0.0,0.0,0.0,0.0,0.0,0.0,0.0,0.0,0.0,0.0,0.0,0.0,0.0,0.0,0.0,0.0,0.0,0.0,0.0,0.0,0.0,0.0,0.0,0.0,0.0,0.0,0.0,0.0,0.0,0.0,0.0,0.0,0.0,0.0,0.0,0.0,0.0,0.0,0.0,0.0,0.0,0.0,0.0,0.0,0.0,0.0,0.0,0.0,0.0,0.0,0.0,0.0,0.0,0.0,0.0,0.0,0.0,0.0,0.0,0.0,0.0,0.0,0.0,0.0,0.0,0.0,0.0,0.0,0.0,0.0,0.0,0.0,0.0,0.0,0.0,0.0,0.0,0.0,0.0,0.0,0.0,0.0,0.0,0.0,0.0,0.0,0.0,0.0,0.0,0.0,0.0,0.0,0.0,0.0,0.7937,0.8287,0.8351,0.8433,0.8339,0.8351,0.8137,0.0,0.0,0.0,0.0,0.0,0.0,0.0,0.0,0.0,0.0,0.0,0.0,0.0,0.0,0.0,0.0,0.0,0.0,0.0,0.0,0.0,0.0,0.0,0.0,0.0,0.0,0.0,0.0,0.0,0.0,0.0,0.0,0.0,0.0,0.0,0.0,0.0,0.0,0.0,0.0,0.0,0.0,0.0,0.0,0.0,0.0,0.0,0.0,0.0,0.0,0.0,0.0,0.0,0.0,0.0,0.0,0.0,0.0,0.0,0.0,0.0,0.0,0.0,0.0,0.0,0.0,0.0,0.0,0.0,0.0,0.0,0.0,0.0,0.0,0.0,0.0,0.0,0.0,0.0,0.0,0.0,0.0,0.0,0.0,0.0,0.0,0.0,0.0,0.0,0.0,0.0,0.0,0.0,0.0,0.0,0.0,0.0,0.0,0.0,0.0,0.0,0.0,0.0,0.0,0.0,0.0,0.0,0.0,0.0,0.956,0.997,1.0168,1.0168,0.9754,0.9261,0.0,0.0,0.0,0.0,0.0,0.0,0.0,0.0,0.0,0.0,0.0,0.0,0.0,0.0,0.0,0.0,0.0,0.0,0.0,0.0,0.0,0.0,0.0,0.0,0.0,0.0,0.0,0.0,0.0,0.0,0.0,0.0,0.0,0.0,0.0,0.0,0.0,0.0,0.0,0.0,0.0,0.0,0.0,0.0,0.0,0.0,0.0,0.0,0.0,0.0,0.0,0.0,0.0,0.0,0.0,0.0,0.0,0.0,0.0,0.0,0.0,0.0,0.0,0.0,0.0,0.0,0.0,0.0,0.0,0.0,0.0,0.0,0.0,0.0,0.0,0.0,0.0,0.0,0.0,0.0,0.0,0.0,0.0,0.0,0.0,0.0,0.0,0.0,0.0,0.0,0.0,0.0,0.0,0.0,0.0,0.0,0.0,0.0,0.0,0.0,0.0,0.0,0.0,0.0,0.0,0.0,0.0,0.0,0.0,1.1626,1.1659,1.1619,1.1619,1.1087,1.0361,0.9479,0.0,0.0,0.0,0.0,0.0,0.0,0.0,0.0,0.0,0.0,0.0,0.0,0.0,0.0,0.0,0.0,0.0,0.0,0.0,0.0,0.0,0.0,0.0,0.0,0.0,0.0,0.0,0.0,0.0,0.0,0.0,0.0,0.0,0.0,0.0,0.0,0.0,0.0,0.0,0.0,0.0,0.0,0.0,0.0,0.0,0.0,0.0,0.0,0.0,0.0,0.0,0.0,0.0,0.0,0.0,0.0,0.0,0.0,0.0,0.0,0.0,0.0,0.0,0.0,0.0,0.0,0.0,0.0,0.0,0.0,0.0,0.0,0.0,0.0,0.0,0.0,0.0,0.0,0.0,0.0,0.0,0.0,0.0,0.0,0.0,0.0,0.0,0.0,0.0,0.0,0.0,0.0,0.0,0.0,0.0,0.0,0.0,0.0,0.0,0.0,0.0,0.0,0.0,0.0,0.0,0.0,0.0,0.0,1.4401,1.347,1.2919,1.2841,1.2335,1.1489,0.0,0.0,0.0,0.0,0.0,0.0,0.0,0.0,0.0,0.0,0.0,0.0,0.0,0.0,0.0,0.0,0.0,0.0,0.0,0.0,0.0,0.0,0.0,0.0,0.0,0.0,0.0,0.0,0.0,0.0,0.0,0.0,0.0,0.0,0.0,0.0,0.0,0.0,0.0,0.0,0.0,0.0,0.0,0.0,0.0,0.0,0.0,0.0,0.0,0.0,0.0,0.0,0.0,0.0,0.0,0.0,0.0,0.0,0.0,0.0,0.0,0.0,0.0,0.0,0.0,0.0,0.0,0.0,0.0,0.0,0.0,0.0,0.0,0.0,0.0,0.0,0.0,0.0,0.0,0.0,0.0,0.0,0.0,0.0,0.0,0.0,0.0,0.0,0.0,0.0,0.0,0.0,0.0,0.0,0.0,0.0,0.0,0.0,0.0,0.0,0.0,0.0,0.0,0.0,0.0,0.0,0.0,0.0,0.0,1.5676,1.5873,1.5424,1.4449,1.3959,1.2964,0.0,0.0,0.0,0.0,0.0,0.0,0.0,0.0,0.0,0.0,0.0,0.0,0.0,0.0,0.0,0.0,0.0,0.0,0.0,0.0,0.0,0.0,0.0,0.0,0.0,0.0,0.0,0.0,0.0,0.0,0.0,0.0,0.0,0.0,0.0,0.0,0.0,0.0,0.0,0.0,0.0,0.0,0.0,0.0,0.0,0.0,0.0,0.0,0.0,0.0,0.0,0.0,0.0,0.0,0.0,0.0,0.0,0.0,0.0,0.0,0.0,0.0,0.0,0.0,0.0,0.0,0.0,0.0,0.0,0.0,0.0,0.0,0.0,0.0,0.0,0.0,0.0,0.0,0.0,0.0,0.0,0.0,0.0,0.0,0.0,0.0,0.0,0.0,0.0,0.0,0.0,0.0,0.0,0.0,0.0,0.0,0.0,0.0,0.0,0.0,0.0,0.0,0.0,0.0,0.0,0.0,0.0,0.0,1.5385,1.7048,1.7594,1.7392,1.634,1.5431,1.4174,0.0,0.0,0.0,0.0,0.0,0.0,0.0,0.0,0.0,0.0,0.0,0.0,0.0,0.0,0.0,0.0,0.0,0.0,0.0,0.0,0.0,0.0,0.0,0.0,0.0,0.0,0.0,0.0,0.0,0.0,0.0,0.0,0.0,0.0,0.0,0.0,0.0,0.0,0.0,0.0,0.0,0.0,0.0,0.0,0.0,0.0,0.0,0.0,0.0,0.0,0.0,0.0,0.0,0.0,0.0,0.0,0.0,0.0,0.0,0.0,0.0,0.0,0.0,0.0,0.0,0.0,0.0,0.0,0.0,0.0,0.0,0.0,0.0,0.0,0.0,0.0,0.0,0.0,0.0,0.0,0.0,0.0,0.0,0.0,0.0,0.0,0.0,0.0,0.0,0.0,0.0,0.0,0.0,0.0,0.0,0.0,0.0,0.0,0.0,0.0,0.0,0.0,0.0,0.0,0.0,0.0,0.0,0.0,1.6497,1.8108,1.8772,1.8814,1.8218,1.6869,1.5246,0.0,0.0,0.0,0.0,0.0,0.0,0.0,0.0,0.0,0.0,0.0,0.0,0.0,0.0,0.0,0.0,0.0,0.0,0.0,0.0,0.0,0.0,0.0,0.0,0.0,0.0,0.0,0.0,0.0,0.0,0.0,0.0,0.0,0.0,0.0,0.0,0.0,0.0,0.0,0.0,0.0,0.0,0.0,0.0,0.0,0.0,0.0,0.0,0.0,0.0,0.0,0.0,0.0,0.0,0.0,0.0,0.0,0.0,0.0,0.0,0.0,0.0,0.0,0.0,0.0,0.0,0.0,0.0,0.0,0.0,0.0,0.0,0.0,0.0,0.0,0.0,0.0,0.0,0.0,0.0,0.0,0.0,0.0,0.0,0.0,0.0,0.0,0.0,0.0,0.0,0.0,0.0,0.0,0.0,0.0,0.0,0.0,0.0,0.0,0.0,0.0,0.0,0.0,0.0,0.0,0.0,0.0,0.0,1.7159,1.837,1.9237,1.9493,1.9164,1.8122,1.6496,0.0,0.0,0.0,0.0,0.0,0.0,0.0,0.0,0.0,0.0,0.0,0.0,0.0,0.0,0.0,0.0,0.0,0.0,0.0,0.0,0.0,0.0,0.0,0.0,0.0,0.0,0.0,0.0,0.0,0.0,0.0,0.0,0.0,0.0,0.0,0.0,0.0,0.0,0.0,0.0,0.0,0.0,0.0,0.0,0.0,0.0,0.0,0.0,0.7602,0.0,0.0,0.0,0.0,0.0,0.0,0.0,0.0,0.0,0.0,0.0,0.0,0.0,0.0,0.0,0.0,0.0,0.0,0.0,0.0,0.0,0.0,0.0,0.0,0.0,0.0,0.0,0.0,0.0,0.0,0.0,0.0,0.0,0.0,0.0,0.0,0.0,0.0,0.0,0.0,0.0,0.0,0.0,0.0,0.0,0.0,0.0,0.0,0.0,0.0,0.0,0.0,0.0,0.0,0.0,0.0,0.0,0.0,0.0,1.8028,1.9331,2.0089,2.0259,1.9836,1.9222,1.7694,0.0,0.0,0.0,0.0,0.0,0.0,0.0,0.0,0.0,0.0,0.0,0.0,0.0,0.0,0.0,0.0,0.0,0.0,0.0,0.0,0.0,0.0,0.0,0.0,0.0,0.0,0.0,0.0,0.0,0.0,0.0,0.0,0.0,0.0,0.0,0.0,0.0,0.0,0.0,0.0,0.0,0.0,0.0,0.0,0.0,0.0,0.0,0.0,0.0,0.0,0.0,0.0,0.0,0.0,0.0,0.0,0.0,0.0,0.0,0.0,0.0,0.0,0.0,0.0,0.0,0.0,0.0,0.0,0.0,0.0,0.0,0.0,0.0,0.0,0.0,0.0,0.0,0.0,0.0,0.0,0.0,0.0,0.0,0.0,0.0,0.0,0.0,0.0,0.0,0.0,0.0,0.0,0.0,0.0,0.0,0.0,0.0,0.0,0.0,0.0,0.0,0.0,0.0,0.0,0.0,0.0,0.0,1.7206,1.8905,2.0171,2.084,2.0883,2.0296,2.0046,1.8632,1.5868,0.0,0.0,0.0,0.0,0.0,0.0,0.0,0.0,0.0,0.0,0.0,0.0,0.0,0.0,0.0,0.0,0.0,0.0,0.0,0.0,0.0,0.0,0.0,0.0,0.0,0.0,0.0,0.0,0.0,0.0,0.0,0.0,0.0,0.0,0.0,0.0,0.0,0.0,0.7241,0.7952,0.0,0.0,0.0,0.0,0.0,0.0,0.0,0.0,0.9197,0.0,0.0,0.0,0.0,0.0,0.0,0.0,0.0,0.0,0.0,0.0,0.0,0.0,0.0,0.0,0.0,0.0,0.0,0.0,0.0,0.0,0.0,0.0,0.0,0.0,0.0,0.0,0.0,0.0,0.0,0.0,0.0,0.0,0.0,0.0,0.0,0.0,0.0,0.0,0.0,0.0,0.0,0.0,0.0,0.0,0.0,0.0,0.0,0.0,0.0,0.0,0.0,0.0,0.0,0.0,0.0,1.5498,1.7903,1.9427,1.9866,2.0757,2.091,2.0323,1.9962,1.8789,1.6663,0.0,0.0,0.0,0.0,0.0,0.0,0.0,0.0,0.0,0.0,0.0,0.0,0.0,0.0,0.0,0.0,0.0,0.0,0.0,0.0,0.0,0.0,0.0,0.0,0.0,0.0,0.0,0.0,0.0,0.0,0.0,0.0,0.0,0.0,0.0,0.0,0.0,0.0,0.0,0.8667,0.9017,0.0,0.0,0.0,0.0,0.0,0.0,0.0,0.0,0.9236,0.0,0.0,0.0,0.0,0.0,0.0,0.0,0.0,0.0,0.0,0.0,0.0,0.0,0.0,0.0,0.0,0.0,0.0,0.0,0.0,0.0,0.0,0.0,0.0,0.0,0.0,0.0,0.0,0.0,0.0,0.0,0.0,0.0,0.0,0.0,0.0,0.0,0.0,0.0,0.0,0.0,0.0,0.0,0.0,0.0,0.0,0.0,0.0,0.0,0.0,0.0,0.0,0.0,0.0,0.0,1.6292,1.8355,1.973,2.0493,2.0975,2.1058,2.0786,2.011,1.8854,0.0,0.0,0.0,0.0,0.0,0.0,0.0,0.0,0.0,0.0,0.0,0.0,0.0,0.0,0.0,0.0,0.0,0.0,0.0,0.0,0.0,0.0,0.0,0.0,0.0,0.0,0.0,0.0,0.0,0.0,0.0,0.0,0.0,0.0,0.0,0.0,0.0,0.0,0.0,0.0,0.8928,0.933,0.9423,0.0,0.0,0.0,0.0,0.0,0.0,1.0046,0.986,0.0,0.0,0.0,0.0,0.0,0.0,0.0,0.0,0.0,0.0,0.0,0.0,0.0,0.0,0.0,0.0,0.0,0.0,0.0,0.0,0.0,0.0,0.0,0.0,0.0,0.0,0.0,0.0,0.0,0.0,0.0,0.0,0.0,0.0,0.0,0.0,0.0,0.0,0.0,0.0,0.0,0.0,0.0,0.0,0.0,0.0,0.0,0.0,0.0,0.0,0.0,0.0,0.0,0.0,0.0,1.7062,1.877,2.012,2.1156,2.1251,2.1265,2.1183,2.0308,1.89,0.0,0.0,0.0,0.0,0.0,0.0,0.0,0.0,0.0,0.0,0.0,0.0,0.0,0.0,0.0,0.0,0.0,0.0,0.0,0.0,0.0,0.0,0.0,0.0,0.0,0.0,0.0,0.0,0.0,0.0,0.0,0.0,0.0,0.0,0.0,0.0,0.0,0.0,0.0,0.0,0.0,0.9633,0.977,1.0128,0.0,0.0,0.0,0.0,1.0858,1.0826,0.0,0.0,0.0,0.0,0.0,0.0,0.0,0.0,0.0,0.0,0.0,0.0,0.0,0.0,0.0,0.0,0.0,0.0,0.0,0.0,0.0,0.0,0.0,0.0,0.0,0.0,0.0,0.0,0.0,0.0,0.0,0.0,0.0,0.0,0.0,0.0,0.0,0.0,0.0,0.0,0.0,0.0,0.0,0.0,0.0,0.0,0.0,0.0,0.0,0.0,0.0,0.0,0.0,0.0,0.0,0.0,1.7584,1.9549,2.0695,2.1105,2.1373,2.1387,2.1119,2.0262,1.8874,0.0,0.0,0.0,0.0,0.0,0.0,0.0,0.0,0.0,0.0,0.0,0.0,0.0,0.0,0.0,0.0,0.0,0.0,0.0,0.0,0.0,0.0,0.0,0.0,0.0,0.0,0.0,0.0,0.0,0.0,0.0,0.0,0.0,0.0,0.0,0.0,0.0,0.0,0.0,0.0,0.0,1.0136,1.0269,1.0722,1.1102,0.0,0.0,1.1403,1.1403,1.1265,0.0,0.0,0.0,0.0,0.0,0.0,0.0,0.0,0.0,0.0,0.0,0.0,0.0,0.0,0.0,0.0,0.0,0.0,0.0,0.0,0.0,0.0,0.0,0.0,0.0,0.0,0.0,0.0,0.0,0.0,0.0,0.0,0.0,0.0,0.0,0.0,0.0,0.0,0.0,0.0,0.0,0.0,0.0,0.0,0.0,0.0,0.0,0.0,0.0,0.0,0.0,0.0,0.0,0.0,0.0,1.5983,1.7904,1.9773,2.0895,2.1349,2.1643,2.1657,2.1363,2.0446,1.9076,0.0,0.0,0.0,0.0,0.0,0.0,0.0,0.0,0.0,0.0,0.0,0.0,0.0,0.0,0.0,0.0,0.0,0.0,0.0,0.0,0.0,0.0,0.0,0.0,0.0,0.0,0.0,0.0,0.0,0.0,0.0,0.0,0.0,0.0,0.0,0.0,0.0,0.0,0.0,0.0,0.0,0.0,1.0956,1.1411,0.0,0.0,0.0,1.2101,1.2101,0.0,0.0,0.0,0.0,0.0,0.0,0.0,0.0,0.0,0.0,0.0,0.0,0.0,0.0,0.0,0.0,0.0,0.0,0.0,0.0,0.0,0.0,0.0,0.0,0.0,0.0,0.0,0.0,0.0,0.0,0.0,0.0,0.0,0.0,0.0,0.0,0.0,0.0,0.0,0.0,0.0,0.0,0.0,0.0,0.0,0.0,0.0,0.0,0.0,0.0,0.0,0.0,0.0,0.0,0.0,0.0,0.0,1.8391,2.009,2.1176,2.175,2.1977,2.1991,2.1777,2.0682,0.0,0.0,0.0,0.0,0.0,0.0,0.0,0.0,0.0,0.0,0.0,0.0,0.0,0.0,0.0,0.0,0.0,0.0,0.0,0.0,0.0,0.0,0.0,0.0,0.0,0.0,0.0,0.6408,0.0,0.0,0.0,0.0,0.0,0.0,0.0,0.0,0.0,0.0,0.0,0.0,0.0,0.0,1.0737,1.1581,1.2004,1.2296,0.0,0.0,1.2735,1.2645,1.2304,1.189,0.0,0.0,0.0,0.0,0.0,0.0,0.0,0.0,0.0,0.0,0.0,0.0,0.0,0.0,0.0,0.0,0.0,0.0,0.0,0.0,0.0,0.0,0.0,0.0,0.0,0.0,0.0,0.0,0.0,0.0,0.0,0.0,0.0,0.0,0.0,0.0,0.0,0.0,0.0,0.0,0.0,0.0,0.0,0.0,0.0,0.0,0.0,0.0,0.0,0.0,0.0,0.0,0.0,0.0,0.0,1.9188,2.0777,2.1764,2.2338,2.2378,2.2378,2.2338,2.089,1.9612,0.0,0.0,0.0,0.0,0.0,0.0,0.0,0.0,0.0,0.0,0.0,0.0,0.0,0.0,0.0,0.0,0.0,0.0,0.0,0.0,0.0,0.0,0.0,0.0,0.0,0.0,0.0,0.0,0.0,0.0,0.0,0.0,0.0,0.0,0.0,0.0,0.0,0.0,0.0,0.0,0.0,1.1419,1.215,1.2556,1.2848,0.0,0.0,1.3206,1.2873,1.2726,1.2532,1.1849,0.0,0.0,0.0,0.0,0.0,0.0,0.0,0.0,0.0,0.0,0.0,0.0,0.0,0.0,0.0,0.0,0.0,0.0,0.0,0.0,0.0,0.0,0.0,0.0,0.0,0.0,0.0,0.0,0.0,0.0,0.0,0.0,0.0,0.0,0.0,0.0,0.0,0.0,0.0,0.0,0.0,0.0,0.0,0.0,0.0,0.0,0.0,0.0,0.0,0.0,0.0,0.0,0.0,1.7173,1.929,2.0843,2.199,2.2645,2.2686,2.2699,2.2699,2.1712,2.0515,0.0,0.0,0.0,0.0,0.0,0.0,0.0,0.0,0.0,0.0,0.0,0.0,0.0,0.0,0.0,0.0,0.0,0.0,0.0,0.0,0.0,0.0,0.0,0.0,0.0,0.0,0.0,0.0,0.8503,0.8771,0.8723,0.0,0.0,0.0,0.0,0.0,0.0,0.0,0.0,0.0,0.0,1.1149,1.1823,1.2199,0.0,0.0,1.3144,1.3213,1.3291,1.3051,1.2702,1.232,1.1727,0.0,0.0,0.0,0.0,0.0,0.0,0.0,0.0,0.0,0.0,0.0,0.0,0.0,0.0,0.0,0.0,0.0,0.0,0.0,0.0,0.0,0.0,0.0,0.0,0.0,0.0,0.0,0.0,0.0,0.0,0.0,0.0,0.0,0.0,0.0,0.0,0.0,0.0,0.0,0.0,0.0,0.0,0.0,0.0,0.0,0.0,0.0,0.0,0.0,0.0,0.0,0.0,1.769,1.9685,2.1239,2.2351,2.2993,2.3086,2.314,2.3196,2.2424,2.1393,0.0,0.0,0.0,0.0,0.0,0.0,0.0,0.0,0.0,0.0,0.0,0.0,0.0,0.0,0.0,0.0,0.0,0.0,0.0,0.0,0.0,0.0,0.0,0.0,0.0,0.0,0.0,0.0,0.9104,0.9218,0.8934,0.0,0.0,0.0,0.0,0.0,0.0,0.0,0.0,0.0,0.0,1.1199,1.1836,1.2125,1.2472,1.2919,1.3013,1.3138,1.3372,1.3046,1.2669,1.2562,0.0,0.0,0.0,0.0,0.0,0.0,0.0,0.0,0.0,0.0,0.0,0.0,0.0,0.0,0.0,0.0,0.0,0.0,0.0,0.0,0.0,0.0,0.0,0.0,0.0,0.0,0.0,0.0,0.0,0.0,0.9174,0.0,0.0,0.0,0.0,0.0,0.0,0.0,0.0,0.0,0.0,0.0,0.0,0.0,0.0,0.0,0.0,0.0,0.0,0.0,0.0,0.0,0.0,0.0,2.054,2.2029,2.2979,2.3327,2.3594,2.3741,2.3728,2.2889,2.2099,2.1302,0.0,0.0,0.0,0.0,0.0,0.0,0.0,0.0,0.0,0.0,0.0,0.0,0.0,0.0,0.0,0.0,0.0,0.0,0.0,0.0,0.0,0.0,0.0,0.0,0.0,0.0,0.9762,0.991,0.9657,0.0,0.0,0.0,0.0,0.0,0.0,0.0,0.0,0.0,0.0,1.1347,1.1688,1.2326,1.2507,1.2567,1.2794,1.2817,1.2907,1.3115,1.2788,1.2534,0.0,0.0,0.0,0.0,0.0,0.0,0.0,0.0,0.0,0.0,0.0,0.0,0.0,0.0,0.0,0.0,0.0,0.0,0.0,0.0,0.0,0.0,0.0,0.0,0.0,0.0,0.0,1.2871,1.2438,0.0,0.0,0.0,0.0,0.0,0.0,0.0,0.0,0.0,0.0,0.0,1.5535,1.5455,0.0,0.0,0.0,0.0,0.0,0.0,0.0,0.0,0.0,0.0,0.0,0.0,1.9271,2.0821,2.2174,2.3207,2.3875,2.3821,2.3861,2.4048,2.3603,2.2723,2.1433,0.0,0.0,0.0,0.0,0.0,0.0,0.0,0.0,0.0,0.0,0.0,0.0,0.0,0.0,0.0,0.0,0.0,0.0,0.0,0.0,0.0,0.0,0.0,0.0,0.0,0.9721,0.0,0.0,0.0,0.0,0.0,0.0,0.0,0.0,0.0,0.0,0.0,1.041,1.0913,1.1181,1.1391,1.1699,1.1832,1.1987,0.0,0.0,0.0,0.0,0.0,0.0,0.0,0.0,0.0,0.0,0.0,0.0,0.0,0.0,0.9924,0.9598,0.9598,0.9632,0.9691,0.0,0.0,0.0,0.0,0.0,0.0,0.0,0.0,0.0,0.0,0.0,0.0,0.0,0.0,0.0,0.0,1.436,0.0,0.0,0.0,0.0,0.0,0.0,0.0,0.0,1.7138,1.7649,1.784,1.7733,1.7649,0.0,1.7469,1.6744,0.0,0.0,0.0,0.0,0.0,0.0,0.0,0.0,2.0017,2.1468,2.2704,2.3607,2.4168,2.4115,2.4155,2.4342,2.3931,2.3117,2.1932,2.0347,1.8833,0.0,0.0,0.0,0.0,0.0,0.0,0.0,0.0,0.0,0.0,0.0,0.0,0.0,0.0,0.0,0.0,0.0,0.0,0.0,0.0,0.0,0.0,0.0,1.0493,0.0,0.0,0.0,0.0,0.0,0.0,0.0,0.0,0.0,1.0291,1.035,1.0622,1.1003,1.1241,1.1375,1.1525,0.0,0.0,0.0,0.0,0.0,0.0,0.0,1.2453,1.2619,1.2344,1.1979,1.1829,1.1543,1.1342,1.1342,0.0,0.0,1.0364,1.0299,1.0318,1.0375,1.0451,1.0633,1.0815,1.0997,1.1241,0.0,0.0,0.0,0.0,0.0,0.0,0.0,0.0,1.7648,1.7652,0.0,1.6808,0.0,0.0,0.0,0.0,0.0,1.7111,0.0,0.0,1.9424,2.0003,2.0196,2.0196,2.0259,2.0272,2.0196,2.017,2.0005,1.7433,0.0,0.0,0.0,0.0,0.0,0.0,2.1224,2.2418,2.3625,2.4222,2.4275,2.4529,2.4663,2.4589,2.4003,2.3366,2.2806,2.1602,2.0385,1.9237,1.7718,0.0,0.0,0.0,0.0,0.0,0.0,0.0,0.0,0.0,0.0,0.0,0.0,0.0,0.0,0.0,0.0,0.0,0.0,0.0,0.0,1.1216,0.0,0.0,0.0,0.0,0.0,0.0,0.0,0.0,0.0,0.0,1.0447,1.0721,1.1063,1.1391,0.0,0.0,0.0,0.0,1.206,1.2128,1.2135,1.2216,1.2508,1.2291,1.2223,1.2529,0.0,0.0,1.1681,1.1647,1.1626,1.1633,1.1606,1.1473,1.1,1.073,1.0568,1.0704,1.0989,1.1202,1.1276,1.1512,1.1791,2.0823,0.0,0.0,0.0,0.0,1.9622,1.9561,1.9408,1.9681,1.9614,1.9343,1.9016,0.0,0.0,0.0,0.0,0.0,0.0,1.9788,2.028,2.0958,2.1347,2.1424,2.1424,2.1424,2.1424,2.1424,2.1424,2.1344,2.0608,1.9873,1.9312,0.0,0.0,0.0,0.0,2.2375,2.334,2.413,2.4716,2.513,2.5224,2.5264,2.5264,2.4621,2.4143,2.3752,2.2499,2.1383,2.0422,1.8699,0.0,0.0,0.0,0.0,0.0,0.0,0.0,0.0,0.0,0.0,0.0,0.0,0.0,0.0,0.0,0.0,0.0,0.0,0.0,1.1337,1.1618,1.1495,0.0,0.0,0.0,0.0,0.0,0.0,0.0,0.0,0.0,1.1104,1.1214,1.1343,0.0,0.0,1.1952,1.1993,1.2033,1.206,1.206,0.0,0.0,0.0,1.2388,1.249,1.267,1.2579,1.2454,1.242,1.2244,1.2101,1.2094,1.2006,1.193,1.1811,1.1507,1.1321,1.1355,1.1432,1.1573,1.1783,1.1924,1.2163,2.2767,2.1871,2.1443,2.1203,2.1136,2.1416,2.1485,2.1305,2.1476,2.1411,2.1267,2.0968,2.076,2.0553,2.0,0.0,0.0,0.0,2.1398,2.1726,2.2501,2.2845,2.2845,2.2962,2.3014,2.3014,2.293,2.293,2.3014,2.3119,2.291,2.2388,0.0,0.0,2.2194,2.2688,2.334,2.4209,2.4688,2.5157,2.5504,2.5518,2.5518,2.5504,2.517,2.4781,2.4512,2.3528,2.2492,2.1597,2.0141,1.8565,0.0,0.0,0.0,0.0,0.0,0.0,0.0,0.0,0.0,0.0,0.0,0.8926,0.0,0.0,0.0,0.0,1.1169,1.1542,1.1991,1.1972,0.0,0.0,0.0,0.0,0.0,0.0,0.0,1.0919,1.13,1.1621,1.1708,1.185,1.1945,1.2006,1.2142,1.2257,1.2318,0.0,1.242,1.242,1.2494,1.2556,1.2556,1.263,1.2718,1.2807,1.282,1.282,1.2813,1.2671,1.2562,1.2542,1.2481,1.242,1.2497,1.2271,1.2088,1.1925,1.1932,1.2039,1.2261,1.2268,1.237,2.3834,2.3794,2.326,2.2846,2.2552,2.2819,2.2995,2.2939,2.3008,2.3008,2.2939,2.2664,2.2526,2.2457,2.2207,0.0,2.2095,2.267,2.2954,2.3038,2.3891,2.4315,2.4315,2.4569,2.4703,2.4703,2.4629,2.4703,2.4642,2.497,2.5117,2.5077,2.3184,2.2582,2.336,2.3707,2.4275,2.5144,2.5438,2.5611,2.5651,2.5625,2.5611,2.5625,2.5571,2.5424,2.5157,2.4477,2.3676,2.2675,2.1765,2.0299,1.83,0.0,0.0,0.0,0.0,0.0,0.0,0.0,0.0,0.0,0.0,0.0,0.0,0.0,0.0,0.0,1.1826,0.0,1.2444,1.2233,0.0,0.0,0.0,1.1424,1.1439,1.1328,1.14,1.1684,0.0,0.0,1.2291,0.0,1.2671,1.2413,1.2474,1.2589,1.2732,1.2868,1.2976,1.3029,1.2996,1.301,1.3017,1.3037,1.3064,1.3071,1.3024,1.303,1.3024,1.2976,1.3063,1.2956,1.2969,1.3022,1.3036,1.2995,1.2854,1.2461,1.2461,1.2528,1.2515,1.2515,1.267,2.4436,2.4436,2.4516,2.4128,2.346,2.3527,2.3554,2.3554,2.3624,2.3554,2.3554,2.3483,2.3271,2.3072,2.3437,2.3458,2.3268,2.4129,2.4589,2.4602,2.5037,2.5197,2.5197,2.5277,2.5304,2.5304,2.5304,2.5304,2.5304,2.5371,2.5411,2.5384,2.4913,2.4732,2.494,2.5006,2.5295,2.5745,2.6039,2.64,2.6827,2.6627,2.6507,2.6507,2.6079,2.5825,2.5745,2.4568,2.3753,2.3248,2.1652,2.0179,1.9003,1.7172,0.0,0.0,0.0,0.0,0.0,0.0,0.0,0.0,0.0,1.0296,1.0985,0.0,1.1325,0.0,1.2164,1.2359,1.2388,1.2237,0.0,0.0,1.1649,1.1559,1.1566,1.1729,1.1914,1.1983,1.2319,1.2542,1.2617,1.2881,1.3085,1.3125,1.2969,1.2868,1.2908,1.303,1.3125,1.3146,1.3322,1.3471,1.3464,1.3559,1.3614,1.3627,1.3539,1.3471,1.3471,1.3268,1.3125,1.3119,1.303,1.2969,1.2976,1.3044,1.3139,1.3119,1.299,1.2854,1.2854,1.2854,1.2934,2.5024,2.5037,2.5211,2.4997,2.4543,2.4543,2.4543,2.4543,2.4543,2.4543,2.4543,2.4543,2.4395,2.4261,2.4642,2.4634,2.4512,2.5042,2.5277,2.5291,2.5571,2.5785,2.5905,2.6039,2.6159,2.6293,2.6293,2.6293,2.6293,2.6293,2.6293,2.6293,2.6293,2.6293,2.6279,2.6039,2.6052,2.6333,2.6627,2.6934,2.7241,2.7108,2.6961,2.6814,2.6507,2.6213,2.6037,2.4982,2.4149,2.3629,2.2226,2.0876,1.976,1.8092,1.6506,0.0,0.0,0.0,0.0,0.0,0.0,0.0,0.0,0.0,0.0,0.0,1.1902,1.2248,1.2237,1.2365,1.26,1.2328,1.2194,1.2115,1.206,1.2013,1.2013,1.2216,1.2386,1.2531,1.2793,1.3051,1.3125,1.3329,1.3498,1.3587,1.3458,1.3349,1.3356,1.3424,1.3471,1.3478,1.3614,1.3722,1.3722,1.379,1.3752,1.3831,1.3777,1.3722,1.3722,1.3587,1.3471,1.3464,1.3403,1.3356,1.3356,1.341,1.3505,1.3546,1.3464,1.3363,1.3356,1.3356,1.3349,2.5531,2.5571,2.5571,2.5585,2.5625,2.5625,2.5585,2.5518,2.5518,2.5518,2.5518,2.5518,2.5518,2.5518,2.5545,2.5598,2.5625,2.5665,2.5705,2.5758,2.5999,2.6253,2.6507,2.676,2.7014,2.7268,2.735,2.735,2.735,2.7308,2.7321,2.7321,2.7362,2.7457,2.7362,2.6907,2.6774,2.6987,2.7241,2.7415,2.7495,2.7415,2.7255,2.7001,2.6921,2.6627,2.6014,2.5243,2.4483,2.382,2.2918,2.169,2.0325,1.9008,1.7523,0.0,1.4428,0.0,0.0,0.0,0.0,0.0,0.0,0.0,0.0,1.2261,1.2467,1.2611,1.236,1.2361,1.2887,1.2602,1.2433,1.2569,1.2589,1.2589,1.2623,1.2752,1.2895,1.303,1.3288,1.3512,1.362,1.3797,1.3899,1.3905,1.3946,1.3953,1.3953,1.3919,1.3885,1.3813,1.3933,1.4,1.3966,1.3946,1.3939,1.3919,1.3885,1.3871,1.3871,1.3844,1.3824,1.3824,1.3804,1.381,1.3752,1.3824,1.3838,1.3851,1.3844,1.3831,1.3804,1.3783,1.3752,2.5651,2.5879,2.5956,2.6012,2.6226,2.6226,2.5959,2.5518,2.5518,2.5518,2.5518,2.5518,2.5518,2.5531,2.5758,2.5999,2.6239,2.6466,2.6707,2.6934,2.6987,2.7135,2.7108,2.7161,2.7215,2.7268,2.735,2.735,2.735,2.7509,2.7615,2.7629,2.7856,2.806,2.8073,0.0,0.0,0.0,2.8033,2.8217,2.8671,2.8217,2.8033,2.7883,2.7428,0.0,2.6187,2.5092,2.4261,2.3507,2.2319,0.0,0.0,0.0,0.0,0.0,0.0,0.0,0.0,0.0,0.0,0.0,1.313,1.3044,1.2365,1.2351,1.2354,1.2476,1.2528,1.2671,1.2972,1.2913,1.2895,1.3024,1.3044,1.3091,1.3214,1.3363,1.3478,1.3498,1.3654,1.377,1.3738,1.4041,1.4211,1.4224,1.4421,1.4557,1.455,1.4346,1.4217,1.4224,1.438,1.4502,1.4401,1.4373,1.4319,1.4238,1.4102,1.4041,1.4034,1.3939,1.3772,1.3865,1.3752,1.3858,1.3772,1.3752,1.3912,1.4007,1.4034,1.3994,1.3865,1.3759,1.3752,2.6239,0.0,2.6547,2.6694,0.0,2.6814,2.6653,2.636,2.6066,2.6026,2.6172,2.6319,2.6386,2.6386,2.6533,2.668,2.6827,2.6974,2.7121,2.7268,2.735,2.7335,2.7482,2.7482,2.7562,2.7709,2.7856,2.7936,2.7936,2.8217,2.8364,2.8364,2.8511,2.8591,2.8591,2.8479,2.8479,2.8591,2.8591,2.8738,2.9018,2.8738,2.8358,2.791,0.0,0.0,0.0,0.0,0.0,0.0,0.0,0.0,0.0,0.0,0.0,1.6657,1.5644,1.4838,1.4172,1.3961,1.3788,1.3346,1.3424,1.3236,1.2764,1.2595,1.2569,1.2718,1.2861,1.301,1.3166,1.3241,1.3349,1.3478,1.3505,1.3539,1.3607,1.3682,1.3797,1.3939,1.4021,1.4116,1.4265,1.4407,1.4509,1.4523,1.4638,1.4746,1.4726,1.4618,1.4516,1.4516,1.4624,1.4713,1.4645,1.4624,1.4604,1.4523,1.4455,1.4407,1.4401,1.434,1.4197,1.4197,1.4285,1.4285,1.4197,1.4285,1.4312,1.438,1.4401,1.438,1.4285,1.417,1.4068,2.6894,2.6921,2.7161,2.735,2.735,2.735,2.735,2.7241,0.0,0.0,0.0,2.7161,2.735,2.735,2.735,2.7295,2.7335,2.7253,2.7293,2.7333,2.7251,2.7301,2.7526,2.7579,2.7724,2.8061,2.8281,2.8426,2.8439,2.8717,2.885,2.8863,2.8903,2.8956,2.8921,2.8608,2.8634,2.9075,2.8929,2.8876,2.8929,2.889,2.8451,2.7636,2.7571,2.7019,2.5873,2.4812,2.4054,2.3421,2.2155,2.1065,2.0274,1.9024,1.7948,1.6982,1.6018,1.5143,1.4446,1.4291,1.4074,1.3715,1.3476,1.3246,1.3219,1.2982,1.2901,1.303,1.3193,1.3342,1.3464,1.3587,1.3722,1.3865,1.3905,1.3926,1.396,1.3987,1.4116,1.4326,1.4373,1.4462,1.4679,1.4746,1.478,1.4787,1.4814,1.4814,1.4814,1.4794,1.478,1.4814,1.4848,1.4828,1.4787,1.478,1.4774,1.4726,1.4719,1.474,1.474,1.474,1.474,1.4685,1.4733,1.4713,1.4726,1.4692,1.474,1.474,1.474,1.474,1.4719,1.455,1.438,2.7201,2.7201,2.7255,2.735,2.735,2.735,2.735,2.7255,2.7175,2.7175,2.7201,2.7255,2.735,2.735,2.735,2.7402,2.7629,2.7227,2.7205,0.0,2.7091,2.6863,2.6914,2.7145,2.7273,2.7337,2.7618,2.7759,2.7797,2.804,2.8181,2.8207,2.8424,2.8655,2.8898,2.9037,2.9151,2.9243,2.854,2.8296,2.8527,2.8296,2.8054,2.7965,2.7735,2.6908,2.5519,2.4949,2.394,2.2222,2.1669,2.0631,1.9255,1.8808,1.7971,1.6593,1.5855,1.5281,1.4725,1.44,1.4062,1.3798,1.3547,1.3431,1.3481,1.339,1.3315,1.3349,1.358,1.3756,1.3783,1.3725,1.3892,1.4034,1.4156,1.4278,1.4387,1.4509,1.4597,1.4658,1.4679,1.4679,1.476,1.4869,1.4936,1.4957,1.5025,1.5113,1.5099,1.5011,1.4997,1.5086,1.512,1.5072,1.497,1.4936,1.4896,1.476,1.476,1.4774,1.4774,1.4774,1.4774,1.4746,1.4774,1.476,1.476,1.474,1.4767,1.4774,1.4774,1.4767,1.4774,1.4713,1.4679,2.7495,2.7522,2.7669,2.7819,2.7819,2.7736,2.7666,2.7416,2.7416,2.749,2.7522,2.7669,2.7652,2.7416,2.7416,2.7315,2.7181,2.7013,2.7012,2.7268,2.7097,2.7101,2.7254,2.7381,2.7444,2.7457,2.7649,2.7776,2.7902,2.8296,2.8513,2.8525,2.8792,2.8891,2.8661,2.8786,2.8743,2.8452,2.8657,2.8729,2.8703,2.8576,2.809,2.7254,2.7118,2.6443,2.5109,2.4387,2.3369,2.2033,2.1074,1.9978,1.8736,1.8217,1.746,1.6551,1.5964,1.5428,1.4682,1.4261,1.3964,1.3783,1.3684,1.3671,1.3694,1.3643,1.3641,1.3648,1.3838,1.4,1.4082,1.4156,1.4265,1.4414,1.4502,1.4563,1.4624,1.4692,1.4767,1.4848,1.4862,1.4896,1.497,1.5038,1.5086,1.5099,1.5208,1.533,1.5411,1.5371,1.5289,1.5208,1.5181,1.516,1.5099,1.5086,1.5052,1.4984,1.4977,1.4977,1.4977,1.4984,1.4977,1.4977,1.4984,1.4977,1.4977,1.4984,1.4977,1.4977,1.4977,1.4977,1.4977,1.4977,1.4923,2.7802,2.7829,2.8127,2.815,2.8065,2.8065,2.7852,2.7395,2.7395,2.7487,2.7693,2.7857,2.7643,2.7402,2.7369,2.7225,2.6897,2.6863,2.6929,2.7106,2.7032,2.7071,2.7285,2.7347,2.7385,2.7423,2.7661,2.7825,2.7925,2.8327,2.8553,2.8641,2.8892,2.8831,2.847,2.8531,2.838,2.8086,2.8743,2.8955,2.8628,2.8524,2.7854,2.684,2.6551,2.5858,2.4732,2.3762,2.2747,2.1736,2.0482,1.937,1.8379,1.7588,1.6947,1.6347,1.5848,1.5205,1.4443,1.4016,1.3858,1.3892,1.3926,1.396,1.3987,1.3941,1.4014,1.3973,1.4122,1.4278,1.4387,1.4489,1.4611,1.4726,1.4774,1.4787,1.4794,1.4821,1.4882,1.4997,1.5018,1.5072,1.5194,1.5235,1.5248,1.5303,1.5391,1.5513,1.5615,1.5635,1.5527,1.5377,1.5282,1.5303,1.5282,1.5289,1.5289,1.5282,1.5282,1.5282,1.5282,1.5282,1.5282,1.5289,1.5289,1.5289,1.5289,1.5289,1.5269,1.5235,1.5215,1.5215,1.516,1.516,1.5113,2.8181,2.8194,2.8221,2.7981,2.7585,2.7585,2.7473,2.7238,2.7251,2.7391,2.7518,2.7183,2.6893,2.6906,2.7149,2.7165,2.7104,2.6997,2.6859,2.6884,2.6445,2.6282,2.6455,2.6573,2.6694,2.673,2.705,2.7293,2.75,2.7597,2.7638,2.7868,2.8135,2.8363,2.8292,2.851,2.8536,2.8548,2.8644,2.8389,2.7905,2.7402,2.711,2.6969,2.6272,2.5386,2.4215,2.3454,2.2332,2.0757,2.0012,1.9096,1.7861,1.7322,1.6713,1.5828,1.5038,1.4358,1.3937,1.3838,1.3926,1.4041,1.4183,1.4312,1.4428,1.457,1.4536,1.4373,1.4509,1.4645,1.4699,1.4713,1.4733,1.478,1.4875,1.495,1.4964,1.5065,1.5147,1.516,1.5167,1.5221,1.5357,1.5391,1.5445,1.556,1.5594,1.5635,1.5676,1.5683,1.5683,1.5615,1.5594,1.5588,1.5574,1.5594,1.5554,1.5567,1.5588,1.556,1.5547,1.5554,1.5588,1.5506,1.556,1.5547,1.556,1.5588,1.5527,1.5411,1.5371,1.5343,1.5228,1.5181,1.5147,2.8234,2.8248,2.8337,2.8254,2.7969,2.7737,2.7355,2.7022,2.7022,2.691,2.6721,2.6512,2.6587,2.6859,2.6972,2.6847,2.6586,2.6521,2.658,2.6726,2.656,2.6544,2.6701,2.681,2.6942,2.7099,2.7208,2.7389,2.7642,2.7811,2.8017,2.827,2.8403,2.8451,2.8463,2.8572,2.862,2.862,2.862,2.8512,2.8211,2.757,2.7039,2.6513,2.5754,2.4905,2.4029,2.2808,2.1573,2.0537,1.9323,1.8209,1.7203,1.6783,1.6175,1.5539,1.4984,1.4551,1.4373,1.4373,1.4401,1.4468,1.4523,1.459,1.4645,1.4787,1.4821,1.4733,1.4726,1.4774,1.4862,1.4875,1.4909,1.4991,1.5059,1.5092,1.5099,1.5147,1.5208,1.5296,1.5316,1.5377,1.5506,1.5547,1.5608,1.573,1.5764,1.5791,1.5872,1.59,1.59,1.59,1.59,1.5818,1.5696,1.5635,1.5642,1.5642,1.5635,1.5635,1.5649,1.5635,1.5635,1.5642,1.5655,1.5655,1.5622,1.5635,1.5608,1.5533,1.5445,1.5364,1.5215,1.5181,1.5181,2.8323,2.8417,2.8459,2.8312,2.8059,2.7635,2.7159,2.6869,2.6781,2.6641,2.6435,2.6435,2.6625,2.6879,2.6817,2.6604,2.6339,2.6411,2.6544,2.6737,2.6749,2.6846,2.7027,2.7111,2.7232,2.7401,2.7498,2.7574,2.7733,2.7996,2.8129,2.8212,2.8236,2.8224,2.8236,2.8139,2.8236,2.8332,2.8332,2.8428,2.8296,2.7663,2.7083,2.6436,2.5316,2.4335,2.366,2.2228,2.0916,2.002,1.8617,1.7543,1.6773,1.6217,1.5785,1.5294,1.4922,1.474,1.474,1.474,1.474,1.474,1.4774,1.4801,1.4828,1.4943,1.5025,1.5018,1.493,1.4923,1.5004,1.5031,1.5079,1.5167,1.5181,1.5194,1.5235,1.5248,1.5309,1.5445,1.5472,1.5527,1.5662,1.5737,1.5811,1.5893,1.592,1.5947,1.6049,1.6069,1.6069,1.6083,1.6076,1.5995,1.5805,1.5784,1.5764,1.5764,1.5784,1.5784,1.5764,1.5764,1.5764,1.5845,1.5778,1.5771,1.5818,1.5791,1.5723,1.5669,1.5554,1.5404,1.5289,1.5228,1.5187,2.8751,2.8891,2.8483,2.8059,2.7622,2.7122,2.6842,2.6616,2.6629,2.6761,2.6942,2.6966,2.6979,2.6942,2.6803,2.6616,2.6653,2.6858,2.6954,2.6991,2.6991,2.7015,2.7039,2.728,2.7413,2.751,2.761,2.7651,2.7451,2.7686,2.7634,2.726,2.726,2.7164,2.726,2.7249,2.7453,2.7839,2.7839,2.7839,2.7742,2.7334,2.7021,2.688,2.5356,2.4002,2.302,2.1676,2.041,1.8871,1.8121,1.7261,1.6386,1.5946,1.5462,1.4879,1.476,1.4753,1.476,1.4767,1.4767,1.4767,1.4889,1.4964,1.497,1.5092,1.5174,1.5174,1.5167,1.5174,1.5187,1.5187,1.5181,1.5194,1.5201,1.5269,1.5384,1.5404,1.5472,1.5594,1.5642,1.5703,1.5832,1.5974,1.6015,1.6049,1.6062,1.6069,1.6069,1.6083,1.6083,1.6083,1.6083,1.6069,1.6056,1.5995,1.6008,1.6001,1.5967,1.6022,1.6056,1.6062,1.6049,1.6035,1.6001,1.6001,1.6042,1.6022,1.594,1.5825,1.5622,1.5472,1.5418,1.5276,1.5228,2.8884,2.8784,2.8344,2.7902,2.7608,2.7186,2.6887,2.6882,2.6894,2.6942,2.7015,2.7027,2.7027,2.7027,2.693,2.6894,2.6894,2.6991,2.7027,2.7027,2.7027,2.7123,2.7292,2.7377,2.7618,2.7814,2.7652,2.7439,2.7195,2.7311,2.7249,2.7152,2.7067,2.7067,2.7067,2.7067,2.7152,2.7357,2.7345,2.7357,2.726,2.6874,2.6595,2.6487,2.4948,2.384,2.316,2.1601,2.0149,1.8979,1.7943,1.7091,1.6405,1.5834,1.5513,1.5187,1.5167,1.5126,1.5045,1.5025,1.5025,1.5025,1.5072,1.5113,1.5133,1.5235,1.533,1.5337,1.5425,1.5472,1.5452,1.5391,1.533,1.5337,1.5418,1.5486,1.554,1.556,1.5615,1.575,1.5852,1.5947,1.5974,1.6049,1.6083,1.6083,1.6083,1.6083,1.6083,1.6083,1.6083,1.6083,1.6083,1.6083,1.6083,1.6076,1.6076,1.6076,1.6069,1.6062,1.6076,1.5983,1.5963,1.5857,1.5977,1.5877,1.587,1.5864,1.5817,1.5801,1.5599,1.5421,1.5574,1.5241,1.5167,2.8991,2.8793,2.8182,2.7835,2.7636,2.7208,2.7027,2.7027,2.7027,2.7027,2.7027,2.7027,2.7027,2.7027,2.7027,2.7027,2.7027,2.7027,2.7027,2.7039,2.7123,2.7244,2.7425,2.7594,2.7848,2.8079,2.7736,2.7291,2.6851,2.6681,2.6487,2.6282,2.6186,2.6089,2.6089,2.6282,2.6379,2.6573,2.6766,2.6874,2.6777,2.6498,2.6111,2.5723,2.4643,2.3658,2.2974,2.1475,1.9958,1.8654,1.7733,1.6942,1.6222,1.5835,1.5594,1.5499,1.5486,1.5445,1.535,1.533,1.533,1.533,1.533,1.533,1.5337,1.5425,1.5472,1.5506,1.5567,1.5635,1.5628,1.5581,1.5533,1.5506,1.5581,1.5662,1.5703,1.571,1.5778,1.59,1.6001,1.6069,1.6083,1.6076,1.6083,1.6083,1.5983,1.5884,1.5877,1.5678,1.5578,1.5578,1.5479,1.5479,1.5479,1.5379,1.5778,1.5877,1.5977,1.5977,1.5877,1.5877,1.5778,1.5678,1.5578,1.5578,1.5578,1.5578,1.5526,1.5539,1.525,1.497,1.4996,1.5002,1.4937,2.9169,2.8976,2.8088,2.7715,2.7558,2.7208,2.7027,2.7027,2.7027,2.7027,2.7027,2.7027,2.7027,2.7027,2.7027,2.7027,2.7027,2.7027,2.7051,2.7087,2.7292,2.7425,2.7522,2.792,2.8055,2.8068,2.7805,2.7152,2.6197,2.5809,2.5324,2.473,2.4448,2.4341,2.4146,2.4633,2.5022,2.5518,2.5906,2.6208,2.6305,2.6111,2.5615,2.4838,2.4146,2.3365,2.2387,2.1397,1.9914,1.8031,1.7508,1.6865,1.589,1.5683,1.5655,1.5649,1.5642,1.5635,1.5622,1.5601,1.5588,1.5588,1.5615,1.5588,1.5581,1.5622,1.5642,1.5642,1.5662,1.5669,1.5696,1.5771,1.5784,1.5669,1.5676,1.5744,1.5825,1.5852,1.5906,1.6029,1.6083,1.6076,1.6076,1.5977,1.5877,1.5778,1.5578,1.528,1.528,1.4975,1.4676,1.4576,1.4775,1.4881,1.4676,1.4576,1.518,1.5678,1.5778,1.5778,1.5379,1.528,1.518,1.5074,1.4981,1.4975,1.4975,1.4975,1.4875,1.4812,1.4552,1.4601,1.4649,1.458,1.4407,2.9002,2.8655,2.801,2.7468,2.7208,2.7027,2.7027,2.7027,2.7027,2.7027,2.7027,2.7027,2.7027,2.7027,2.7027,2.7027,2.7027,2.7039,2.7123,2.7292,2.7389,2.7618,2.7932,2.8125,2.7914,2.741,2.7021,2.6197,2.5324,2.5032,2.474,2.4253,2.4048,2.3951,2.3853,2.4146,2.4351,2.4448,2.4643,2.474,2.474,2.474,2.4546,2.4156,2.3365,2.2583,2.1906,2.1219,1.984,1.7764,1.762,1.7075,1.6144,1.5947,1.5893,1.5798,1.5784,1.5737,1.5655,1.5642,1.5649,1.5642,1.5642,1.5635,1.5649,1.5737,1.5784,1.5798,1.5879,1.5947,1.5954,1.5981,1.594,1.5805,1.5879,1.594,1.5981,1.6001,1.6029,1.6069,1.5784,1.5578,1.5479,1.528,1.5081,1.5081,1.4875,1.4782,1.4676,1.4582,1.4476,1.4476,1.4476,1.4377,1.4277,1.4177,1.4482,1.4981,1.5081,1.518,1.4881,1.4682,1.4576,1.4476,1.4377,1.4377,1.4377,1.4377,1.4277,1.4377,1.4427,1.4409,1.4403,1.4243,1.3956,2.8642,2.8204,2.7649,2.7299,2.7027,2.7027,2.7027,2.7027,2.7027,2.7027,2.7027,2.7027,2.7027,2.7027,2.7027,2.7027,2.7039,2.7123,2.7317,2.7534,2.757,2.7811,2.8186,2.8128,2.7758,2.7129,2.6595,2.5712,2.473,2.4546,2.4146,2.3463,2.317,2.2974,2.2877,2.2974,2.317,2.3375,2.3668,2.3756,2.3961,2.3951,2.3853,2.3365,2.2779,2.1995,2.1121,2.053,1.9437,1.7962,1.7375,1.6779,1.6182,1.6069,1.6035,1.5967,1.5934,1.59,1.5811,1.5818,1.5805,1.5805,1.5798,1.5805,1.5818,1.59,1.5934,1.5954,1.6015,1.6083,1.6076,1.6076,1.6035,1.5954,1.6015,1.6076,1.6083,1.6083,1.5977,1.5784,1.5479,1.528,1.4981,1.4782,1.4476,1.4476,1.4277,1.4183,1.4183,1.3983,1.3983,1.3884,1.3784,1.3684,1.3784,1.3884,1.3884,1.4077,1.4377,1.4383,1.4283,1.4183,1.4083,1.3784,1.3684,1.3584,1.3684,1.3684,1.3684,1.3884,1.3983,1.3766,1.3643,1.3626,1.3469,2.8204,2.7649,2.7208,2.7027,2.7027,2.7027,2.7027,2.7027,2.7027,2.7027,2.7027,2.7027,2.7027,2.7039,2.7075,2.7087,2.7111,2.7341,2.7582,2.7775,2.7848,2.7993,2.8175,2.7889,2.7515,2.7056,2.6487,2.5615,2.4643,2.4243,2.3473,2.2485,2.1995,2.1415,2.1317,2.1406,2.1897,2.2289,2.2779,2.318,2.3561,2.3658,2.3277,2.2387,2.2093,2.1406,2.0226,1.9339,1.8647,1.7672,1.6672,1.6182,1.6083,1.6083,1.6076,1.6062,1.6076,1.6062,1.6069,1.6029,1.6035,1.6035,1.6029,1.6076,1.6042,1.6035,1.6049,1.6056,1.6069,1.6083,1.6083,1.6083,1.6076,1.6076,1.6076,1.6083,1.6083,1.5983,1.5778,1.5379,1.518,1.4981,1.4476,1.4383,1.4277,1.4177,1.3884,1.3684,1.359,1.3384,1.309,1.309,1.3184,1.3284,1.3384,1.3384,1.3384,1.3484,1.3684,1.3784,1.379,1.369,1.359,1.3284,1.3084,1.3084,1.2984,1.319,1.319,1.329,1.319,1.299,1.2979,1.3156,1.3251,2.783,2.7636,2.7208,2.7027,2.7027,2.7027,2.7027,2.7027,2.7027,2.7027,2.7027,2.7027,2.7039,2.7051,2.7232,2.7317,2.7377,2.7594,2.7848,2.8065,2.8101,2.8258,2.8272,2.7696,2.7249,2.6971,2.6197,2.5129,2.4253,2.4048,2.3277,2.1897,2.1603,2.1308,2.0924,2.0915,2.1022,2.1219,2.1317,2.1514,2.1701,2.171,2.1514,2.1317,2.0826,2.0226,1.9339,1.8152,1.7459,1.7169,1.6474,1.6083,1.6083,1.6083,1.6083,1.6083,1.6083,1.6083,1.6083,1.6083,1.6083,1.6083,1.6083,1.6083,1.6083,1.6083,1.6083,1.6083,1.6083,1.6083,1.6083,1.6083,1.6083,1.6083,1.5983,1.5884,1.5678,1.5479,1.528,1.4782,1.4383,1.4183,1.3884,1.3684,1.3384,1.3384,1.3284,1.3184,1.319,1.309,1.289,1.289,1.299,1.299,1.299,1.299,1.299,1.299,1.309,1.319,1.319,1.319,1.309,1.299,1.299,1.299,1.299,1.299,1.289,1.289,1.289,1.289,1.289,1.2979,1.2973,2.7558,2.7377,2.7118,2.7027,2.7027,2.7027,2.7027,2.7027,2.7027,2.7027,2.7027,2.7027,2.7087,2.7208,2.7353,2.7486,2.7606,2.786,2.8053,2.8186,2.8318,2.8463,2.8392,2.7742,2.726,2.7067,2.6197,2.5227,2.4243,2.3951,2.2974,2.1603,2.1317,2.0924,2.0136,2.0136,2.0243,2.0432,2.0432,2.053,2.0826,2.0826,2.053,2.0226,1.9733,1.924,1.8251,1.736,1.6871,1.6772,1.6374,1.6083,1.6083,1.6083,1.6083,1.6083,1.6083,1.6083,1.6083,1.6083,1.6083,1.6083,1.6083,1.6083,1.6083,1.6083,1.6083,1.6083,1.6083,1.6083,1.6083,1.5884,1.5784,1.5678,1.5578,1.5379,1.528,1.5081,1.4682,1.4283,1.3884,1.359,1.339,1.3084,1.299,1.289,1.299,1.299,1.299,1.289,1.289,1.289,1.289,1.289,1.289,1.289,1.289,1.289,1.289,1.289,1.289,1.289,1.289,1.289,1.289,1.289,1.289,1.289,1.289,1.289,1.289,1.289,1.289,1.289,1.289,2.7377,2.7027,2.7027,2.7027,2.7027,2.7027,2.7027,2.7027,2.7027,2.7051,2.7087,2.7075,2.7244,2.7461,2.7558,2.7642,2.7872,2.8125,2.8222,2.8343,2.8475,2.8632,2.8596,2.8055,2.755,2.7079,2.6606,2.5474,2.4531,2.414,2.3062,2.173,2.1129,2.041,1.9867,1.9544,1.9618,1.9949,2.0065,2.0238,2.0402,2.0393,1.9981,1.9339,1.8845,1.8251,1.736,1.6864,1.6772,1.6772,1.6381,1.6182,1.6083,1.6083,1.6083,1.6083,1.6083,1.6083,1.6083,1.6083,1.6083,1.6083,1.6083,1.6083,1.6083,1.6083,1.6083,1.6083,1.6083,1.5877,1.5784,1.5479,1.528,1.518,1.4782,1.4676,1.4875,1.4682,1.4183,1.369,1.359,1.339,1.309,1.289,1.289,1.289,1.289,1.289,1.289,1.289,1.289,1.289,1.289,1.289,1.289,1.289,1.289,1.289,1.289,1.289,1.289,1.289,1.289,1.289,1.289,1.289,1.289,1.289,1.289,1.289,1.289,1.289,1.289,1.289,1.289,2.7118,2.7027,2.7027,2.7027,2.7027,2.7027,2.7027,2.7027,2.7039,2.716,2.7292,2.7329,2.7486,2.7739,2.7908,2.8077,2.8149,2.8391,2.8536,2.8536,2.8584,2.8753,2.8644,2.8173,2.7573,2.7136,2.6797,2.5994,2.5043,2.4465,2.3868,2.266,2.1622,2.0972,2.0351,1.9831,1.9771,1.9872,1.9864,1.9874,1.9775,1.9451,1.9096,1.8587,1.7855,1.736,1.6963,1.6474,1.6275,1.6282,1.6182,1.6083,1.6083,1.6083,1.6083,1.6083,1.6083,1.6083,1.6083,1.6083,1.6083,1.6083,1.6083,1.6083,1.6083,1.6083,1.6083,1.5977,1.5778,1.5379,1.4981,1.4775,1.4682,1.4582,1.4183,1.3884,1.3983,1.3983,1.369,1.329,1.309,1.299,1.289,1.289,1.289,1.289,1.289,1.289,1.289,1.289,1.289,1.289,1.289,1.289,1.289,1.2895,1.2912,1.2922,1.2928,1.2955,1.2955,1.2939,1.296,1.2933,1.289,1.2895,1.2917,1.289,1.289,1.289,1.289,1.289,1.289,1.289,1.289,2.7027,2.7027,2.7027,2.7027,2.7027,2.7027,2.7027,2.7063,2.7172,2.7292,2.7425,2.7534,2.7751,2.7993,2.8137,2.8258,2.8451,2.8681,2.8801,2.8741,2.8631,2.8688,2.8662,2.8199,2.7617,2.7335,2.7055,2.6233,2.5383,2.4757,2.4097,2.3121,2.2214,2.1379,2.0697,2.03,2.008,1.9877,1.9792,1.9735,1.9553,1.9142,1.8351,1.7791,1.7013,1.6573,1.6474,1.6282,1.6182,1.6083,1.6083,1.6083,1.6083,1.6083,1.6083,1.6083,1.6083,1.6083,1.6083,1.6083,1.6083,1.6083,1.6083,1.5977,1.5778,1.5678,1.5578,1.5379,1.5081,1.4782,1.4476,1.4183,1.4183,1.3983,1.3684,1.339,1.329,1.329,1.319,1.299,1.299,1.289,1.289,1.289,1.289,1.289,1.289,1.289,1.289,1.289,1.289,1.289,1.289,1.289,1.289,1.2906,1.2933,1.2966,1.3004,1.3053,1.3091,1.3069,1.3053,1.3009,1.2966,1.295,1.296,1.2928,1.2906,1.2895,1.2895,1.289,1.2895,1.2912,1.2906,2.7027,2.7027,2.7027,2.7027,2.7027,2.7027,2.7063,2.7135,2.7317,2.7473,2.757,2.7787,2.8017,2.8234,2.827,2.8439,2.8693,2.8934,2.9079,2.881,2.8658,2.859,2.8451,2.7955,2.7579,2.7625,2.7292,2.6482,2.5793,2.5021,2.4406,2.3437,2.2618,2.1962,2.1215,2.079,2.0629,2.0237,2.0135,1.9984,1.9739,1.9214,1.8206,1.7099,1.6599,1.621,1.6189,1.6182,1.6083,1.6083,1.6083,1.6083,1.6083,1.6083,1.6083,1.6083,1.6083,1.6083,1.6083,1.5983,1.5977,1.5977,1.5877,1.5678,1.528,1.518,1.4981,1.4682,1.4482,1.4283,1.4277,1.3884,1.359,1.349,1.3184,1.299,1.289,1.289,1.289,1.289,1.289,1.289,1.289,1.289,1.289,1.289,1.289,1.2895,1.2895,1.2895,1.2895,1.2922,1.2928,1.3004,1.302,1.302,1.3037,1.3053,1.3096,1.314,1.32,1.3167,1.3134,1.3096,1.3064,1.3053,1.3047,1.3047,1.3009,1.2944,1.296,1.302,1.2999,1.295,1.2944,2.7027,2.7027,2.7027,2.7027,2.7027,2.7027,2.716,2.7341,2.7321,2.7679,2.8041,2.8125,2.8199,2.8404,2.8548,2.8705,2.8764,2.9015,2.9049,2.8765,2.8562,2.8468,2.8106,2.7638,2.7324,2.7221,2.7043,2.6732,2.6179,2.5593,2.4889,2.4539,2.3399,2.2464,2.2249,2.1974,2.1414,2.0881,2.0786,2.053,1.9941,1.9055,1.7924,1.6671,1.6286,1.6205,1.611,1.6083,1.6083,1.6083,1.6083,1.6083,1.6083,1.6083,1.6083,1.6083,1.6083,1.5977,1.5983,1.5678,1.5479,1.5379,1.5081,1.4875,1.4676,1.4576,1.4476,1.4377,1.3983,1.3684,1.3184,1.319,1.309,1.299,1.299,1.289,1.289,1.289,1.289,1.289,1.289,1.289,1.289,1.289,1.289,1.289,1.289,1.2912,1.2928,1.2922,1.2917,1.295,1.2982,1.3086,1.3178,1.3178,1.3183,1.3189,1.3216,1.3227,1.3259,1.3238,1.3211,1.3232,1.3205,1.3178,1.3172,1.3167,1.3145,1.3102,1.3134,1.3167,1.3124,1.308,1.3075,2.7027,2.7027,2.7027,2.7027,2.7051,2.7172,2.7109,2.708,2.7237,2.7404,2.7428,2.7592,2.7792,2.7895,2.7953,2.8094,2.8438,2.8696,2.8603,2.8426,2.8253,2.7952,2.7457,2.696,2.6515,2.6261,2.6197,2.6247,2.5849,2.5225,2.4986,2.4667,2.3738,2.3117,2.2806,2.2477,2.1977,2.1466,2.1145,2.0903,2.019,1.898,1.7785,1.6865,1.6388,1.6273,1.6212,1.611,1.6083,1.6083,1.6083,1.6083,1.6083,1.5884,1.5778,1.5983,1.5877,1.5678,1.5578,1.518,1.4875,1.4881,1.4576,1.4383,1.4183,1.4083,1.3983,1.3684,1.3584,1.319,1.299,1.289,1.289,1.289,1.289,1.289,1.289,1.289,1.2895,1.2895,1.2901,1.2895,1.289,1.289,1.289,1.289,1.2895,1.2928,1.2971,1.2982,1.2988,1.3064,1.3118,1.3178,1.327,1.3292,1.3314,1.333,1.3341,1.3352,1.3379,1.3385,1.3412,1.3439,1.3395,1.3303,1.3287,1.3276,1.3265,1.3249,1.3243,1.3238,1.3232,1.3221,1.3216,2.6755,2.6755,2.6755,2.6778,2.6771,2.6961,2.6931,2.6713,2.7074,2.7094,2.69,2.7021,2.7347,2.7433,2.757,2.7718,2.7912,2.8253,2.8154,2.7885,2.7715,2.7327,2.6621,2.6016,2.5491,2.4966,2.476,2.4976,2.5265,2.4873,2.4574,2.4367,2.3945,2.3428,2.3014,2.3014,2.2288,2.1665,2.1353,2.0945,1.9967,1.8945,1.7915,1.6851,1.6517,1.6388,1.6286,1.6205,1.6123,1.6096,1.6083,1.6083,1.5877,1.5578,1.5479,1.5678,1.5379,1.518,1.4981,1.4682,1.4383,1.4283,1.4177,1.3884,1.3684,1.349,1.339,1.299,1.289,1.299,1.289,1.289,1.289,1.289,1.289,1.289,1.289,1.2895,1.2917,1.2917,1.2917,1.2917,1.2912,1.2901,1.2901,1.2966,1.2971,1.3031,1.3069,1.3096,1.3124,1.3216,1.3276,1.3298,1.3346,1.3379,1.3412,1.3455,1.3461,1.3471,1.352,1.3564,1.3575,1.3548,1.3488,1.3406,1.3395,1.3395,1.3401,1.3385,1.3336,1.333,1.3379,1.3374,1.3357,2.5742,2.5742,2.5753,2.588,2.6076,2.6145,2.6398,2.6671,2.6774,2.6912,2.684,2.7187,2.7237,2.7274,2.7736,2.7995,2.8109,2.8065,2.7669,2.7057,2.6896,2.6313,2.5501,2.4976,2.4358,2.3841,2.3324,2.4048,2.4461,2.4367,2.4367,2.4151,2.3738,2.3531,2.3221,2.3117,2.291,2.208,2.1873,2.0833,1.9261,1.8611,1.7905,1.7093,1.6686,1.6571,1.6388,1.6307,1.6239,1.611,1.609,1.5884,1.5479,1.5379,1.4981,1.4775,1.4576,1.4582,1.4476,1.4083,1.379,1.369,1.349,1.309,1.309,1.309,1.309,1.299,1.289,1.289,1.289,1.289,1.289,1.2901,1.2917,1.2917,1.2917,1.2988,1.2999,1.302,1.3042,1.2982,1.295,1.2928,1.2922,1.2993,1.3064,1.3124,1.3189,1.3227,1.327,1.3363,1.3406,1.3423,1.3433,1.3466,1.3488,1.3548,1.3558,1.3564,1.3586,1.3607,1.3607,1.3575,1.352,1.351,1.351,1.352,1.3542,1.352,1.3471,1.3504,1.3564,1.3537,1.3477,2.4763,2.5788,2.5788,2.5925,2.6165,2.6313,2.6296,2.6247,2.6216,2.6102,2.594,2.5871,2.5844,2.6114,2.6435,2.6563,2.6595,2.6681,2.6518,2.6005,2.5697,2.5079,2.4358,2.3738,2.3221,2.2703,2.2184,2.208,2.2806,2.3117,2.3117,2.3117,2.291,2.2599,2.2806,2.2703,2.2184,2.1674,2.1154,2.0208,1.9059,1.8529,1.8089,1.6981,1.6795,1.668,1.6571,1.6463,1.6361,1.6138,1.6011,1.5657,1.5206,1.4782,1.4283,1.4083,1.3784,1.3784,1.3884,1.349,1.339,1.329,1.309,1.299,1.289,1.289,1.289,1.289,1.289,1.289,1.2895,1.289,1.2933,1.296,1.2988,1.3031,1.3047,1.3086,1.3129,1.3151,1.3167,1.3124,1.3096,1.3107,1.3107,1.3124,1.3183,1.3232,1.3325,1.3417,1.3461,1.351,1.3531,1.3537,1.3548,1.3564,1.3548,1.358,1.358,1.3591,1.3597,1.3607,1.3607,1.3607,1.3575,1.358,1.3607,1.3597,1.358,1.3591,1.3602,1.3607,1.3607,1.3597,1.3542,2.3541,2.4905,2.5131,2.5439,2.5672,2.585,2.5718,2.5496,2.5408,2.5204,2.4824,2.4508,2.4426,2.4625,2.4784,2.4956,2.4863,2.4883,2.478,2.4564,2.4254,2.3738,2.3117,2.2599,2.1977,2.157,2.0729,2.052,2.0625,2.0937,2.1249,2.1769,2.1873,2.1977,2.1977,2.208,2.1873,2.1258,2.0529,1.959,1.8746,1.8432,1.7811,1.7252,1.6876,1.6788,1.6637,1.6653,1.651,1.609,1.5855,1.5404,1.4831,1.4327,1.3817,1.3615,1.3318,1.3312,1.338,1.3251,1.3001,1.289,1.289,1.289,1.289,1.289,1.289,1.289,1.2939,1.2939,1.2939,1.296,1.3037,1.3086,1.3113,1.3172,1.3216,1.3216,1.3238,1.3276,1.3298,1.3325,1.3308,1.3325,1.3319,1.3287,1.3308,1.3346,1.3433,1.3542,1.3558,1.3575,1.358,1.358,1.3591,1.3607,1.3607,1.3607,1.3607,1.3607,1.3607,1.3607,1.3607,1.3607,1.3607,1.3607,1.3607,1.3607,1.3607,1.3607,1.3607,1.3607,1.3607,1.3607,1.3597,2.1954,2.2317,2.3184,2.3616,2.3809,2.3809,2.4074,2.439,2.4383,2.4148,2.3845,2.3606,2.351,2.3662,2.3606,2.3738,2.3635,2.3738,2.3531,2.3221,2.291,2.2495,2.1873,2.1145,2.052,2.0208,1.9582,1.9059,1.885,1.9059,1.9895,2.0937,2.0833,2.1353,2.1561,2.1353,2.1249,2.0737,2.0007,1.9276,1.8544,1.8125,1.7601,1.7188,1.6958,1.6904,1.6768,1.6741,1.646,1.5917,1.5596,1.5156,1.4386,1.3973,1.3667,1.3355,1.3258,1.3258,1.3236,1.3127,1.2917,1.2895,1.2912,1.2939,1.2955,1.2912,1.2895,1.2933,1.3015,1.3053,1.3086,1.314,1.3167,1.3216,1.3238,1.327,1.3303,1.3298,1.333,1.339,1.3423,1.3444,1.3461,1.3466,1.345,1.3417,1.3412,1.3444,1.3499,1.3586,1.3591,1.3597,1.3597,1.3602,1.3602,1.3607,1.3607,1.3607,1.3607,1.3607,1.3607,1.3607,1.3607,1.3607,1.3607,1.3607,1.3607,1.3607,1.3607,1.3607,1.3607,1.3607,1.3607,1.3607,1.3607,2.1045,2.1135,2.1689,2.2321,2.2868,2.3003,2.3149,2.3244,2.3184,2.3006,2.2672,2.2558,2.2311,2.227,2.2495,2.2392,2.2184,2.2495,2.2392,2.208,2.1674,2.1154,2.0529,1.9999,1.9268,1.9059,1.8432,1.8125,1.8125,1.7915,1.8125,1.8858,1.9477,1.9582,1.9895,2.0095,1.9895,1.9686,1.9172,1.8649,1.823,1.7915,1.7496,1.7083,1.6978,1.6958,1.6904,1.6897,1.649,1.5879,1.5537,1.4771,1.41,1.3779,1.3465,1.3259,1.3265,1.3265,1.3254,1.3156,1.3107,1.3102,1.3107,1.3091,1.308,1.3096,1.3102,1.3129,1.314,1.3172,1.3183,1.3216,1.3249,1.3319,1.3363,1.339,1.3401,1.3406,1.3423,1.3482,1.352,1.3548,1.3569,1.3586,1.3564,1.3542,1.3542,1.3542,1.358,1.3607,1.3607,1.3607,1.3607,1.3607,1.3607,1.3607,1.3607,1.3607,1.3607,1.3607,1.3607,1.3607,1.3607,1.3607,1.3607,1.3607,1.3607,1.3607,1.3607,1.3607,1.3607,1.3607,1.3607,1.3607,1.3607,1.969,1.9765,2.0016,2.0846,2.1928,2.2211,2.2341,2.2342,2.2073,2.1698,2.1241,2.1041,2.0729,2.0625,2.0729,2.0729,2.052,2.0729,2.0937,2.0625,2.0208,1.9798,1.9485,1.8955,1.8432,1.8222,1.7811,1.7601,1.7608,1.7188,1.7398,1.7706,1.7915,1.823,1.8746,1.8536,1.8536,1.8634,1.8432,1.823,1.7811,1.7601,1.7391,1.6978,1.6978,1.6978,1.686,1.6741,1.6289,1.5701,1.5136,1.4579,1.4008,1.3554,1.3346,1.3346,1.3346,1.3346,1.3336,1.3265,1.3243,1.3211,1.3216,1.3221,1.3243,1.3243,1.3205,1.3221,1.3254,1.3292,1.3298,1.3346,1.3395,1.3471,1.3477,1.3499,1.3526,1.3537,1.3553,1.358,1.3597,1.3597,1.3597,1.3607,1.3597,1.358,1.3575,1.3575,1.3586,1.3607,1.3607,1.3607,1.3607,1.3607,1.3607,1.3607,1.3607,1.3607,1.3607,1.3607,1.3607,1.3607,1.3607,1.3607,1.3607,1.3607,1.3607,1.3607,1.3607,1.3607,1.3607,1.3607,1.3607,1.3607,1.3607,1.7953,1.7903,1.8026,1.9231,2.0959,2.1318,2.1493,2.1412,2.0969,2.0356,1.967,1.9156,1.8955,1.885,1.9164,1.9164,1.8955,1.8955,1.9052,1.9052,1.8955,1.8746,1.8536,1.8125,1.7811,1.7706,1.7391,1.7188,1.709,1.7083,1.7083,1.7083,1.7293,1.7601,1.8432,1.8536,1.8536,1.8536,1.8013,1.7811,1.7601,1.7286,1.7083,1.6978,1.6978,1.6978,1.6978,1.6551,1.6,1.5462,1.4826,1.4289,1.3752,1.3647,1.3548,1.3553,1.3564,1.3569,1.3569,1.3368,1.3298,1.3298,1.3325,1.3308,1.327,1.3259,1.3287,1.3336,1.3368,1.3412,1.3455,1.3504,1.3548,1.3564,1.3564,1.3569,1.3597,1.3607,1.3607,1.3607,1.3607,1.3602,1.3602,1.3607,1.3607,1.3602,1.3602,1.3607,1.3607,1.3607,1.3607,1.3607,1.3607,1.3607,1.3607,1.3607,1.3607,1.3607,1.3607,1.3607,1.3607,1.3607,1.3607,1.3607,1.3607,1.3607,1.3607,1.3607,1.3607,1.3607,1.3607,1.3607,1.3607,1.3607,1.3607,1.7866,1.794,1.8149,1.8648,1.9269,1.9426,1.949,1.945,1.9337,1.9214,1.894,1.8641,1.8327,1.8222,1.8327,1.8327,1.8125,1.8536,1.8634,1.8536,1.8222,1.8125,1.7915,1.7601,1.7293,1.7188,1.7083,1.6978,1.6978,1.6978,1.6978,1.6978,1.6978,1.7188,1.7398,1.7503,1.7496,1.7496,1.7293,1.7293,1.7293,1.7083,1.6978,1.6978,1.6978,1.6978,1.6978,1.6446,1.5815,1.5283,1.4657,1.4135,1.3713,1.3607,1.3607,1.3607,1.3607,1.3607,1.3602,1.351,1.3488,1.3471,1.3461,1.3455,1.3477,1.3482,1.3482,1.3471,1.3493,1.3526,1.3558,1.3569,1.3591,1.3591,1.3591,1.3597,1.3607,1.3607,1.3607,1.3607,1.3607,1.3607,1.3607,1.3607,1.3607,1.3607,1.3607,1.3607,1.3607,1.3607,1.3607,1.3607,1.3607,1.3607,1.3607,1.3607,1.3607,1.3607,1.3607,1.3607,1.3607,1.3607,1.3607,1.3607,1.3607,1.3607,1.3607,1.3607,1.3607,1.3607,1.3607,1.3607,1.3607,1.3607,1.3607,1.743,1.7502,1.7696,1.7826,1.7973,1.8284,1.8381,1.8195,1.8283,1.8222,1.802,1.802,1.7915,1.7706,1.7811,1.7915,1.7601,1.7811,1.8013,1.802,1.7706,1.7601,1.7398,1.7188,1.7083,1.6978,1.6978,1.6978,1.6978,1.6978,1.6978,1.6978,1.6978,1.7083,1.7083,1.7083,1.7083,1.7083,1.7083,1.7083,1.7083,1.6978,1.6978,1.6978,1.6978,1.6978,1.6768,1.6341,1.5704,1.5178,1.4551,1.403,1.3713,1.3607,1.3607,1.3607,1.3607,1.3607,1.3602,1.3597,1.3569,1.358,1.3607,1.3607,1.3607,1.358,1.358,1.3586,1.3607,1.3602,1.3602,1.3607,1.3607,1.3607,1.3607,1.3607,1.3607,1.3607,1.3607,1.3607,1.3607,1.3607,1.3607,1.3607,1.3607,1.3607,1.3607,1.3607,1.3607,1.3607,1.3607,1.3607,1.3607,1.3607,1.3607,1.3607,1.3607,1.3607,1.3607,1.3607,1.3607,1.3607,1.3607,1.3607,1.3607,1.3607,1.3607,1.3607,1.3607,1.3607,1.3607,1.3607,1.3607,1.3607,1.3607,1.6612,1.6637,1.6651,1.6849,1.7168,1.7999,1.8215,1.7804,1.7811,1.7503,1.7083,1.7188,1.7188,1.7083,1.7083,1.7083,1.7083,1.7188,1.7188,1.7188,1.7188,1.7083,1.7083,1.7083,1.6978,1.6978,1.6978,1.6978,1.6978,1.6978,1.6978,1.6978,1.6978,1.6978,1.6978,1.6978,1.6978,1.6978,1.6978,1.6978,1.6978,1.6978,1.6978,1.6978,1.6978,1.6873,1.6558,1.6026,1.55,1.4868,1.4235,1.3813,1.3607,1.3607,1.3607,1.3607,1.3607,1.3607,1.3607,1.3607,1.3607,1.3607,1.3607,1.3607,1.3607,1.3607,1.3607,1.3607,1.3607,1.3607,1.3607,1.3607,1.3607,1.3607,1.3607,1.3607,1.3607,1.3607,1.3607,1.3607,1.3607,1.3607,1.3607,1.3607,1.3629,1.3607,1.3607,1.3607,1.3607,1.3607,1.3607,1.3607,1.3607,1.3607,1.3607,1.3607,1.3607,1.3607,1.3607,1.3607,1.3607,1.3607,1.3607,1.3607,1.3607,1.3607,1.3607,1.3607,1.3607,1.3607,1.3607,1.3607,1.3607,1.3607,1.3607,1.6707,1.6761,1.687,1.6937,1.7083,1.7293,1.7398,1.7188,1.7188,1.7083,1.6978,1.6978,1.6978,1.6978,1.6978,1.6978,1.6978,1.6978,1.6978,1.6978,1.6978,1.6978,1.6985,1.6992,1.6985,1.6992,1.6992,1.6998,1.6985,1.6985,1.6978,1.6978,1.6978,1.6978,1.6978,1.6978,1.6992,1.6985,1.6992,1.6978,1.6978,1.6978,1.6978,1.6978,1.6978,1.6873,1.6341,1.571,1.5184,1.4551,1.4024,1.3607,1.3607,1.3607,1.3607,1.3607,1.3607,1.3607,1.3607,1.3607,1.3607,1.3607,1.3607,1.3607,1.3607,1.3607,1.3607,1.3607,1.3607,1.3607,1.3607,1.3607,1.3607,1.3607,1.3607,1.3607,1.3607,1.3607,1.3607,1.3607,1.3607,1.364,1.3635,1.3651,1.3667,1.3629,1.3613,1.3624,1.3613,1.3613,1.3607,1.3607,1.3607,1.3607,1.3607,1.3607,1.3607,1.3607,1.3607,1.3607,1.3607,1.3607,1.3607,1.3607,1.3607,1.3607,1.3607,1.3607,1.3607,1.3607,1.3607,1.3607,1.3607,1.3607,1.3607,1.6842,1.6856,1.6937,1.6978,1.6978,1.6978,1.6978,1.6978,1.6978,1.6978,1.6978,1.6978,1.6978,1.6978,1.6978,1.6978,1.6978,1.6978,1.6978,1.6978,1.6992,1.7026,1.7039,1.7073,1.7121,1.7114,1.7093,1.708,1.7053,1.6998,1.6978,1.6978,1.6978,1.6985,1.6998,1.7039,1.7073,1.7053,1.7026,1.6992,1.6992,1.6992,1.6978,1.6992,1.6992,1.6676,1.6144,1.5617,1.4979,1.4452,1.3924,1.3607,1.3607,1.3607,1.3607,1.3607,1.3607,1.3607,1.3607,1.3607,1.3607,1.3607,1.3607,1.3607,1.3607,1.3607,1.3607,1.3607,1.3607,1.3607,1.3607,1.3607,1.3607,1.3607,1.3607,1.3607,1.3607,1.3607,1.3607,1.3613,1.3635,1.3673,1.3694,1.3716,1.3749,1.3776,1.377,1.3749,1.3694,1.3635,1.3618,1.3607,1.3607,1.3607,1.3607,1.3607,1.3607,1.3607,1.3607,1.3607,1.3607,1.3607,1.3607,1.3607,1.3607,1.3607,1.3607,1.3607,1.3607,1.3607,1.3607,1.3607,1.3607,1.3607,1.3607,1.6978,1.6971,1.6978,1.6978,1.6978,1.6978,1.6978,1.6978,1.6978,1.6978,1.6978,1.6978,1.6978,1.6978,1.6978,1.6998,1.7019,1.7032,1.7066,1.7019,1.708,1.7127,1.7188,1.7216,1.7256,1.7311,1.7304,1.7216,1.7175,1.7141,1.7087,1.7012,1.7046,1.7073,1.7107,1.7168,1.7209,1.7202,1.7141,1.7087,1.7066,1.7039,1.7019,1.7039,1.6941,1.6723,1.6083,1.5537,1.4997,1.4364,1.3941,1.3635,1.3607,1.3607,1.3607,1.3607,1.3607,1.3607,1.3607,1.3607,1.3607,1.3607,1.3607,1.3607,1.3607,1.3607,1.3607,1.3607,1.3607,1.3607,1.3607,1.3607,1.3607,1.3607,1.3607,1.3607,1.3607,1.3629,1.3667,1.3689,1.3749,1.3781,1.3803,1.3825,1.3841,1.3906,1.3912,1.3868,1.3819,1.3722,1.3662,1.3635,1.3607,1.3607,1.3607,1.3607,1.3607,1.3607,1.3607,1.3607,1.3607,1.3607,1.3607,1.3607,1.3607,1.3607,1.3607,1.3607,1.3607,1.3607,1.3607,1.3607,1.3607,1.3607,1.3607,1.6978,1.6978,1.6978,1.6978,1.6978,1.6978,1.6978,1.6978,1.6978,1.6985,1.6978,1.6985,1.6985,1.6998,1.7012,1.7053,1.7127,1.7148,1.7216,1.7256,1.7277,1.7283,1.7358,1.7372,1.7405,1.7392,1.7378,1.7365,1.7324,1.7304,1.7304,1.7304,1.7283,1.7263,1.727,1.7344,1.7365,1.7365,1.7351,1.7311,1.7317,1.7317,1.7317,1.7304,1.719,1.6742,1.61,1.5683,1.4879,1.4091,1.3855,1.3694,1.3613,1.3607,1.3607,1.3607,1.3607,1.3607,1.3607,1.3607,1.3607,1.3607,1.3607,1.3607,1.3607,1.3607,1.3607,1.3607,1.3607,1.3607,1.3607,1.3607,1.3607,1.3607,1.3607,1.3607,1.3607,1.3667,1.3727,1.3792,1.3857,1.3896,1.3917,1.3939,1.395,1.3955,1.395,1.3934,1.3939,1.3874,1.3765,1.3716,1.3629,1.3613,1.3618,1.3607,1.3607,1.3607,1.3607,1.3607,1.3607,1.3607,1.3607,1.3607,1.3607,1.3607,1.3607,1.3607,1.3607,1.3607,1.3607,1.3607,1.3607,1.3607,1.3607,1.6978,1.6978,1.6978,1.6978,1.6978,1.6978,1.7012,1.7066,1.7073,1.7114,1.7154,1.7107,1.7073,1.71,1.7141,1.7195,1.7283,1.729,1.7324,1.7392,1.7453,1.746,1.7487,1.7528,1.7589,1.7589,1.7528,1.75,1.7453,1.7412,1.7405,1.7433,1.7433,1.7433,1.7439,1.7473,1.7521,1.7521,1.7568,1.7595,1.7575,1.7514,1.7433,1.7419,1.721,1.6779,1.6124,1.5584,1.5008,1.4202,1.3971,1.3798,1.3727,1.37,1.3662,1.3624,1.3607,1.3607,1.3613,1.3618,1.3624,1.3624,1.3613,1.3618,1.3607,1.3607,1.3607,1.3607,1.3607,1.3607,1.3607,1.3607,1.3607,1.3607,1.3618,1.3624,1.3667,1.3732,1.3803,1.3879,1.395,1.4026,1.4064,1.4129,1.414,1.4151,1.4124,1.4064,1.4053,1.4037,1.3923,1.3825,1.376,1.37,1.3705,1.3662,1.3607,1.3607,1.3635,1.3618,1.3624,1.3613,1.3607,1.3635,1.3635,1.3607,1.3607,1.364,1.3613,1.3607,1.3607,1.3607,1.3613,1.3635,1.3635,1.6978,1.6978,1.7005,1.7012,1.7012,1.7032,1.7114,1.7209,1.7222,1.729,1.7378,1.7297,1.7249,1.7277,1.7351,1.7405,1.7446,1.7446,1.746,1.7507,1.7514,1.7589,1.765,1.7684,1.7731,1.7751,1.7711,1.7616,1.7534,1.7534,1.7534,1.7487,1.748,1.748,1.7521,1.7589,1.7677,1.7697,1.7745,1.7819,1.7745,1.7629,1.7548,1.7494,1.7365,1.6939,1.6181,1.5639,1.5096,1.4508,1.4058,1.3885,1.3841,1.3803,1.376,1.3722,1.3705,1.37,1.3684,1.37,1.3684,1.3667,1.3645,1.3651,1.3651,1.3656,1.3656,1.3651,1.3651,1.3613,1.3613,1.3613,1.3613,1.3618,1.3635,1.3662,1.3732,1.3814,1.3901,1.3983,1.4059,1.4146,1.42,1.4265,1.4292,1.4314,1.4298,1.4243,1.4195,1.4167,1.4102,1.4015,1.3944,1.389,1.3825,1.3765,1.37,1.3722,1.3749,1.3689,1.3662,1.3716,1.3727,1.3694,1.3689,1.37,1.37,1.3727,1.3689,1.3662,1.3705,1.3738,1.3732,1.3738,1.37,1.6978,1.6992,1.71,1.7154,1.7168,1.7277,1.7358,1.7372,1.7378,1.7399,1.7453,1.7534,1.7507,1.7378,1.7399,1.7473,1.7602,1.7602,1.7697,1.7772,1.7717,1.7765,1.7799,1.7779,1.7826,1.7833,1.7819,1.7799,1.7697,1.7724,1.7765,1.7745,1.7758,1.7758,1.7765,1.7812,1.7806,1.7819,1.7819,1.786,1.786,1.7792,1.7799,1.7779,1.7779,1.7338,1.6794,1.6237,1.5619,1.4989,1.4353,1.4086,1.3939,1.3923,1.389,1.3852,1.3836,1.3841,1.383,1.383,1.3825,1.3836,1.3836,1.3841,1.3847,1.3852,1.3841,1.3814,1.3781,1.3662,1.3635,1.3629,1.3629,1.3656,1.3678,1.3743,1.3809,1.3939,1.4064,1.4124,1.4189,1.4238,1.4271,1.4309,1.4309,1.432,1.432,1.4276,1.4271,1.4271,1.426,1.4189,1.4108,1.4031,1.3944,1.3906,1.3857,1.3874,1.3868,1.3819,1.3819,1.3885,1.3885,1.3819,1.3841,1.3874,1.3863,1.3814,1.3841,1.3841,1.3879,1.3901,1.3879,1.3847,1.3814]}]]